GFSSGP_sfc_temp_042.txt.gz
Temp
60 61 61 61 50 44 38 47 51 54 57 60 64 62 58 61 58 51 67 69 72 72 72 72 73 73 74 74 74 74 74 74 74 74 74 74 74 74 75 75 75 76 77 76 76 75 75 74 74
61 65 61 52 42 36 42 49 51 54 60 61 63 62 59 58 66 64 66 70 73 72 72 71 72 73 73 73 73 74 74 74 74 74 74 74 74 74 74 74 75 75 76 76 76 75 75 74 72
64 66 56 45 38 40 42 51 53 58 62 61 60 62 60 59 65 66 69 72 72 72 71 71 72 72 73 73 73 74 73 73 73 74 74 74 75 74 74 74 74 75 76 76 76 75 73 72 71
62 59 53 45 41 46 49 53 52 57 60 63 59 56 62 66 65 68 71 72 70 71 71 70 71 72 73 73 73 73 72 72 73 73 74 75 75 74 74 74 74 75 75 75 75 73 72 70 70
57 52 44 38 42 51 55 55 54 54 56 58 59 54 59 65 68 68 68 67 68 69 70 70 69 72 72 73 73 72 72 72 73 73 73 74 74 73 72 72 73 73 73 74 73 72 71 70 69
52 49 40 38 45 54 56 54 56 57 57 58 57 57 59 66 66 64 64 63 65 66 68 69 71 71 71 72 71 71 71 72 72 72 72 73 72 71 71 71 72 72 72 72 71 71 70 70 69
50 45 39 40 47 52 56 58 56 56 56 56 59 54 60 62 64 63 63 63 63 64 66 66 66 69 69 69 69 69 70 70 71 71 71 70 70 70 71 71 71 71 71 71 71 70 69 69 68
53 49 40 44 46 49 57 59 58 57 56 62 61 54 57 61 63 63 62 62 62 61 62 63 64 65 65 66 68 68 69 69 69 69 69 69 69 70 70 70 70 71 71 70 70 69 69 68 67
54 46 44 45 48 54 57 54 58 61 57 59 61 60 62 62 63 61 60 60 60 59 59 60 62 63 64 66 68 68 69 68 68 68 68 65 63 65 65 68 69 70 69 69 68 68 66 66 66
51 46 49 57 55 53 56 56 58 58 56 58 58 61 63 62 61 59 58 57 58 58 58 60 61 62 64 67 64 64 66 64 64 63 63 63 63 63 65 66 68 68 68 67 66 66 65 62 58
51 53 57 59 61 59 56 55 59 56 53 57 57 59 61 61 61 60 59 59 59 60 61 61 61 62 63 64 62 61 62 62 62 63 61 61 62 61 61 59 61 60 63 60 61 60 59 57 57
50 59 61 59 59 58 57 58 57 56 58 61 61 62 61 60 60 60 60 59 59 59 60 61 62 63 63 62 61 61 62 61 61 62 63 62 60 60 59 58 58 57 57 56 56 56 56 56 56
54 59 63 62 61 58 62 59 56 52 56 61 62 61 60 60 59 61 61 61 61 59 59 61 62 62 62 61 60 60 60 61 61 62 62 61 60 58 57 56 56 56 56 55 55 54 55 54 54
61 57 57 61 58 61 60 58 58 55 58 58 59 57 57 58 59 59 58 58 60 61 61 64 62 62 62 60 60 59 60 61 61 61 61 61 59 56 56 55 55 54 55 54 54 53 52 51 52
62 55 57 58 59 57 61 52 54 56 58 55 56 56 57 58 59 61 61 59 60 61 63 62 61 61 61 60 60 60 60 60 59 59 59 59 57 56 55 54 53 53 53 53 52 51 50 50 51
55 54 48 55 57 57 58 48 52 56 56 54 55 56 57 58 60 61 60 60 59 59 60 61 65 61 59 59 59 59 59 59 58 58 57 58 57 56 54 53 52 52 52 52 51 50 48 47 48
48 41 46 51 60 58 55 47 53 57 57 54 54 55 56 57 59 61 60 59 59 59 60 60 61 60 59 58 58 58 58 58 57 56 56 56 56 56 54 53 52 52 51 50 51 48 48 46 47
43 44 41 45 54 54 49 49 52 55 56 54 53 54 55 56 59 62 61 60 59 59 61 60 59 58 57 57 56 56 56 56 57 57 55 56 55 55 54 52 51 51 49 48 48 47 45 45 45
50 48 45 48 55 54 52 51 52 55 56 53 53 54 55 57 61 62 61 61 59 59 59 60 58 57 57 56 55 54 54 56 57 57 56 56 55 54 53 51 50 49 48 47 47 45 45 44 43
52 48 46 52 55 53 47 48 51 54 56 57 56 56 56 57 58 60 60 60 60 60 60 59 59 57 58 60 56 56 54 54 58 57 55 55 54 54 52 50 49 48 47 46 46 45 43 42 42
48 46 46 50 52 50 48 45 48 54 56 58 59 60 59 59 57 59 60 60 61 59 59 59 59 58 59 59 56 53 53 53 54 51 51 53 54 53 52 50 48 47 46 45 44 44 44 41 42
45 53 51 49 47 41 47 38 44 48 54 55 58 56 58 59 60 60 60 59 60 59 58 59 59 58 59 58 59 55 55 51 52 53 54 52 53 52 51 49 47 46 45 44 44 45 43 42 41
51 54 51 49 45 43 43 41 45 46 47 54 58 59 60 61 62 60 61 62 61 58 57 57 58 58 59 59 59 56 53 52 51 50 51 50 50 50 49 48 46 45 44 44 45 44 43 41 40
56 52 49 46 43 36 42 40 42 45 52 53 59 61 62 60 60 62 62 60 58 56 57 57 58 58 59 59 57 56 53 51 51 49 49 48 47 46 47 47 45 45 45 46 45 45 43 41 41
51 45 34 34 32 34 44 40 44 53 54 56 56 59 61 62 56 57 57 57 56 57 58 58 58 58 59 58 58 55 54 55 54 52 50 48 45 44 45 46 45 45 45 47 45 45 45 40 39
47 46 34 31 29 35 43 38 47 53 55 56 56 56 57 56 56 57 59 58 57 57 58 58 59 59 58 57 58 56 57 56 55 54 51 50 48 47 47 48 48 46 46 46 46 44 43 41 39
48 43 48 36 34 29 37 44 52 51 52 53 52 52 51 51 54 57 56 57 56 57 58 59 59 59 58 58 58 58 57 55 54 52 51 48 48 50 49 48 47 45 46 47 46 44 43 41 38
50 53 41 38 32 30 35 36 40 50 51 50 52 51 50 50 52 54 56 56 57 58 58 58 59 59 59 56 56 55 52 53 52 51 50 49 50 51 48 47 47 47 47 47 45 43 41 39 38
46 44 43 43 36 32 28 36 47 50 52 50 52 52 52 51 52 54 56 57 58 58 58 57 57 58 54 54 51 50 50 50 51 51 51 51 50 49 47 46 47 47 46 45 44 42 39 39 38
49 48 45 34 36 33 30 35 51 51 52 52 55 54 52 53 53 53 55 55 57 57 57 57 57 56 54 51 49 50 50 51 50 49 50 48 46 47 48 48 47 47 46 45 42 39 42 38 36

GFSSGP_sfc_temp_045.txt.gz
Temp
70 72 74 74 64 60 56 60 63 64 66 67 69 68 65 66 63 61 71 72 75 74 79 78 73 73 73 74 73 74 74 74 74 74 74 74 74 75 75 75 75 76 77 77 76 76 76 75 74
72 73 73 66 59 54 59 60 61 64 66 66 66 67 64 60 68 66 67 73 75 74 78 78 72 73 73 73 73 74 75 74 74 74 74 74 75 75 75 75 75 75 76 76 77 76 75 73 72
74 72 70 63 56 55 57 61 64 66 66 66 66 67 66 62 67 68 71 73 73 73 78 77 72 72 73 73 73 74 73 73 73 74 74 75 75 75 75 74 74 75 76 76 76 75 73 72 71
73 73 65 60 55 57 59 64 63 64 66 68 67 61 66 66 66 70 73 74 71 72 77 72 71 72 73 73 73 73 73 73 73 73 74 75 75 75 74 74 74 75 76 75 75 73 72 70 70
69 66 59 54 54 60 63 64 63 62 63 64 66 59 62 65 65 68 67 70 69 71 73 72 69 70 73 73 73 72 72 72 73 73 74 74 74 73 73 73 73 73 74 74 73 72 71 70 69
66 64 56 54 56 62 65 64 64 63 63 64 63 62 60 67 63 64 66 65 66 68 71 70 70 71 72 72 72 71 71 72 72 72 73 73 72 72 72 72 72 72 72 72 72 71 70 70 69
63 61 55 54 56 60 63 65 61 61 62 62 66 59 60 62 63 64 64 64 64 65 67 67 67 68 68 69 70 70 70 71 71 71 71 70 70 71 71 71 72 71 71 71 71 70 69 69 68
65 63 55 57 57 59 63 63 63 63 60 67 66 60 58 61 63 63 62 62 63 63 62 63 63 64 65 71 68 69 69 69 69 70 70 69 70 70 70 70 71 71 71 70 70 69 68 68 66
66 60 55 56 57 62 61 61 63 65 62 63 63 64 63 62 64 61 60 59 60 60 59 59 60 63 64 67 70 69 69 69 69 70 68 69 76 75 75 70 69 70 69 69 68 67 66 66 65
65 58 58 64 65 63 61 62 62 61 59 60 60 61 61 63 64 59 59 57 57 57 58 59 61 62 64 68 70 68 69 69 69 71 72 74 72 73 74 71 68 68 67 67 66 66 65 68 71
62 60 64 66 67 65 62 60 64 61 58 62 58 59 60 61 61 59 59 57 56 58 60 63 63 63 63 66 64 66 68 68 69 70 71 70 72 71 72 71 71 70 68 71 70 70 70 68 69
60 64 65 68 65 62 61 63 61 62 61 65 65 62 62 60 60 59 58 57 57 59 61 62 62 62 62 64 66 66 67 70 69 70 70 70 68 66 68 69 69 68 69 68 69 68 66 66 66
61 65 67 68 64 64 65 62 60 59 62 65 65 63 62 62 61 61 62 62 61 61 61 62 63 65 66 66 66 66 67 69 68 69 69 69 67 66 67 67 69 69 68 68 67 67 67 66 65
66 64 64 64 63 66 64 61 61 59 62 61 62 62 63 62 61 63 64 63 62 64 65 66 67 66 66 65 65 66 69 70 69 69 68 69 70 68 68 67 67 67 68 68 67 67 66 65 65
66 61 64 64 64 62 65 60 59 60 61 58 60 61 62 63 64 62 64 64 64 65 66 65 66 67 67 68 67 68 67 69 69 68 68 68 67 66 66 65 65 66 66 64 64 64 65 65 64
61 61 57 63 63 63 63 57 59 59 59 57 59 61 61 63 64 64 64 65 67 67 66 66 68 67 66 67 67 69 68 67 66 66 66 66 66 65 65 65 65 64 65 65 61 64 63 63 64
56 54 54 58 64 61 62 58 59 60 60 60 60 61 62 63 64 66 66 68 68 68 67 66 67 67 66 66 66 67 67 67 67 66 67 65 65 64 65 66 64 64 64 61 64 62 63 61 62
52 53 54 55 61 61 59 60 59 59 59 61 61 61 61 63 64 66 67 68 68 68 68 68 68 67 66 66 66 67 66 65 65 66 67 66 66 65 65 65 63 61 59 61 62 60 61 61 62
57 55 55 58 61 61 59 60 61 59 58 59 61 61 62 63 68 68 66 68 67 68 67 67 66 66 66 65 63 64 64 64 65 66 65 65 66 65 64 63 62 62 62 61 60 59 59 60 59
56 54 54 58 61 59 58 59 60 59 60 62 62 62 63 65 65 66 66 66 66 66 67 67 67 67 66 68 66 67 67 66 68 62 59 61 64 64 61 61 62 62 61 59 59 59 58 59 58
56 54 54 55 58 58 56 56 56 58 60 62 63 65 65 65 65 65 65 65 66 66 66 67 68 68 67 68 67 65 65 64 64 61 61 62 63 62 59 61 61 60 61 59 59 59 58 57 56
51 59 57 56 55 51 56 49 53 56 57 60 63 63 65 66 66 68 66 66 66 66 67 67 67 67 67 66 66 64 66 64 64 62 63 61 61 60 59 60 60 59 59 58 58 59 58 56 54
56 58 57 56 54 51 51 51 56 55 55 60 63 64 66 67 68 68 68 68 68 68 65 66 66 66 66 65 67 65 66 66 64 62 61 60 58 59 59 59 58 58 59 57 57 55 55 50 47
60 57 54 52 52 45 49 50 54 56 59 61 65 66 67 67 65 68 71 70 69 66 65 64 65 65 66 65 64 64 63 61 60 59 58 57 60 59 58 59 58 57 57 56 56 55 51 49 51
58 54 45 41 41 41 49 47 55 61 62 63 64 66 68 68 67 67 68 66 67 64 64 65 65 64 64 63 63 63 63 62 62 60 54 53 57 56 56 57 55 56 56 54 52 46 46 50 48
53 54 44 37 37 43 48 45 58 63 64 63 61 62 64 66 66 67 68 68 66 65 65 64 64 65 64 62 63 64 63 62 62 59 56 55 56 57 56 55 55 54 51 50 46 47 49 52 53
54 50 54 43 39 40 47 52 61 61 63 63 63 62 62 62 65 66 67 67 66 65 64 63 64 66 64 63 63 63 63 62 58 56 57 55 55 53 54 54 54 54 50 48 47 50 52 52 51
57 58 48 45 37 35 43 45 52 58 60 61 62 63 63 61 61 62 64 65 66 66 65 65 66 66 66 65 64 63 63 62 60 58 57 55 54 54 53 54 53 50 49 50 48 52 51 51 50
52 51 48 50 45 39 37 46 56 58 61 61 62 62 62 62 62 62 64 65 66 66 65 65 66 66 66 65 64 63 62 61 60 57 56 54 54 54 54 54 50 49 48 49 47 47 50 49 50
56 54 52 44 42 41 39 45 59 59 61 61 62 63 63 63 63 63 63 64 64 64 65 65 65 65 66 64 61 60 59 57 56 55 55 54 53 52 51 50 48 47 48 51 47 47 46 50 49

GFSSGP_sfc_temp_048.txt.gz
Temp
76 87 91 86 71 71 67 69 76 73 75 78 78 77 73 75 70 60 76 78 81 82 84 81 73 74 74 74 74 74 74 75 75 74 74 75 75 75 75 75 76 76 77 77 77 76 75 74 73
89 85 87 84 67 62 66 74 71 74 76 76 74 76 75 64 72 72 70 76 83 82 83 85 72 73 73 73 74 74 75 75 74 74 75 75 75 75 75 75 75 76 76 77 76 76 75 73 72
84 85 80 75 69 63 67 71 74 75 75 75 75 78 74 66 71 72 78 76 78 80 84 82 72 72 73 73 73 74 74 74 74 74 75 75 75 75 75 74 74 75 77 77 76 75 73 71 70
86 84 81 68 64 69 70 75 75 76 76 76 77 71 73 69 70 77 82 76 74 77 79 71 71 72 73 73 73 73 73 73 73 74 75 75 75 75 74 74 75 75 76 76 75 73 72 70 69
88 82 69 65 65 70 75 76 75 74 74 75 76 71 69 65 70 73 71 74 71 74 75 74 69 71 73 73 73 73 72 72 73 73 74 74 74 74 73 73 74 74 74 74 73 72 71 70 69
78 78 66 65 65 71 75 75 74 72 73 72 73 73 67 68 67 68 66 68 68 70 71 71 69 71 71 72 72 72 72 72 73 73 73 73 73 72 72 72 72 72 72 72 71 71 70 69 69
73 72 66 65 65 68 71 75 71 71 72 70 76 70 63 65 66 67 66 65 66 66 67 68 69 70 69 69 69 70 71 71 72 71 71 71 71 71 71 71 72 71 71 71 71 70 69 69 68
80 75 65 69 67 66 72 71 71 71 69 75 76 70 61 62 66 64 64 64 62 63 64 63 63 65 69 69 68 69 69 69 70 70 69 69 70 70 70 71 71 71 71 70 70 68 68 67 67
79 69 68 66 67 69 73 70 73 73 71 72 73 73 70 64 66 66 61 60 59 60 61 62 61 60 64 67 69 70 69 69 69 70 69 71 81 80 80 70 69 70 69 68 68 67 66 66 66
75 70 67 74 76 73 71 70 70 68 69 68 65 62 64 64 65 64 59 57 57 57 58 60 61 61 63 67 69 74 74 74 74 74 75 79 79 81 80 72 67 68 67 67 67 66 67 72 80
74 69 74 75 76 75 72 71 72 70 66 71 64 58 61 63 64 61 58 58 57 57 58 58 59 60 63 65 68 71 72 71 73 73 77 76 77 78 79 76 77 75 73 77 76 75 80 77 78
69 76 76 76 75 72 69 73 69 69 67 71 66 63 62 62 62 59 57 57 57 58 58 58 59 60 63 63 66 67 67 71 73 75 75 75 76 76 77 79 78 77 79 76 77 77 74 73 73
70 74 76 76 72 73 71 69 68 66 71 73 67 64 63 64 64 63 64 60 59 58 59 60 62 62 62 63 65 66 70 72 75 74 75 79 78 75 77 77 78 78 78 77 76 74 74 73 72
75 74 74 73 70 72 71 69 69 67 71 68 66 67 65 66 67 62 67 65 63 62 61 67 68 70 72 69 69 71 72 73 73 78 78 76 76 76 77 76 77 77 77 76 76 75 74 74 73
75 69 73 73 73 70 72 68 69 70 70 66 70 68 67 66 68 66 69 67 69 71 71 68 71 71 71 71 72 72 73 76 77 78 76 76 76 76 76 76 75 76 76 75 73 73 73 74 74
70 70 66 71 72 71 71 64 69 69 69 68 72 71 70 68 69 69 70 71 73 74 72 72 73 72 71 73 73 76 77 76 77 77 77 76 75 75 75 75 75 74 73 74 73 71 73 73 74
68 62 63 66 73 71 69 67 70 69 70 70 72 71 70 71 73 72 73 73 74 76 73 71 73 74 73 73 73 74 75 76 77 76 76 74 74 73 74 75 73 72 73 71 71 72 72 70 71
61 62 65 64 69 70 69 69 70 71 70 68 73 72 71 71 71 73 73 75 77 77 74 73 73 73 73 74 74 77 76 78 78 77 78 75 75 73 74 74 71 73 72 70 70 69 71 72 72
66 64 64 68 70 67 68 70 73 72 70 69 72 73 73 73 76 74 74 76 77 76 74 73 72 73 71 75 74 75 74 76 76 78 76 75 75 73 73 73 71 71 69 70 69 68 66 67 69
64 63 63 67 67 66 69 69 73 73 71 72 74 74 75 76 75 74 74 75 75 75 75 75 75 75 75 77 77 77 77 77 78 77 75 74 74 74 73 73 70 70 71 68 67 67 66 68 68
63 63 62 62 66 68 66 66 67 70 73 73 75 77 77 77 75 74 74 74 75 75 75 76 76 77 76 76 77 76 77 76 75 74 70 68 64 69 72 69 66 67 70 67 67 67 66 65 65
59 68 65 63 62 57 66 55 66 69 68 69 71 73 74 76 78 78 76 75 75 75 76 77 77 77 77 76 76 74 74 73 75 75 75 73 71 69 71 68 66 65 69 68 67 67 66 65 63
62 67 65 64 63 61 62 57 64 66 66 70 73 74 75 78 79 79 79 78 78 77 76 76 77 77 77 77 76 75 74 77 78 75 72 70 69 69 69 67 65 64 66 67 66 64 64 64 64
68 64 64 63 62 50 60 59 62 67 69 74 77 78 77 78 79 81 82 82 80 80 77 76 76 76 77 75 74 74 73 74 75 71 70 70 67 66 66 67 66 64 66 65 64 64 63 58 54
66 62 50 47 48 47 59 57 63 71 73 73 74 78 80 80 79 79 81 80 79 78 76 75 76 76 76 75 74 73 72 72 71 71 70 69 65 59 59 62 64 65 66 65 63 56 57 56 56
63 62 51 40 43 50 56 52 65 73 75 74 74 75 75 77 80 81 80 81 80 78 76 76 73 73 76 73 73 74 71 69 71 72 70 65 60 58 61 61 62 64 62 58 52 54 56 57 57
61 56 65 53 49 48 57 61 70 72 72 74 75 73 75 75 79 80 82 82 80 79 76 75 76 77 76 70 71 69 67 67 69 70 66 59 58 59 61 60 59 57 60 57 51 53 49 51 54
64 68 53 56 42 41 52 55 60 65 68 71 74 75 75 74 74 76 78 79 81 80 78 76 76 76 76 74 71 70 68 68 69 68 61 60 60 60 59 56 58 58 54 51 50 49 49 50 51
60 58 59 60 55 46 44 54 69 69 71 71 73 75 76 75 74 74 75 77 77 78 77 75 75 76 76 75 74 71 69 68 68 65 63 64 62 60 56 58 59 55 50 48 46 46 48 49 47
68 63 62 51 50 53 51 53 73 73 72 72 73 74 77 76 75 74 75 75 75 75 76 75 76 77 77 76 74 72 70 67 65 63 62 61 57 56 56 55 51 50 47 46 46 46 45 46 47

GFSSGP_sfc_temp_051.txt.gz
Temp
77 88 94 90 72 73 67 73 83 76 78 83 86 81 78 65 61 60 80 84 85 80 85 81 73 74 74 74 74 74 74 75 75 75 74 75 75 75 75 76 76 76 77 77 76 76 75 74 73
94 93 91 83 68 64 69 78 74 79 83 83 81 83 82 66 72 72 75 79 84 77 84 81 72 73 74 74 74 74 75 75 74 75 75 75 75 75 75 75 75 76 77 77 76 75 74 73 72
88 92 81 76 71 65 67 74 77 80 82 82 81 85 79 73 76 76 83 74 76 77 80 78 72 72 73 73 73 74 74 74 74 74 75 75 75 75 75 74 75 76 76 76 76 74 73 71 70
90 88 84 70 67 74 75 78 80 80 84 84 85 78 78 77 78 78 83 81 73 75 76 73 71 72 73 73 74 73 73 73 73 74 75 75 75 75 74 74 75 76 76 76 74 73 71 70 70
90 85 72 70 70 75 79 81 81 79 81 82 83 79 75 73 77 77 79 80 79 78 76 72 70 72 73 73 73 73 72 73 73 74 74 74 74 74 74 74 74 74 74 74 73 72 71 70 69
80 83 68 64 69 75 79 82 81 80 80 80 78 81 70 75 73 69 70 70 75 69 69 70 71 71 72 72 72 72 72 72 72 73 73 73 73 72 73 73 72 72 72 72 71 70 70 69 69
77 76 69 70 68 72 75 82 77 77 77 78 84 75 69 70 66 68 67 66 66 68 67 68 69 71 69 69 70 70 71 71 72 72 71 71 71 71 71 72 72 71 71 71 70 70 69 69 68
82 78 71 72 68 65 78 78 79 76 77 82 83 74 68 66 65 64 64 63 64 64 65 65 66 67 70 73 69 70 70 70 70 70 69 69 70 70 70 70 71 71 71 70 70 68 68 68 67
87 72 68 69 70 70 81 76 79 78 78 78 78 75 68 68 65 62 60 61 60 61 61 64 64 64 68 70 70 70 69 69 69 70 69 71 79 79 79 70 69 69 69 69 68 68 67 66 66
78 73 70 78 78 76 78 75 75 74 75 74 65 67 66 66 66 63 59 57 59 58 58 59 60 62 63 67 69 68 72 73 74 74 75 77 79 79 77 70 68 68 67 67 67 67 67 70 79
79 72 77 79 79 80 78 77 78 75 68 73 69 59 62 63 66 64 59 57 57 58 59 59 60 62 61 63 63 64 72 74 73 72 74 76 74 73 74 72 74 73 71 76 74 73 79 79 79
73 79 80 81 81 78 75 80 74 72 72 76 65 63 65 66 63 62 58 56 55 56 57 59 61 60 62 61 62 64 72 73 72 72 74 74 74 73 74 77 77 76 78 76 77 79 76 76 76
75 78 80 82 79 78 77 75 74 73 77 71 65 65 65 69 64 61 59 59 56 55 57 58 59 59 61 62 62 67 71 70 69 74 75 74 74 73 78 78 79 79 80 78 78 76 76 75 74
80 79 79 79 78 78 75 76 76 74 76 68 65 68 71 71 67 61 60 58 57 58 57 59 60 60 62 62 63 66 70 71 74 73 74 74 76 76 78 77 78 79 79 80 78 77 76 76 75
79 73 78 78 78 77 78 66 72 77 77 72 70 73 72 70 71 66 64 60 59 58 60 59 61 62 63 64 67 73 73 74 74 75 75 76 77 76 77 77 78 79 79 77 77 75 76 75 76
74 75 66 57 78 79 71 46 73 78 75 74 74 74 73 71 72 73 71 68 68 69 69 68 70 68 68 69 70 72 74 74 76 77 76 77 78 77 77 78 77 77 76 76 75 74 74 74 75
72 64 65 64 79 77 75 52 74 79 77 75 76 75 74 73 75 74 72 72 73 72 70 70 70 71 72 74 73 74 76 77 80 79 79 77 78 76 75 77 77 75 75 75 74 73 74 72 72
64 65 69 68 66 75 72 71 74 77 77 75 76 76 75 74 75 75 74 74 75 76 73 71 71 72 72 70 73 75 76 77 79 79 78 77 77 76 76 77 75 74 75 74 73 72 73 73 72
70 68 68 71 75 71 70 72 69 77 77 75 75 76 76 76 79 76 75 75 75 77 75 74 73 73 73 74 73 75 73 76 78 78 78 77 77 76 75 77 75 74 74 72 71 70 68 69 71
68 66 66 70 74 71 68 70 73 77 76 77 77 77 77 78 77 75 74 76 76 76 76 75 76 76 74 76 77 78 78 78 80 80 79 79 76 77 76 76 74 73 73 70 69 69 67 69 69
67 65 64 65 66 74 70 66 73 77 79 79 80 81 81 80 78 76 74 75 76 76 76 77 77 77 74 76 80 79 79 79 78 79 78 77 76 77 76 75 75 72 71 69 68 68 68 66 67
62 72 68 67 65 58 70 54 64 74 74 76 78 79 80 81 81 79 77 76 76 77 78 78 79 79 80 79 79 76 76 75 77 77 79 76 73 71 73 74 72 70 70 67 67 70 68 67 65
66 71 69 68 65 63 60 60 62 73 70 74 77 79 81 82 82 81 79 79 80 79 79 79 79 80 81 80 78 78 75 77 79 78 74 74 73 72 74 74 70 68 69 68 66 67 67 67 66
74 67 67 67 64 52 62 60 60 66 72 76 79 81 81 82 83 84 85 83 82 82 79 79 79 80 81 80 78 77 76 76 77 78 73 73 74 73 71 70 68 67 67 67 67 67 65 66 62
70 63 50 48 50 48 64 62 64 63 77 77 78 82 83 83 83 84 84 84 82 81 80 80 79 79 80 79 79 77 77 76 76 77 74 72 70 70 69 68 65 62 62 63 67 65 60 57 54
65 64 52 40 44 50 63 55 65 76 79 80 81 82 84 85 84 84 85 85 84 83 81 79 80 79 80 73 73 77 77 78 76 74 75 73 71 70 66 61 60 62 62 62 58 54 55 57 54
65 59 69 56 57 50 59 65 71 77 76 78 79 80 81 83 84 85 86 86 85 83 82 80 80 80 80 71 65 67 73 75 73 72 73 72 70 63 60 58 61 62 63 56 52 52 53 49 53
69 71 57 58 43 41 56 59 61 68 71 75 77 78 80 81 82 84 86 86 86 86 83 81 80 79 80 79 74 74 75 72 72 71 69 68 65 63 61 61 61 60 55 54 55 50 49 48 46
64 61 64 63 57 44 46 56 72 71 74 74 76 79 80 80 80 80 82 85 87 87 85 82 81 81 81 81 78 74 70 70 67 66 65 63 64 64 62 62 59 55 56 54 48 49 47 46 46
70 65 64 53 52 57 54 55 76 76 77 77 77 79 81 82 81 80 81 80 81 82 83 81 80 80 81 81 79 73 68 67 65 63 62 61 61 58 57 54 53 50 48 47 44 45 47 45 44

GFSSGP_sfc_temp_057.txt.gz
Temp
64 68 66 66 51 47 45 54 60 65 67 67 69 68 63 61 61 52 67 68 65 68 69 70 73 74 74 74 74 74 75 75 75 75 75 75 75 75 75 75 75 75 76 76 76 76 76 75 73
70 77 68 61 46 39 48 61 61 69 72 70 69 69 65 56 67 68 66 67 69 70 72 71 73 73 74 74 74 74 75 75 75 75 75 75 75 75 75 75 74 75 76 76 76 76 75 73 72
70 75 59 52 46 45 48 63 64 71 76 72 70 68 62 60 67 69 72 70 69 72 75 75 73 73 73 73 74 74 74 74 74 74 75 75 75 75 75 74 74 75 75 76 76 75 73 72 71
70 66 62 50 48 57 58 65 68 70 75 77 64 60 63 67 68 70 74 73 70 71 72 70 72 72 72 73 73 73 73 73 73 74 74 75 75 75 74 74 74 75 75 75 74 73 72 70 70
67 60 49 47 52 62 65 66 67 67 66 67 71 58 58 65 68 68 71 70 68 68 70 70 70 70 70 72 73 73 72 72 73 73 74 74 74 74 74 73 73 73 73 73 73 72 71 70 70
60 60 46 48 56 65 65 66 68 61 66 65 62 60 57 66 65 65 67 69 67 68 69 69 70 70 70 70 70 71 72 72 72 73 73 73 73 73 73 72 72 72 71 71 71 70 70 70 70
57 51 48 52 59 61 64 68 61 58 61 59 60 57 58 63 63 64 65 67 68 68 68 68 69 69 68 68 68 69 71 71 71 71 72 72 72 71 72 71 71 71 70 70 70 69 69 69 69
63 56 52 55 58 56 66 70 67 64 59 65 67 56 55 61 63 63 63 65 66 66 66 66 67 67 66 67 68 69 68 69 69 69 69 70 70 70 70 70 70 70 70 70 69 68 69 69 68
65 52 49 56 62 60 65 64 65 67 61 64 64 64 63 63 63 62 61 61 63 64 64 64 63 64 64 65 67 69 69 69 68 69 68 67 67 67 68 69 69 69 69 69 68 68 68 68 68
58 49 55 69 64 63 63 63 66 62 57 58 59 62 63 63 61 59 60 58 58 59 62 63 63 62 63 65 66 66 67 66 67 66 65 67 66 68 69 68 67 68 68 68 68 67 67 67 62
63 55 66 70 70 70 63 60 63 59 57 58 57 58 61 60 59 57 57 57 57 58 61 62 62 62 62 63 63 64 64 65 65 66 66 67 66 65 65 64 64 63 66 65 65 65 63 64 62
60 68 70 71 69 67 64 61 56 56 55 63 60 62 63 59 58 56 55 56 56 57 58 60 61 61 61 63 62 62 63 63 63 66 66 64 64 64 63 62 62 63 63 63 63 61 62 63 64
64 67 72 72 73 68 68 60 56 54 60 64 64 64 60 58 57 57 56 57 57 57 58 58 59 59 59 60 60 61 61 62 63 66 67 66 66 63 64 63 63 63 63 63 62 63 64 63 63
69 69 68 72 71 69 63 58 62 57 63 62 62 59 57 56 57 55 56 55 56 57 57 57 57 59 60 59 59 59 60 61 62 64 65 66 66 63 65 63 64 63 64 63 63 62 62 62 62
70 62 66 68 68 65 64 57 56 61 62 61 62 61 57 56 59 56 56 56 57 57 58 58 57 58 59 59 59 59 61 61 61 63 66 66 65 65 65 64 63 64 65 64 63 62 61 60 62
62 60 51 64 68 65 64 52 59 60 60 61 62 61 58 57 58 55 58 58 59 58 58 59 61 58 58 59 59 61 60 61 62 64 63 66 67 66 65 63 63 64 64 63 61 61 60 59 58
55 48 53 59 68 64 59 49 62 64 61 60 61 59 60 58 57 57 57 57 56 57 58 59 59 58 59 60 60 61 63 64 66 65 65 66 66 66 64 63 64 64 61 61 62 60 60 58 57
50 54 53 54 62 61 54 52 58 63 62 61 58 60 61 57 57 58 58 59 57 57 58 58 59 59 60 60 62 63 63 62 63 63 64 65 65 66 64 63 63 61 61 61 60 60 59 58 57
60 59 54 57 64 63 56 53 54 59 57 58 59 61 62 59 60 60 59 60 59 59 58 58 58 57 58 59 59 62 62 64 62 64 67 66 66 66 64 63 62 60 61 60 60 58 58 56 56
63 57 54 61 68 61 55 53 57 58 59 61 63 61 63 61 61 61 60 61 60 59 61 59 60 59 60 61 63 63 64 65 66 65 65 67 66 67 64 62 61 60 60 59 59 58 55 55 54
60 56 54 56 59 59 57 51 55 61 59 64 60 65 66 61 61 61 61 61 62 60 61 61 62 62 63 64 64 62 61 62 64 65 63 66 66 66 65 63 61 62 61 59 57 57 56 53 53
54 64 63 61 54 45 56 41 53 56 55 58 62 65 66 63 63 63 62 61 62 62 64 64 65 64 64 65 64 63 63 62 65 66 66 66 64 65 66 65 61 61 61 58 58 58 55 54 54
59 66 61 60 52 48 50 44 50 59 54 56 62 66 66 65 63 63 63 64 64 64 64 65 65 65 66 66 65 64 65 65 66 66 63 66 66 66 66 65 62 60 61 58 57 56 55 58 55
68 61 60 56 51 39 50 47 46 53 61 64 67 67 68 68 65 66 66 66 66 67 65 65 65 66 67 66 66 65 63 62 63 62 62 62 62 64 64 63 60 59 58 57 57 57 57 56 53
61 55 39 35 35 34 54 49 52 60 63 68 67 68 69 70 67 66 66 66 66 66 66 66 67 66 67 67 67 67 64 63 62 64 63 59 61 60 62 62 59 57 57 59 58 56 55 54 51
57 53 38 33 32 37 52 44 54 63 67 70 70 71 71 70 70 68 67 67 68 68 68 68 68 68 69 68 67 67 67 67 65 64 61 62 63 63 63 61 60 59 59 57 56 55 52 50 49
57 49 57 46 48 37 44 53 59 63 64 65 67 68 67 67 71 70 69 69 69 69 69 68 69 70 70 69 66 67 68 65 64 64 64 61 61 60 60 59 59 57 57 56 54 51 49 49 47
60 63 47 47 36 33 44 46 46 58 62 64 63 62 65 67 67 70 72 70 71 71 70 70 70 69 70 70 69 69 65 64 61 61 60 61 58 56 56 55 56 56 55 52 51 49 48 47 46
54 54 55 52 45 35 32 40 56 57 63 64 65 66 67 67 68 68 68 72 74 74 72 70 71 70 69 69 68 68 63 62 60 59 59 60 57 57 56 56 55 54 52 50 48 47 46 46 45
63 56 54 40 42 43 38 40 63 60 64 68 67 68 66 67 67 68 69 69 68 74 73 72 71 69 69 68 63 62 61 60 59 60 59 59 58 57 56 55 54 51 49 48 46 46 45 45 44

GFSSGP_sfc_temp_063.txt.gz
Temp
62 63 62 62 50 44 38 45 52 55 57 60 64 61 57 56 57 51 65 66 66 69 71 71 71 72 70 70 73 75 75 75 75 74 74 74 74 74 75 75 75 75 76 76 76 76 75 74 73
65 68 63 53 43 35 41 49 52 58 63 63 64 62 58 56 62 63 62 65 66 68 72 70 71 70 71 70 71 74 75 75 74 74 74 74 75 75 75 74 74 75 75 75 75 75 74 73 72
67 68 57 47 37 37 41 52 55 63 64 63 59 61 59 57 64 65 69 67 66 66 70 71 70 70 72 71 71 73 74 74 74 74 75 75 75 74 74 74 74 75 75 75 75 74 73 72 70
65 61 55 46 41 48 51 59 59 59 64 64 61 54 61 64 65 66 69 68 65 65 68 69 70 71 72 71 72 73 73 73 73 74 74 74 74 74 74 73 74 75 75 75 74 73 72 70 69
60 54 45 39 44 51 56 59 58 56 59 60 60 54 56 62 66 66 66 67 65 65 68 69 69 71 73 72 73 72 72 72 73 73 73 73 74 73 73 73 73 73 73 73 72 72 70 69 69
54 51 42 37 45 55 58 59 59 59 61 61 59 57 56 62 62 65 66 65 67 68 67 68 70 70 72 70 69 69 70 72 72 73 73 73 72 72 72 72 72 71 71 71 71 70 70 69 68
52 47 41 41 47 52 58 61 59 59 59 57 59 57 58 60 62 64 65 64 66 66 66 67 68 68 67 67 68 68 69 70 71 72 72 71 70 70 71 70 70 70 71 71 71 70 69 69 68
55 50 40 45 47 50 60 61 60 59 57 63 62 56 55 58 63 64 65 65 66 66 66 66 66 66 66 65 66 67 67 70 71 71 70 69 69 70 70 70 70 70 70 70 70 69 68 68 67
56 46 41 46 48 53 59 57 60 62 59 61 59 60 59 61 63 63 62 63 63 64 65 66 65 65 64 64 65 67 68 71 70 70 68 67 67 66 65 68 69 70 69 69 68 67 67 67 66
52 44 49 56 57 57 59 59 59 57 57 57 55 59 60 61 62 60 59 60 61 62 63 64 64 63 63 63 63 63 64 66 67 68 67 65 64 63 66 67 68 68 68 68 67 66 66 64 62
52 50 56 63 61 62 55 52 55 55 52 57 55 56 58 57 57 58 57 57 57 61 61 62 63 64 63 63 62 63 64 65 65 65 65 64 64 64 63 64 63 62 65 64 63 61 61 61 59
51 59 59 63 62 57 53 55 54 54 57 60 58 57 57 57 56 57 56 56 57 60 60 61 62 63 63 64 63 64 65 65 65 64 65 65 63 63 61 63 61 62 61 61 61 59 60 60 58
56 59 62 64 63 59 59 55 56 55 57 59 58 58 56 55 53 54 57 57 58 58 59 60 61 61 61 62 61 62 62 63 63 64 64 65 63 62 62 62 60 59 61 59 60 59 60 59 59
59 60 61 63 60 59 57 54 52 57 58 56 57 55 54 53 53 53 56 56 57 58 58 59 60 60 61 61 61 60 61 61 62 63 63 64 64 62 63 61 60 58 60 60 58 59 59 58 59
61 56 57 59 58 57 57 48 50 57 57 55 55 54 54 54 52 56 56 57 57 57 58 58 59 60 60 60 60 59 61 62 62 62 62 62 63 63 62 62 60 59 60 59 58 58 57 57 59
55 52 46 55 58 59 57 48 55 54 54 53 53 53 54 53 53 52 57 58 58 57 57 59 60 59 58 59 59 60 60 61 62 62 62 62 62 63 62 59 58 59 59 58 57 57 56 56 56
46 41 46 52 59 57 51 49 55 54 55 54 53 53 52 51 52 52 54 56 58 58 58 57 58 58 58 58 58 59 60 61 61 62 63 63 63 62 61 60 59 59 57 58 59 57 56 55 54
41 42 41 45 53 53 48 51 52 53 54 54 52 53 51 51 52 52 57 59 58 59 59 58 58 58 58 58 58 59 59 60 62 62 63 63 62 63 60 59 59 59 58 57 57 57 55 55 54
50 47 45 50 58 54 52 51 53 51 51 52 51 51 51 52 53 53 57 58 58 58 58 57 57 57 58 56 58 58 57 59 61 62 63 63 62 63 61 59 59 59 58 58 57 55 55 54 53
50 47 47 52 58 55 52 53 52 51 53 55 52 52 52 52 51 52 51 53 54 57 57 57 56 54 56 58 59 58 62 61 62 62 62 62 62 62 61 60 59 59 58 57 56 55 53 53 52
49 47 48 49 53 52 49 47 50 55 54 55 56 57 56 54 52 52 52 51 55 55 56 57 55 55 56 57 61 57 59 60 60 60 60 60 61 62 62 61 60 59 58 57 55 55 54 53 51
45 55 54 53 46 41 50 37 47 51 52 54 56 56 56 56 55 54 52 51 53 55 58 56 55 55 57 57 55 55 57 58 60 62 59 60 60 61 62 61 60 59 58 56 56 57 56 54 52
51 57 54 52 47 42 43 38 45 48 49 53 55 58 58 58 56 54 53 53 53 54 55 54 55 55 57 57 58 57 56 58 58 57 57 58 58 59 60 60 59 59 58 58 57 55 54 55 54
61 54 52 48 44 36 44 42 40 45 52 55 60 58 59 58 57 57 57 56 54 55 54 54 55 56 57 57 57 57 57 58 58 55 56 58 58 57 58 59 59 59 59 58 58 58 56 56 56
54 47 35 33 33 35 47 41 48 52 55 60 60 60 60 60 58 57 55 55 55 54 55 55 55 56 57 57 57 57 57 57 57 59 58 59 58 57 58 58 59 59 59 59 58 57 57 55 54
49 48 35 31 30 35 44 38 47 56 60 61 63 64 63 61 60 58 58 57 57 56 56 56 56 56 58 57 57 59 59 59 59 59 60 59 59 61 59 58 59 60 59 57 57 56 55 54 54
49 43 53 41 37 33 39 46 54 58 58 59 59 59 59 61 60 60 60 59 59 59 58 57 58 58 59 58 58 58 59 59 59 60 57 58 57 59 57 58 58 59 58 58 57 57 56 54 52
55 56 42 39 32 31 36 38 43 52 57 56 57 57 59 62 61 62 61 61 61 61 61 60 59 59 60 60 59 59 59 60 60 60 60 60 59 58 58 57 58 59 58 57 58 57 53 51 49
48 46 47 47 39 35 33 36 49 53 57 56 57 59 58 60 63 63 63 63 63 63 62 61 61 60 60 61 60 59 59 59 60 60 61 60 59 58 57 57 58 58 57 55 55 52 50 49 47
55 51 51 41 38 37 34 42 54 55 57 57 59 61 60 61 64 66 64 64 63 63 63 62 62 61 61 61 61 60 61 61 61 61 62 62 59 58 57 56 56 55 54 53 51 49 48 47 46

GFSSGP_sfc_temp_066.txt.gz
Temp
61 61 61 60 49 43 38 44 48 52 54 57 61 59 57 56 57 51 62 66 67 70 71 71 72 73 73 74 74 74 75 75 75 75 74 74 75 75 75 75 75 76 76 76 76 75 75 74 73
62 65 61 52 42 36 41 46 49 56 60 61 62 60 57 56 61 62 61 66 68 71 69 70 72 73 74 73 74 74 75 75 74 74 74 75 75 75 75 75 75 75 76 77 76 75 74 73 71
65 66 56 45 36 38 40 49 54 59 63 60 57 59 57 57 62 63 66 66 67 69 69 69 70 71 72 72 72 73 73 74 74 74 74 75 75 75 75 74 74 75 75 75 76 75 73 71 70
63 59 53 45 38 46 49 55 56 57 61 61 58 54 59 63 63 64 66 66 65 67 68 69 69 71 72 72 73 72 72 72 73 73 74 75 75 75 74 74 74 75 75 75 74 73 71 69 69
58 52 43 38 41 48 52 56 56 54 57 58 58 54 56 62 63 64 65 66 63 64 66 68 68 70 72 73 72 72 71 72 73 73 74 74 74 74 74 73 73 73 74 74 72 71 70 69 68
53 50 40 37 43 52 55 56 57 58 58 59 56 54 56 62 61 62 66 65 65 63 65 67 68 70 71 71 71 72 71 72 72 72 73 73 73 73 73 72 72 72 71 72 71 70 69 68 68
52 46 39 39 45 50 55 56 57 58 57 56 57 54 56 59 61 64 65 66 66 66 65 66 67 69 70 69 70 70 70 71 71 72 72 72 71 71 71 71 71 71 70 70 70 69 68 68 67
53 49 38 42 44 47 57 59 59 57 57 61 59 54 53 56 62 64 65 65 65 64 66 66 66 67 64 65 66 66 67 69 70 70 70 69 69 70 70 70 70 70 70 70 69 68 68 68 67
53 45 39 44 46 52 58 55 59 60 57 59 59 57 58 61 64 63 62 62 64 64 65 64 64 65 64 64 64 65 67 70 70 69 68 67 65 65 65 69 69 69 69 69 69 68 67 66 66
51 43 47 54 53 56 59 58 58 55 54 55 55 58 61 59 62 59 60 60 61 62 63 64 64 63 64 64 64 64 65 66 69 68 66 65 62 62 66 67 68 68 68 67 68 67 66 65 62
49 48 53 57 59 59 54 50 55 53 52 56 55 55 59 56 59 58 58 58 58 61 61 63 63 63 62 61 62 64 63 63 64 65 65 64 63 63 63 64 65 65 65 64 65 63 61 58 57
48 56 57 58 59 54 52 53 53 53 57 57 57 57 58 55 55 56 57 57 58 59 60 62 63 62 61 61 60 62 62 63 63 63 64 64 63 59 59 60 59 58 58 59 59 57 57 57 56
53 56 59 62 60 57 57 55 54 55 57 57 57 56 55 54 54 57 57 58 58 59 60 60 62 62 62 61 60 60 62 64 63 63 64 65 62 59 59 59 59 59 57 59 57 58 59 58 56
57 58 58 58 60 57 55 52 52 57 56 55 55 54 54 53 52 55 57 57 58 59 59 60 61 62 62 62 62 62 63 64 64 64 64 64 63 60 60 60 60 59 58 58 59 59 58 56 56
57 52 54 57 56 56 56 50 49 56 55 54 54 54 54 53 53 52 57 57 58 58 59 59 59 61 61 61 61 61 62 63 63 63 62 62 62 60 60 59 59 59 59 59 58 57 57 55 57
50 49 44 54 53 55 56 46 54 54 53 52 53 53 53 52 53 52 54 59 58 58 58 59 60 59 59 59 59 60 61 62 60 61 61 63 63 61 60 57 57 59 59 59 58 56 55 55 55
45 39 43 49 54 52 50 48 52 50 52 52 52 56 52 51 51 51 53 58 57 58 58 58 59 59 58 58 59 59 60 61 60 60 61 62 62 61 61 60 58 60 58 58 58 56 56 55 55
41 41 38 42 49 50 46 49 52 50 51 51 51 54 52 51 51 52 54 55 59 58 58 58 58 58 58 58 58 58 58 59 60 61 62 62 62 62 60 59 59 58 57 57 56 56 55 56 56
48 45 42 46 54 50 50 48 54 49 49 49 50 51 53 51 52 52 58 57 55 58 57 58 57 57 57 57 56 57 56 59 59 61 63 62 62 62 61 59 59 59 58 57 57 56 55 54 54
48 45 43 49 55 52 50 50 51 50 50 52 51 51 52 51 50 51 53 56 56 57 57 57 57 57 59 60 60 58 58 59 59 60 61 62 62 62 61 60 59 58 57 57 56 56 53 54 53
46 45 43 47 48 49 46 45 50 53 50 53 54 54 54 53 51 52 52 55 57 55 57 57 57 57 57 59 60 59 59 58 58 59 59 61 61 61 61 60 59 58 58 57 55 55 55 53 51
44 50 51 48 44 38 46 36 45 50 51 51 53 52 54 54 53 52 52 52 55 56 56 57 56 54 55 55 54 55 58 59 61 61 60 61 61 61 61 61 59 58 57 57 57 56 55 53 51
50 54 50 48 43 40 41 36 43 46 49 52 52 54 55 55 54 51 51 52 55 56 55 58 57 53 56 56 56 55 54 61 59 59 59 59 59 60 60 59 59 58 58 58 56 55 54 54 53
57 51 49 45 42 33 42 40 38 44 50 54 56 56 57 55 56 54 54 53 51 51 54 57 56 54 55 55 54 54 55 55 55 53 53 54 55 56 57 58 57 57 56 56 57 56 55 55 55
50 46 34 31 32 32 44 38 47 52 55 57 58 57 57 58 56 54 51 51 51 50 52 55 54 53 54 55 55 55 55 55 56 57 54 53 54 54 54 56 56 56 57 57 57 55 54 54 54
48 46 33 30 30 34 42 37 46 54 57 58 58 59 57 57 57 56 54 54 53 52 52 52 53 53 54 55 55 56 56 56 56 55 57 54 54 55 56 55 56 56 57 56 55 55 56 56 55
47 40 50 39 35 32 38 44 52 55 56 56 57 57 55 56 56 57 57 56 55 54 54 54 54 54 55 55 56 56 56 55 55 54 54 54 54 55 55 55 55 56 56 56 57 57 56 56 55
52 54 41 37 31 30 34 36 41 48 55 58 57 56 56 56 56 57 58 57 58 57 57 56 56 55 56 56 56 56 55 55 55 54 54 56 55 55 55 55 55 55 55 56 57 57 57 57 55
47 46 44 44 37 32 30 36 48 52 55 55 56 56 56 55 57 58 59 60 60 59 58 57 56 56 56 57 57 56 55 55 55 55 55 56 58 59 58 59 58 58 58 56 56 57 55 53 52
51 47 47 36 36 35 33 41 55 54 55 55 56 58 56 57 58 59 60 59 59 59 59 58 58 57 57 57 58 56 56 57 56 57 58 59 59 61 60 60 59 57 57 57 56 54 51 51 49

GFSSGP_sfc_temp_069.txt.gz
Temp
70 71 74 74 65 61 56 59 60 62 63 69 67 66 66 66 65 61 70 72 73 75 77 77 73 74 74 74 75 75 75 75 75 75 75 75 75 75 75 75 76 76 77 77 76 76 75 74 73
72 72 73 66 61 56 58 59 60 66 69 67 67 66 65 66 67 68 69 72 73 75 77 77 73 73 74 74 74 75 75 75 75 75 75 75 75 75 75 75 75 75 76 76 76 76 74 73 72
74 72 71 61 54 56 57 60 65 67 69 68 66 66 66 66 67 69 71 71 71 72 76 74 72 72 74 74 74 74 74 74 74 74 75 75 75 75 75 74 74 75 76 76 76 74 72 71 70
73 72 66 61 55 59 61 66 65 67 68 68 66 64 67 70 68 69 72 72 70 68 69 72 70 71 73 74 74 74 73 73 73 74 74 75 75 75 74 74 74 75 76 76 74 73 71 69 69
70 67 59 56 55 59 62 65 66 66 65 66 66 65 64 67 69 70 70 72 71 67 70 71 69 71 73 74 73 73 73 72 73 73 74 74 74 74 73 73 74 74 74 74 72 71 70 69 68
67 65 57 54 55 60 64 67 66 65 66 65 64 63 65 67 68 68 69 69 70 65 67 71 70 70 71 72 72 72 72 72 72 73 73 74 73 73 73 73 73 73 72 72 71 70 69 69 68
65 61 56 54 55 58 65 67 66 66 64 65 66 61 65 65 67 69 69 68 68 67 66 68 72 72 70 70 69 70 71 71 72 72 72 72 72 71 72 72 72 72 71 70 70 69 69 68 68
65 64 53 55 56 59 67 66 67 66 66 67 68 62 62 63 67 69 68 66 66 67 69 67 69 68 71 71 69 69 69 70 70 71 71 70 70 71 70 70 70 71 70 70 69 68 68 67 67
65 60 55 56 56 63 67 66 65 67 65 64 66 63 62 64 67 65 65 64 65 65 67 67 67 65 65 66 68 66 67 67 70 70 69 69 73 72 72 70 69 70 69 69 69 68 67 66 66
65 57 58 63 63 65 68 64 65 63 62 63 62 62 63 64 65 62 62 63 63 64 65 65 65 63 63 64 63 63 63 63 66 68 71 72 69 71 71 69 68 69 69 68 68 67 66 69 72
60 60 62 64 67 67 66 63 65 62 62 66 64 61 62 62 63 63 61 61 63 62 63 64 64 64 63 63 63 63 63 63 64 67 67 69 70 70 70 71 71 72 70 73 71 70 73 71 71
59 63 65 66 67 65 63 64 61 62 66 65 64 64 61 61 62 62 62 61 62 63 62 63 64 63 63 63 63 64 65 63 63 67 69 69 68 67 68 70 70 69 72 71 70 71 68 69 69
59 64 65 67 66 65 63 63 63 60 65 63 63 63 61 61 59 60 62 61 61 62 61 62 63 62 61 61 63 64 65 66 64 65 69 69 67 65 69 68 68 70 71 70 70 69 69 68 68
65 64 65 65 67 66 63 62 60 65 65 61 60 61 62 60 58 59 60 61 60 62 61 61 61 62 61 60 62 62 63 65 64 64 67 67 67 67 69 68 69 69 71 70 70 69 68 69 69
64 60 63 65 65 63 63 60 58 66 62 61 61 61 60 60 59 60 62 61 62 61 61 61 61 62 61 60 62 62 63 63 63 63 63 65 67 68 69 69 68 68 69 68 68 67 67 67 68
59 57 54 62 62 58 62 56 68 64 62 61 60 61 60 59 60 61 62 61 61 61 62 64 61 61 62 62 63 62 63 63 64 63 62 64 67 68 68 68 68 68 68 69 68 66 66 66 67
52 50 51 56 63 60 61 58 63 59 60 61 61 61 60 59 60 60 61 62 62 61 62 61 60 59 60 61 62 62 62 63 62 61 61 65 67 67 68 68 67 67 66 67 67 66 66 65 65
49 48 50 54 60 60 56 59 65 63 59 61 63 62 60 59 60 60 61 61 62 61 60 60 60 59 59 59 60 60 62 62 62 61 61 63 67 67 66 66 65 66 65 66 66 65 65 66 66
55 51 52 55 59 58 57 58 64 64 58 59 60 61 61 58 62 60 61 62 61 60 60 60 58 58 59 59 60 58 57 59 60 60 61 62 65 66 64 64 65 64 64 65 65 65 62 64 64
53 51 52 56 58 57 59 58 65 61 61 63 63 61 62 60 58 58 61 60 59 58 60 60 59 58 60 61 62 62 61 60 60 61 61 62 64 66 65 63 65 65 63 63 61 62 62 62 62
52 51 52 52 55 58 55 55 60 65 60 61 62 64 64 62 56 55 58 59 58 59 58 60 60 59 60 60 59 58 57 57 58 58 58 60 63 65 64 63 64 63 63 62 61 61 62 62 60
47 56 55 52 51 46 55 45 54 64 62 60 64 62 63 63 62 59 57 58 58 59 60 62 62 62 63 62 58 58 59 56 58 59 60 60 61 62 64 64 63 61 63 62 61 63 63 64 61
53 56 54 54 50 49 51 47 52 56 60 65 68 65 64 64 63 60 58 59 60 60 59 62 62 62 63 63 63 61 60 61 59 58 59 60 60 61 62 64 62 63 61 62 64 62 62 62 63
60 56 53 50 48 40 48 49 50 56 61 65 69 69 67 64 64 63 62 61 59 60 58 61 61 61 63 62 63 63 63 63 60 60 62 60 60 62 62 63 65 65 66 65 64 64 64 63 63
56 51 41 38 38 38 50 47 53 60 64 65 68 70 70 66 63 62 60 58 58 57 56 60 60 60 60 61 61 62 62 63 63 62 64 60 60 62 63 65 65 65 65 65 66 64 64 63 62
51 51 42 34 36 42 47 43 53 62 65 65 67 68 67 66 64 63 62 60 58 56 56 59 58 58 59 61 62 62 63 64 65 65 65 64 66 66 66 65 66 66 66 66 65 65 64 64 62
49 45 55 44 43 40 47 51 59 62 64 65 67 67 69 68 65 65 64 62 60 59 58 58 58 57 58 60 61 62 62 62 63 64 63 64 64 65 65 65 65 65 65 66 66 64 64 63 63
56 57 44 43 36 35 43 44 51 57 63 67 65 66 68 68 65 65 65 62 63 62 60 60 59 58 60 61 62 62 62 62 63 63 63 64 64 64 65 65 65 66 66 65 65 64 65 63 62
51 50 49 50 45 39 37 45 56 60 63 63 64 66 65 66 67 65 66 66 65 64 62 60 60 60 60 60 61 61 61 61 61 62 62 62 63 63 62 64 65 65 65 65 64 64 64 61 60
57 52 52 43 42 42 42 45 62 60 61 63 65 64 66 67 68 66 66 66 65 63 63 62 62 62 62 61 60 60 60 60 60 60 61 61 61 63 63 62 63 66 65 64 61 57 56 56 55

GFSSGP_sfc_temp_075.txt.gz
Temp
78 89 95 90 75 77 73 75 81 78 79 85 85 81 79 81 76 69 88 86 85 86 85 82 74 75 76 75 75 75 75 76 76 75 75 75 75 76 76 76 76 76 77 76 76 76 76 75 74
94 93 91 86 72 71 76 80 76 80 83 84 83 83 82 78 87 87 87 86 85 86 84 86 73 74 75 75 74 75 76 76 75 75 75 75 76 75 76 75 75 75 76 76 76 76 75 73 72
88 93 83 80 76 71 73 79 80 82 84 83 81 86 82 79 85 84 84 83 83 84 84 82 73 70 70 67 67 74 75 75 75 75 76 76 76 75 75 74 74 75 76 76 76 75 73 72 71
90 88 85 73 72 78 76 81 82 81 85 85 84 79 85 85 84 86 85 85 83 84 84 74 68 69 69 67 65 71 74 74 74 74 75 75 76 75 75 74 74 75 76 76 74 73 71 70 70
91 86 75 73 75 79 81 83 83 81 81 82 83 79 82 84 86 85 84 84 83 83 83 78 69 70 70 70 70 68 73 73 74 74 74 75 75 74 74 73 74 74 75 74 73 71 70 70 70
81 84 71 70 76 81 81 84 83 81 83 82 80 81 82 86 83 84 82 81 81 80 80 76 71 69 69 72 68 67 71 72 73 73 74 74 74 73 73 73 73 73 72 72 71 70 70 69 69
78 78 72 74 75 77 79 85 80 80 80 82 87 77 83 83 83 83 83 80 76 75 76 79 78 74 70 70 67 67 69 72 72 72 73 72 72 72 73 73 72 71 71 70 70 69 69 69 68
83 80 72 76 73 74 83 81 85 81 80 87 88 77 78 83 83 83 82 77 77 74 71 73 77 78 78 76 69 67 68 70 72 72 71 70 71 71 72 71 71 70 70 70 69 68 68 68 67
87 72 70 74 76 77 85 79 85 86 83 85 85 83 83 81 81 81 78 73 73 73 70 68 76 77 77 77 75 71 71 69 70 71 70 69 71 73 75 72 69 69 69 69 68 68 67 66 67
78 72 73 83 83 80 84 80 81 81 81 82 84 87 81 80 81 79 77 70 73 73 73 74 74 73 73 68 68 68 72 73 68 70 71 67 69 74 75 69 68 68 68 67 67 67 66 70 75
79 71 80 83 83 84 83 81 85 80 77 83 80 84 83 79 80 81 80 74 74 74 75 76 75 74 71 71 71 69 67 66 67 66 66 66 67 74 70 69 72 71 70 73 72 70 76 77 77
73 79 81 83 84 81 79 84 81 81 81 87 84 85 83 80 81 81 80 79 73 74 72 75 74 71 70 69 64 66 67 64 64 63 64 65 64 72 72 70 75 74 76 73 74 75 79 78 78
76 78 81 83 83 82 82 79 79 79 86 89 86 82 81 81 83 83 82 81 77 72 68 72 72 70 70 67 62 62 62 63 64 64 64 64 65 70 70 73 76 77 78 76 76 79 78 78 78
80 79 79 81 81 82 77 78 80 81 87 85 83 81 83 81 82 82 80 80 74 72 68 67 70 67 66 66 65 62 61 61 62 63 63 64 66 69 73 73 76 78 79 79 79 78 77 77 78
78 72 77 78 80 78 81 73 76 84 87 83 84 82 83 82 83 81 81 79 79 70 67 65 65 68 65 66 64 62 61 61 62 62 63 64 69 72 73 76 78 78 79 79 79 78 78 78 79
71 72 65 77 80 80 78 65 82 85 82 80 82 81 81 81 81 82 81 80 80 75 68 66 66 63 64 63 62 61 61 60 61 63 63 66 71 72 73 75 76 79 77 79 78 77 77 77 77
68 62 66 70 80 78 74 70 82 84 81 80 82 82 81 81 80 82 82 81 80 77 71 67 62 61 61 62 62 62 62 62 62 63 63 66 70 72 74 75 76 74 75 77 77 76 76 74 75
61 64 67 67 77 76 72 71 79 84 82 80 82 82 81 80 80 81 81 81 80 78 73 67 63 63 61 61 62 62 62 62 63 62 65 70 74 73 74 75 71 72 74 75 76 74 76 75 75
69 67 67 73 78 72 70 72 78 82 83 80 81 82 82 81 84 83 79 79 77 76 71 70 63 62 62 61 60 60 59 61 63 62 64 67 73 74 73 76 74 75 75 75 74 73 72 72 74
66 64 66 71 75 69 70 71 77 80 80 83 83 83 83 83 83 81 78 77 74 74 70 67 64 65 63 62 63 63 63 62 64 63 63 65 67 72 72 72 72 73 74 72 72 71 70 71 71
65 62 64 65 72 72 68 66 71 78 81 82 84 85 86 84 81 80 77 76 74 73 70 71 65 62 65 66 66 64 63 62 61 61 62 62 65 69 74 73 71 70 70 69 69 70 69 65 68
58 69 67 65 63 57 71 55 69 76 78 80 81 82 83 85 85 82 79 76 75 74 74 70 66 64 64 65 62 60 60 58 61 61 61 60 62 66 72 71 69 68 70 66 70 71 70 66 61
60 68 67 66 61 61 62 58 64 74 73 77 80 83 85 85 85 82 80 79 78 76 73 74 67 67 65 65 64 61 61 62 63 60 60 60 60 63 68 68 64 63 66 64 66 67 68 67 63
67 65 64 65 61 51 59 59 61 69 72 76 80 83 85 85 85 84 83 81 79 78 74 73 68 67 68 66 68 65 67 64 62 60 59 60 59 60 63 65 64 62 63 62 65 69 67 66 66
65 60 48 45 47 46 63 59 61 72 76 78 78 82 85 86 84 83 82 80 79 76 74 72 72 71 67 66 67 67 69 68 64 65 61 60 60 59 60 63 64 63 63 65 65 66 67 63 61
59 59 51 40 42 50 64 54 63 76 78 81 81 82 85 84 84 84 83 81 79 77 75 72 73 73 73 67 67 67 68 69 70 67 69 68 64 63 63 62 63 63 63 67 66 65 67 63 66
54 53 63 53 54 48 56 63 70 74 75 78 79 81 82 85 86 84 85 82 80 78 75 73 75 76 75 72 70 69 69 69 68 69 69 69 69 70 67 65 63 63 64 66 68 63 64 65 65
59 62 50 54 39 38 51 56 58 67 69 74 77 79 82 85 85 85 85 83 81 79 77 75 75 76 77 75 73 73 72 71 70 70 69 69 69 70 67 66 66 66 66 67 69 69 68 63 63
56 52 54 57 53 43 42 52 70 70 72 71 76 78 81 82 83 83 84 85 83 81 79 76 74 76 76 75 74 73 73 73 73 71 71 72 71 70 70 69 69 70 69 70 69 69 70 68 68
61 57 56 47 46 52 51 52 72 73 72 72 73 76 81 82 84 85 84 85 83 80 79 77 75 76 77 76 74 73 73 73 72 72 73 72 72 72 72 72 71 71 71 71 70 69 70 69 69

GFSSGP_sfc_temp_078.txt.gz
Temp
77 83 87 85 69 71 68 74 82 77 78 84 85 80 77 80 75 66 85 85 86 84 77 78 74 75 75 75 75 75 75 75 75 75 75 75 75 75 75 75 76 76 77 77 77 76 76 75 74
87 91 88 80 65 62 70 80 76 80 83 85 84 82 80 76 84 85 83 84 85 86 83 79 74 75 75 74 72 74 75 75 75 75 75 75 75 75 75 75 75 75 76 76 76 75 75 74 73
81 90 78 72 68 64 69 79 80 83 85 83 81 87 83 78 84 84 84 84 84 84 83 77 72 70 72 69 68 68 69 75 75 75 75 75 75 75 75 74 74 75 76 76 76 75 73 72 72
85 84 80 67 65 74 78 80 83 81 85 85 83 78 85 88 86 86 87 86 84 81 83 70 69 70 71 69 69 68 67 66 73 74 75 75 75 75 74 74 74 75 75 75 74 73 72 71 71
85 81 69 67 70 77 83 83 83 80 82 83 84 77 79 83 88 87 84 85 83 80 81 73 69 69 70 70 70 70 68 65 71 74 75 75 75 74 74 73 74 74 74 74 73 71 71 71 71
76 78 64 63 71 81 83 84 83 81 83 83 81 79 80 86 85 83 82 81 81 79 79 77 70 69 70 70 71 69 67 66 68 74 74 74 74 73 73 73 73 73 72 71 71 70 70 70 69
73 71 66 69 71 75 82 86 80 79 80 80 85 76 82 82 84 83 83 80 77 76 75 74 73 73 69 69 68 67 66 65 67 73 73 72 72 72 72 72 72 71 71 70 70 69 69 69 69
79 75 67 70 70 72 84 83 84 81 79 87 88 75 76 79 84 82 81 76 77 72 72 73 74 73 72 71 68 66 66 65 67 72 71 70 71 71 71 70 70 70 70 70 69 68 68 68 68
84 68 64 68 72 77 85 79 85 88 82 84 86 84 85 83 83 80 77 72 73 72 72 71 72 73 72 72 69 68 68 65 66 71 70 68 71 71 70 70 69 69 69 68 68 67 67 67 67
75 67 68 78 81 79 83 83 81 80 80 80 83 88 83 82 81 78 76 72 72 72 70 70 70 72 71 70 69 68 67 66 66 67 68 69 68 69 70 68 68 68 68 67 67 66 66 68 66
75 68 75 79 83 84 80 80 85 80 76 81 80 82 81 81 80 80 80 75 74 74 71 72 71 71 70 68 68 67 67 66 66 66 65 65 65 66 66 66 67 66 66 66 66 65 68 67 67
70 77 78 80 83 82 78 82 80 81 79 85 86 85 84 83 80 80 80 79 74 72 72 73 70 68 68 66 66 68 67 66 64 64 64 63 63 64 65 65 66 66 67 65 64 65 67 67 68
73 76 80 81 82 81 82 78 77 77 84 87 88 86 81 82 82 83 83 81 74 72 70 70 69 68 67 65 63 65 64 65 64 63 64 64 64 64 66 65 68 68 67 67 66 67 69 68 68
77 78 78 80 80 80 77 77 79 79 85 84 85 83 82 82 82 83 80 79 74 72 69 69 68 68 66 64 62 60 62 63 63 63 64 64 64 65 67 66 68 68 69 68 68 68 67 67 68
77 70 74 77 78 77 80 72 73 81 84 83 84 83 82 83 83 81 80 78 75 71 70 68 67 67 66 65 63 62 61 61 62 62 63 63 63 65 67 67 69 69 70 69 67 68 67 66 69
70 69 61 73 76 78 76 63 77 84 84 81 82 83 81 82 82 82 81 80 77 72 68 68 66 66 64 65 63 62 61 61 61 62 62 63 64 66 67 68 69 70 70 70 68 66 65 65 65
64 56 61 66 77 77 75 68 78 84 82 79 81 81 81 80 81 81 81 79 79 74 69 67 64 62 63 64 61 61 61 61 61 61 61 61 64 67 67 65 68 67 71 68 69 66 65 64 64
55 57 62 63 73 76 71 70 76 81 81 78 80 81 80 79 80 81 81 79 79 74 68 68 63 61 61 61 61 60 60 61 62 62 62 63 65 66 65 65 65 64 64 66 65 66 66 64 65
63 61 61 69 76 73 70 70 74 79 80 78 79 80 80 79 83 82 79 77 76 72 68 66 61 60 61 60 59 59 58 60 61 62 62 63 66 67 66 66 65 65 65 65 65 65 64 63 64
62 58 59 67 74 72 70 69 74 78 78 80 81 80 80 81 81 80 77 75 73 71 69 65 64 62 61 62 62 62 61 61 63 63 63 65 66 68 67 66 66 65 65 64 65 64 62 62 62
61 57 59 61 69 72 69 64 68 75 79 81 82 83 84 81 79 78 76 74 71 70 68 67 66 63 62 63 63 62 61 61 60 60 60 61 63 68 68 67 66 66 65 65 64 64 63 59 61
50 64 64 63 60 53 68 52 65 72 74 77 79 79 81 82 82 80 76 74 71 70 69 68 65 65 64 63 62 60 59 57 60 61 62 61 62 63 67 66 65 64 64 63 64 65 63 61 58
51 61 59 58 59 58 59 55 62 71 69 74 78 80 80 82 82 80 77 76 75 72 69 68 66 65 64 63 63 61 60 61 63 61 61 60 60 61 63 66 64 64 63 63 63 63 62 61 59
58 58 56 57 57 47 56 55 57 64 69 75 80 81 82 82 82 82 80 78 76 73 70 68 66 65 64 64 63 63 62 61 61 60 58 58 59 60 61 64 63 62 62 62 63 64 62 59 61
56 51 36 37 42 42 59 55 59 70 75 78 77 79 82 82 81 81 79 77 76 72 69 69 66 65 65 63 63 62 62 63 60 61 61 60 59 59 61 62 62 62 62 62 61 60 60 60 59
51 50 36 33 38 44 59 51 61 74 78 80 81 80 81 81 80 80 80 77 76 73 69 69 67 66 66 63 63 63 64 63 63 62 63 62 62 61 63 62 62 62 62 62 61 61 60 60 60
46 45 52 41 43 37 52 62 70 75 75 77 78 79 78 80 80 81 81 78 77 74 70 68 69 69 68 65 65 65 66 65 63 63 63 63 63 65 63 63 61 62 62 62 62 61 61 61 61
52 58 44 42 32 32 47 52 57 65 68 73 75 76 78 81 81 80 81 78 78 76 73 69 69 70 71 66 65 66 66 66 66 66 64 64 63 64 64 63 62 61 62 62 62 62 63 61 62
49 48 46 46 43 37 38 47 66 65 70 69 72 74 75 77 79 79 80 81 79 78 75 71 70 72 71 69 67 66 65 66 66 65 66 65 65 64 64 64 63 62 61 62 62 62 63 62 61
56 52 51 38 38 46 43 46 68 68 70 70 70 75 75 77 78 81 81 81 79 78 76 73 72 71 72 71 69 67 67 67 66 66 66 66 65 66 65 65 63 63 63 62 61 62 64 62 62

GFSSGP_sfc_temp_081.txt.gz
Temp
66 67 67 67 53 49 47 56 65 66 67 69 77 74 68 69 67 56 75 79 76 73 73 74 74 74 75 75 75 75 75 75 75 75 75 75 75 75 75 75 76 77 77 77 77 77 76 75 74
70 76 69 62 48 41 50 64 63 70 74 77 78 74 70 68 76 74 73 78 79 75 74 73 73 74 74 74 74 75 75 75 75 75 75 75 75 75 75 75 75 76 76 77 77 76 76 74 73
72 77 60 54 47 47 49 65 68 73 77 76 71 74 74 69 78 74 76 78 78 76 75 74 72 73 71 71 71 73 74 73 74 75 75 75 75 75 75 74 74 75 76 77 76 76 74 73 72
70 65 63 50 49 58 63 68 72 72 74 78 75 67 76 78 78 77 79 79 76 75 73 69 71 70 71 71 71 70 69 67 66 69 75 75 75 75 74 74 74 75 75 76 75 74 73 72 71
66 60 50 46 53 64 71 73 72 69 72 74 75 68 69 76 79 78 77 79 74 73 69 69 69 70 72 71 72 70 70 70 68 66 69 74 75 74 74 73 74 74 74 74 73 73 72 71 70
58 59 45 43 55 67 71 73 74 74 75 75 73 69 68 77 75 74 75 73 73 71 69 69 70 70 70 71 71 69 70 69 70 67 65 73 74 73 73 73 73 73 73 72 71 71 71 70 70
54 51 46 51 58 64 71 73 73 73 72 70 74 67 68 72 74 75 73 71 71 69 69 67 68 69 69 69 69 68 68 69 66 66 67 70 72 72 72 72 72 71 71 71 70 70 70 70 69
62 55 50 55 57 60 72 73 76 74 72 80 76 67 62 71 75 72 70 69 68 68 68 68 68 67 65 65 67 67 67 67 66 66 66 70 70 71 71 71 70 70 70 70 70 69 69 69 68
63 51 51 53 59 64 73 68 76 78 74 76 76 76 75 75 74 69 65 64 65 67 66 66 69 69 66 65 66 67 67 66 67 67 66 68 70 69 69 69 69 69 69 68 68 68 68 68 68
60 48 56 65 68 66 73 72 73 70 71 70 73 74 75 74 72 68 65 62 64 64 65 65 66 66 67 68 65 64 65 64 63 63 67 67 67 67 68 68 68 68 67 67 67 67 67 67 64
60 56 64 68 72 73 69 70 69 67 65 71 70 69 71 71 71 70 68 65 65 65 65 65 65 65 65 65 64 64 64 63 63 64 65 66 66 66 65 66 66 65 65 65 65 66 65 63 63
58 66 68 70 74 72 67 70 70 66 70 76 76 73 71 70 70 70 69 66 64 65 65 66 66 65 65 64 63 63 64 64 64 65 64 64 64 64 64 64 64 64 60 60 61 62 63 63 65
63 66 71 73 72 71 74 69 68 70 74 76 78 76 73 72 70 72 71 67 64 64 64 64 66 65 63 62 60 62 63 65 65 64 64 64 64 64 64 63 64 64 64 63 62 61 64 64 65
68 68 68 70 70 73 70 68 64 72 75 75 76 72 70 72 72 69 67 66 65 64 63 63 65 64 61 61 60 62 63 64 64 64 63 64 64 64 64 64 64 64 64 64 64 64 63 63 64
69 61 65 65 67 65 70 61 65 72 74 72 72 71 71 72 72 70 69 65 65 63 63 62 63 64 61 59 60 61 62 63 63 63 64 64 64 64 65 65 63 64 63 64 65 64 63 62 65
59 58 51 64 67 69 62 56 69 72 72 71 70 69 71 72 73 70 70 66 64 63 62 63 65 63 62 59 60 61 62 62 62 62 63 64 63 65 65 66 65 65 63 65 64 65 62 61 62
51 44 51 57 67 67 63 60 70 73 72 70 68 69 69 69 69 70 69 65 64 63 62 61 62 63 62 61 59 60 61 61 61 62 62 63 63 64 65 66 65 65 65 64 65 64 64 62 60
44 47 48 52 62 67 61 62 67 70 69 69 68 67 68 69 69 71 70 68 64 62 62 61 61 62 62 61 60 59 60 60 61 61 62 63 65 65 65 64 62 64 62 63 64 64 61 62 63
55 53 51 57 65 64 63 60 64 68 66 65 65 66 66 70 71 73 71 69 64 62 61 60 60 60 61 60 58 58 58 59 60 61 61 62 65 65 66 63 62 62 62 64 64 61 62 60 61
53 50 50 58 64 64 61 60 65 65 66 66 67 66 66 70 69 71 68 66 64 61 60 59 60 60 60 60 60 60 60 61 62 61 61 62 62 65 64 63 62 62 63 62 61 62 59 60 60
51 50 51 51 61 64 60 55 60 66 67 70 69 71 71 70 69 69 68 65 62 60 59 59 61 60 61 62 62 61 61 60 59 59 60 60 62 64 66 64 64 63 64 63 62 62 61 58 58
44 55 53 50 45 39 53 40 55 61 65 69 72 68 67 69 72 70 68 65 62 61 60 60 60 60 61 62 61 59 58 57 59 60 61 61 61 63 66 63 64 62 62 63 63 64 64 58 56
47 53 50 46 42 44 46 45 53 62 59 65 70 71 68 68 71 69 67 67 65 63 61 60 60 62 62 62 62 60 59 60 61 60 60 60 59 61 61 62 61 61 60 60 61 62 61 59 58
52 46 47 44 41 34 41 44 47 56 62 65 69 71 71 69 71 71 70 67 66 63 62 60 60 62 62 62 62 61 60 60 59 59 59 59 58 56 58 62 63 63 60 59 60 60 60 60 59
45 39 33 31 31 31 49 45 51 62 68 69 69 68 71 70 69 70 67 66 65 62 62 60 60 60 62 62 62 62 61 61 60 60 60 60 59 59 60 59 61 62 62 60 61 60 60 59 59
43 39 33 28 29 35 52 43 51 66 71 71 70 70 72 68 70 70 69 68 66 64 62 63 60 60 61 62 62 63 63 62 62 62 62 61 61 61 63 60 61 62 62 61 60 60 60 59 58
44 38 45 36 37 33 40 52 64 67 69 68 68 70 67 66 69 70 71 69 67 64 63 63 61 62 61 61 62 61 60 60 61 63 63 62 62 62 62 62 58 61 61 61 60 60 58 58 59
49 52 37 35 28 28 41 43 47 58 62 66 65 64 65 67 69 69 71 70 69 66 65 64 62 62 62 60 61 63 62 62 62 62 61 62 62 61 60 61 61 61 61 61 61 61 60 59 59
45 42 38 39 38 32 31 38 53 49 60 62 63 65 66 65 67 71 70 72 71 67 65 64 64 63 63 61 62 62 63 64 64 63 62 63 63 62 61 60 60 60 59 60 59 60 61 60 61
52 44 43 34 34 39 37 37 53 52 58 63 64 66 67 67 67 70 70 69 69 68 66 65 65 65 65 63 62 62 62 64 64 63 63 63 63 63 61 62 61 60 60 59 59 58 61 60 60

GFSSGP_sfc_temp_084.txt.gz
Temp
64 64 65 65 52 46 42 51 60 62 62 67 73 71 67 67 66 56 72 74 73 71 72 73 73 74 74 75 75 74 75 75 75 75 75 75 75 75 75 75 76 76 77 77 77 76 76 75 74
66 71 65 57 46 38 44 55 59 65 71 72 73 71 67 64 71 70 71 74 74 72 72 73 73 73 74 74 74 74 75 75 75 75 75 75 75 75 75 75 75 76 77 77 77 77 76 74 73
70 73 58 51 42 40 46 58 64 69 73 73 69 71 70 67 72 72 73 74 73 71 72 72 72 73 74 74 74 74 74 74 74 74 75 75 75 75 75 75 75 75 77 78 77 76 74 73 72
67 62 57 47 45 51 54 61 68 67 71 72 71 65 72 75 74 75 75 76 72 71 71 70 71 71 72 71 73 72 71 70 70 69 69 71 74 75 75 74 75 76 76 77 76 74 73 72 71
61 55 46 41 47 55 61 66 68 68 69 70 72 65 65 72 75 75 75 76 70 68 68 69 69 70 71 71 72 71 71 70 69 67 68 70 71 73 74 73 74 75 75 75 74 73 71 70 71
55 53 42 40 49 59 63 68 68 70 71 71 68 66 65 73 72 72 72 70 69 67 67 68 70 70 70 71 71 70 70 69 69 69 69 70 70 72 72 73 73 73 73 73 72 71 71 70 70
52 46 42 44 51 56 64 70 68 70 69 67 72 63 65 69 71 71 70 68 68 67 66 66 67 69 70 69 69 68 68 69 69 69 68 70 69 71 72 72 72 72 72 71 71 70 70 70 69
56 51 43 46 50 52 65 71 71 71 69 76 74 61 60 68 70 69 67 66 66 65 66 65 67 68 66 65 68 68 68 68 67 68 68 69 68 69 72 70 71 71 71 70 70 69 70 69 68
59 46 43 46 52 57 66 65 74 75 71 72 72 70 71 72 70 65 63 62 63 65 64 65 66 67 65 64 66 67 68 67 67 68 68 67 67 68 72 69 69 70 69 69 69 69 68 67 68
54 44 51 57 61 60 67 66 68 69 68 67 67 68 71 70 68 64 62 61 62 62 63 64 67 66 65 65 64 63 65 64 63 64 64 65 68 68 69 68 68 68 68 68 68 68 67 66 66
53 52 59 62 63 65 64 64 66 66 62 68 67 65 68 69 67 65 63 63 63 63 63 64 64 65 65 65 63 63 62 62 62 63 65 66 67 67 66 66 66 66 66 64 64 65 63 62 64
52 59 62 64 67 64 63 68 65 66 69 74 71 70 69 67 66 66 64 62 62 62 63 63 64 63 63 64 64 63 63 61 62 64 65 66 65 64 65 65 65 64 61 59 58 59 60 61 63
55 61 65 67 67 67 69 66 67 68 70 72 73 70 68 67 67 68 66 65 62 62 62 62 63 63 64 63 62 63 64 63 64 64 65 65 64 64 64 64 64 64 62 60 57 59 61 61 63
63 63 64 66 65 67 64 65 61 68 71 71 71 66 66 67 67 64 63 62 63 62 62 62 61 62 61 60 61 62 64 63 64 65 64 64 64 64 63 63 63 63 64 63 63 62 59 62 63
64 57 61 62 63 60 65 59 59 69 69 69 69 69 66 68 66 66 66 64 64 62 62 61 60 60 58 58 60 62 64 64 63 64 64 64 64 63 63 62 62 63 63 63 62 60 60 61 62
55 53 47 59 59 63 59 54 63 68 66 66 66 66 66 67 68 66 65 65 64 62 61 61 62 59 58 59 60 61 62 63 63 63 63 64 65 64 63 63 62 63 60 61 59 61 60 61 60
47 42 46 52 60 59 57 56 64 68 66 66 65 66 65 64 65 66 65 63 62 62 62 62 61 59 59 59 60 61 62 61 62 62 63 64 64 64 63 64 62 62 61 59 61 59 61 61 60
41 43 41 43 53 59 55 56 62 68 66 65 66 64 62 67 66 68 64 63 62 62 62 62 62 61 60 59 60 60 60 61 62 62 62 63 64 65 64 63 61 61 61 61 60 61 61 63 60
50 48 45 49 58 57 54 56 60 66 67 66 61 62 62 66 69 68 64 62 61 60 60 60 61 61 60 59 58 58 58 59 60 62 62 63 64 64 64 64 62 62 62 63 62 61 62 59 59
50 46 44 52 57 53 51 53 59 61 62 63 64 62 62 64 64 66 62 60 60 59 60 59 60 61 61 61 60 60 60 60 61 61 61 62 63 64 64 65 63 64 62 61 61 60 57 57 58
48 45 45 46 51 52 52 50 55 61 63 66 64 65 67 66 65 65 61 59 59 58 59 59 61 61 61 61 61 60 60 59 59 59 59 60 61 63 64 63 63 62 61 61 60 61 62 59 57
41 51 50 47 41 35 49 33 48 55 57 63 66 62 64 64 68 66 63 59 58 58 59 58 61 61 61 61 60 59 58 57 59 59 61 61 60 61 64 64 62 61 60 60 62 63 62 57 57
44 49 46 45 39 40 41 37 45 54 53 59 64 65 63 64 67 66 64 62 61 59 58 58 61 62 62 61 61 59 59 60 60 58 55 59 58 60 62 62 61 61 62 60 62 60 59 58 56
50 45 44 43 39 31 41 39 41 48 55 62 65 65 66 64 68 68 67 64 59 59 58 59 59 60 62 61 61 60 59 59 59 59 58 58 59 58 59 61 62 61 61 61 59 60 60 59 57
44 38 31 30 30 28 46 40 44 55 61 65 66 65 67 65 67 66 64 61 58 57 57 58 58 58 60 61 61 61 60 61 59 59 59 58 58 57 59 59 60 61 62 62 62 60 59 59 58
39 38 32 27 27 31 46 38 44 59 65 69 70 68 69 66 67 66 64 63 60 59 58 59 58 57 58 60 61 61 61 61 61 61 61 59 60 61 62 59 60 62 62 61 61 61 60 59 59
40 34 43 34 35 30 37 46 58 58 57 63 68 65 61 64 66 65 64 64 62 60 59 59 59 59 59 59 61 61 62 62 61 62 62 61 61 63 62 60 59 60 61 62 62 62 61 60 59
46 46 34 35 27 27 36 38 40 47 51 57 61 58 58 61 66 65 65 65 64 62 61 60 60 59 60 60 61 62 62 62 62 62 61 62 62 62 62 61 60 60 60 61 60 61 61 59 60
44 37 37 37 34 28 30 36 49 48 52 53 57 62 61 61 61 63 67 67 65 63 62 60 59 59 59 60 60 62 62 61 61 60 60 62 62 62 62 61 60 60 59 59 59 61 61 59 60
50 45 41 33 33 35 35 36 49 50 52 54 58 62 59 61 62 63 64 64 62 62 62 61 61 60 60 60 60 60 62 61 60 61 61 62 62 62 62 61 60 59 60 59 58 59 61 58 58

GFSSGP_sfc_temp_087.txt.gz
Temp
63 63 62 62 51 44 39 48 53 59 59 65 69 67 65 64 64 55 69 72 71 70 72 72 73 74 74 74 74 74 75 75 75 75 75 75 75 75 75 75 75 76 77 78 77 77 76 76 74
63 67 62 53 44 37 42 51 55 60 67 68 68 66 64 62 68 67 69 72 71 71 72 71 72 73 74 74 74 74 75 75 75 75 75 75 75 75 75 75 75 76 77 77 77 77 75 74 73
68 68 57 48 39 38 44 54 58 66 69 66 64 67 68 66 69 70 72 72 70 69 71 73 72 72 73 73 73 74 74 74 74 74 75 75 75 74 74 74 74 75 76 78 77 76 74 72 71
64 61 55 45 42 46 51 58 59 62 70 70 66 62 68 70 70 73 72 72 69 68 70 70 71 72 73 73 74 74 73 71 71 72 74 75 75 74 74 73 74 75 77 77 76 74 72 71 70
58 53 44 39 43 49 57 61 61 61 65 68 68 62 63 70 73 72 72 72 68 67 68 69 70 71 73 73 74 72 70 70 70 70 72 71 72 71 72 73 74 75 76 75 74 72 71 70 70
53 50 39 38 45 53 59 62 62 64 66 68 66 62 62 69 70 70 70 68 68 67 67 69 71 71 71 72 72 70 69 69 69 69 70 71 71 71 71 72 73 74 73 73 72 71 71 70 69
50 45 40 40 45 51 58 64 63 64 65 66 69 61 62 66 68 68 67 67 66 66 65 68 68 69 69 69 69 68 69 68 68 68 70 70 70 69 69 72 73 73 72 71 71 70 70 70 68
53 49 39 44 46 51 61 65 66 67 67 71 69 59 58 67 68 67 65 64 64 64 64 64 65 68 67 66 68 68 67 67 68 69 69 69 69 69 69 70 73 72 71 71 70 70 69 69 68
54 43 41 45 49 51 60 61 67 69 66 71 69 66 69 70 67 63 61 61 62 63 63 63 66 67 66 64 66 68 68 68 68 68 68 67 66 68 68 68 72 71 70 70 69 68 68 68 67
51 42 46 55 58 54 61 62 64 64 65 65 64 65 66 67 66 63 60 60 61 61 62 64 64 64 65 65 63 62 64 64 63 64 65 66 66 67 68 68 69 69 68 68 68 67 67 67 65
52 49 57 57 59 59 55 58 60 61 61 65 66 63 63 64 64 63 61 61 62 62 62 62 64 65 64 64 62 62 63 63 62 62 62 63 64 65 66 66 66 66 67 66 66 64 63 65 64
49 55 61 59 62 58 57 61 60 60 66 70 70 66 64 63 64 63 62 60 61 61 62 62 63 64 65 64 63 63 62 62 61 63 63 63 64 64 66 65 64 64 64 61 61 59 60 62 63
52 56 60 62 62 60 63 61 60 63 69 69 69 65 64 66 65 65 64 62 61 61 61 62 62 62 62 64 63 63 62 61 62 64 64 64 64 64 65 65 64 62 62 62 61 59 61 62 62
59 60 60 62 62 63 61 62 57 64 67 66 65 62 64 65 65 62 60 61 61 62 62 61 62 62 62 62 63 63 63 62 62 63 64 65 65 64 64 64 62 63 63 60 61 60 60 61 63
61 54 58 57 59 58 62 52 55 64 65 64 64 63 63 65 64 64 64 62 63 62 63 62 60 59 60 60 61 63 63 63 63 63 64 64 64 64 64 63 62 63 64 63 63 59 59 61 64
53 51 44 55 58 61 57 51 60 65 62 62 64 62 63 64 65 68 64 64 62 62 61 60 61 58 57 59 60 62 63 63 63 64 64 63 63 63 62 62 62 62 62 62 62 62 60 60 61
44 38 43 50 58 58 55 50 57 62 63 61 62 62 63 61 62 63 64 64 62 62 62 60 58 57 57 59 59 61 62 62 63 62 63 63 63 62 62 62 61 60 61 61 62 59 61 58 58
41 40 37 43 50 53 50 51 54 59 60 59 59 62 62 60 64 67 63 63 62 61 63 62 59 57 58 59 60 60 61 61 62 62 62 63 63 61 60 60 59 61 59 59 57 59 58 58 59
47 44 41 45 55 51 49 48 53 56 56 56 57 58 62 61 64 64 62 61 61 62 63 62 59 58 58 58 58 58 58 60 60 62 62 63 63 61 60 59 59 60 61 60 59 59 58 54 56
47 43 41 48 53 51 46 48 55 56 59 58 59 60 63 58 59 61 59 60 61 62 62 61 61 60 58 60 60 60 59 60 61 61 62 62 63 62 61 61 60 62 61 60 57 59 57 55 56
44 42 42 44 47 47 46 46 53 60 58 59 60 61 62 59 59 59 58 59 61 61 60 61 62 61 59 59 61 60 58 59 58 58 60 60 62 62 61 60 61 61 62 60 60 59 59 56 56
39 47 47 45 40 33 44 33 48 54 55 57 60 59 60 59 64 62 59 57 59 61 61 59 61 61 62 59 58 59 58 57 59 59 59 59 60 61 62 61 60 61 61 60 60 61 62 57 57
43 48 45 43 36 35 37 33 43 50 49 55 57 60 60 59 64 63 60 59 59 61 59 58 59 61 61 61 60 59 58 59 59 59 58 59 58 60 62 61 60 60 61 61 60 59 58 57 57
48 44 43 41 37 27 37 36 39 45 52 56 60 62 63 60 64 66 64 61 57 60 59 57 60 61 61 61 60 60 59 59 57 57 57 57 58 58 59 61 61 61 60 59 60 58 57 56 57
42 37 23 23 28 27 41 37 40 52 56 58 60 63 65 63 63 64 61 57 58 58 58 60 60 60 61 60 60 60 60 60 59 58 57 57 58 57 57 58 60 61 61 60 59 59 57 57 56
39 37 26 22 26 30 42 34 40 54 57 60 62 63 66 65 63 64 63 59 57 58 59 59 58 59 60 61 61 61 61 61 58 58 57 56 58 59 57 57 59 61 61 61 60 59 59 59 58
38 33 41 32 33 30 35 41 50 53 53 56 57 58 55 61 63 64 64 61 58 57 58 58 58 59 60 60 61 61 61 61 60 58 58 57 58 60 61 59 59 60 60 60 60 60 59 60 59
42 44 32 34 25 24 33 36 39 45 46 51 55 54 55 56 60 64 63 61 60 59 58 58 58 58 59 60 60 61 59 61 61 61 59 59 58 58 57 57 59 59 60 61 60 60 61 60 60
38 34 36 36 34 29 26 35 45 44 46 47 51 56 55 55 57 60 61 61 61 60 58 58 58 57 57 58 58 59 59 61 61 61 61 61 60 59 58 59 59 58 59 60 60 61 61 59 61
44 39 38 31 31 35 33 34 48 46 48 50 51 56 56 57 59 59 59 59 58 58 58 57 57 57 57 58 58 58 59 60 61 61 61 61 61 61 61 59 59 58 59 58 58 59 60 57 58

GFSSGP_sfc_temp_093.txt.gz
Temp
70 72 75 75 65 61 57 60 62 64 67 72 75 74 73 75 69 68 78 80 78 78 77 77 74 75 75 75 74 75 76 77 76 76 76 75 76 76 76 76 76 77 78 78 78 78 77 76 75
71 72 73 66 60 55 60 60 62 69 73 74 75 73 73 73 75 76 79 79 80 79 77 78 73 74 74 74 74 75 77 76 76 76 76 76 76 76 75 75 76 77 77 78 78 78 77 75 73
74 74 71 65 56 56 60 62 69 71 73 72 74 76 75 75 75 78 80 78 77 77 75 77 74 73 74 73 74 75 75 76 75 75 76 76 76 76 76 75 75 76 77 78 78 77 75 73 72
73 72 65 59 56 57 61 66 67 69 73 74 76 74 75 78 77 80 80 79 77 73 76 74 72 72 73 74 74 74 74 74 74 75 76 77 76 76 75 75 75 76 76 77 77 75 73 71 71
69 67 59 54 55 58 62 64 68 69 70 73 74 73 73 77 78 78 77 78 77 71 73 74 70 72 73 74 74 73 73 73 73 74 75 75 76 76 75 75 74 75 75 76 74 73 71 71 70
65 64 55 54 58 57 63 68 69 69 71 72 71 72 75 76 76 76 76 77 77 74 72 72 72 71 72 73 73 72 72 71 71 73 73 74 74 73 74 73 73 73 73 73 72 71 71 70 70
63 59 55 53 54 56 62 70 68 70 68 70 74 71 74 73 76 76 76 76 75 74 73 71 74 74 70 70 70 69 70 70 72 71 72 72 71 71 71 71 72 73 73 71 71 70 70 70 69
65 62 53 54 57 57 66 68 72 71 70 76 76 70 73 75 75 75 74 73 73 72 70 71 72 73 76 73 69 69 69 70 69 70 70 68 69 70 71 70 71 73 72 71 70 69 69 69 68
62 57 53 56 55 61 66 66 71 73 71 72 75 73 73 72 72 71 68 66 67 67 68 70 70 71 73 70 69 69 69 68 68 70 69 68 75 74 73 71 71 72 72 70 69 68 68 67 67
61 55 56 61 64 63 66 65 67 68 67 71 72 72 70 71 71 70 67 65 65 66 66 68 69 71 71 70 70 68 68 69 69 70 72 72 72 73 73 72 69 70 71 69 68 68 66 69 74
59 55 59 62 65 65 64 65 68 68 66 70 69 72 70 69 70 71 72 70 68 68 67 66 67 69 71 69 69 67 67 67 67 68 68 70 71 71 71 72 71 71 70 66 66 68 73 73 73
55 57 63 66 64 64 62 65 64 66 68 74 74 75 74 71 71 71 71 72 70 67 67 67 67 66 69 71 69 67 66 66 66 68 70 70 68 69 70 72 71 69 66 64 65 70 71 71 71
55 59 60 65 65 64 65 62 64 65 70 75 72 71 72 73 74 74 75 74 72 70 69 67 67 66 67 67 66 66 67 66 67 66 67 69 65 67 70 67 69 65 63 62 65 69 71 70 70
59 60 63 65 64 63 61 63 63 65 70 70 70 73 75 72 73 73 71 72 71 71 70 69 66 67 66 65 65 66 65 64 64 65 66 69 66 68 68 67 66 66 63 61 63 71 71 71 71
61 55 60 60 63 61 64 58 59 68 71 69 71 72 72 72 72 71 72 72 73 72 72 68 66 66 65 65 65 65 65 65 63 64 67 67 67 67 67 64 64 65 64 60 62 69 70 70 71
56 54 48 58 62 63 62 53 64 69 65 67 69 69 69 73 73 74 73 73 74 73 70 70 67 65 64 65 65 64 65 65 66 65 65 65 64 65 64 63 63 62 60 59 63 68 68 68 69
50 46 47 52 61 62 59 57 65 66 64 65 67 69 70 70 72 74 73 74 73 73 71 69 67 63 63 63 64 64 65 65 66 67 65 65 64 64 64 63 62 61 60 60 66 66 68 67 68
44 45 48 50 58 58 58 56 61 66 64 64 67 68 68 68 71 76 74 75 74 73 71 70 65 63 63 63 62 63 64 64 65 65 65 64 63 63 63 62 61 61 60 63 65 65 66 68 68
51 49 48 52 57 54 55 56 60 62 63 62 65 67 68 69 75 75 73 72 70 70 69 69 61 62 61 59 59 60 61 62 63 64 66 64 62 61 60 60 61 63 62 65 66 64 65 65 68
50 48 48 52 55 54 54 53 59 60 62 65 65 67 68 69 71 72 72 68 68 68 69 66 62 61 61 62 64 65 64 63 64 63 63 62 61 60 61 61 62 63 62 61 63 65 65 65 65
48 47 46 48 52 53 51 51 57 63 63 64 65 67 68 68 69 71 68 66 67 67 67 65 62 62 62 63 65 64 64 61 61 62 64 62 61 61 60 62 62 63 63 62 64 64 64 60 64
42 51 50 48 46 41 49 39 51 57 58 60 62 63 64 67 70 71 69 66 66 67 68 66 63 62 62 63 62 64 62 60 63 64 62 61 61 60 60 60 59 60 62 61 62 64 65 64 61
47 51 50 48 45 42 43 39 48 54 53 54 58 59 62 65 68 69 70 69 68 68 67 65 63 62 62 61 63 63 62 64 65 63 60 60 61 60 60 59 58 57 59 60 60 61 63 64 65
51 48 45 44 42 34 41 40 43 49 51 54 56 58 58 61 62 68 71 69 68 68 67 64 63 61 62 61 63 63 61 61 63 61 59 59 59 59 59 58 58 58 57 58 58 59 60 62 65
48 43 34 31 31 34 42 39 44 51 52 52 53 55 58 61 61 62 67 66 66 66 64 64 63 61 61 60 61 61 60 62 64 62 60 59 58 58 58 58 57 57 57 58 58 59 59 60 62
44 45 36 28 30 34 42 37 45 52 56 58 57 58 59 60 60 62 64 67 66 65 64 63 62 61 61 61 61 61 61 65 66 64 62 63 59 59 59 59 58 57 59 58 58 61 60 60 61
42 39 44 36 35 33 38 44 51 53 54 55 55 57 57 58 59 60 64 66 65 65 63 61 62 62 61 62 61 60 61 64 64 62 62 61 61 60 59 59 59 58 59 59 58 62 59 59 61
47 48 36 35 27 25 36 37 41 48 49 52 53 54 53 54 55 59 65 65 65 66 63 61 61 61 61 62 61 61 62 61 64 64 63 60 60 61 60 58 59 59 59 59 59 62 66 61 59
42 40 39 40 36 30 28 37 48 48 49 50 51 50 49 50 51 58 64 66 64 65 62 60 61 62 63 63 62 64 64 61 62 62 61 60 62 63 64 63 60 59 61 62 61 64 64 59 60
46 41 41 36 30 35 33 36 50 50 51 52 52 50 49 49 49 51 57 61 61 60 61 60 61 61 63 64 63 63 64 61 61 63 62 62 63 64 64 64 64 64 64 65 64 62 61 60 61

GFSSGP_sfc_temp_096.txt.gz
Temp
74 86 91 86 73 74 72 73 80 76 76 83 85 83 82 85 80 76 91 93 91 91 88 80 74 75 75 75 75 75 76 77 77 76 76 75 76 76 76 76 76 77 78 78 78 78 78 77 75
89 85 87 85 69 67 73 79 75 81 81 83 82 83 82 81 87 88 88 91 93 92 90 86 73 74 74 74 74 75 76 77 76 76 76 76 76 76 76 76 76 77 77 78 78 78 77 75 74
86 88 82 76 72 67 72 78 80 81 82 81 82 87 85 82 87 91 95 90 91 90 89 86 73 74 74 74 74 75 76 75 75 75 76 75 76 76 76 75 75 76 77 78 78 77 75 73 72
84 84 81 70 68 74 74 79 80 79 83 83 85 81 86 90 89 93 93 91 89 87 88 76 72 73 74 74 74 74 75 74 74 75 76 78 78 77 76 76 76 76 77 77 77 75 73 72 71
85 83 70 68 71 77 79 79 80 78 79 82 83 82 82 87 90 92 91 90 88 86 86 82 71 72 74 74 74 74 74 74 74 75 76 76 76 76 75 75 75 75 74 75 75 73 72 71 70
76 79 67 66 71 76 77 83 81 80 81 82 80 82 85 90 89 89 89 88 88 83 82 81 73 72 73 74 73 72 73 73 72 74 75 75 75 74 74 74 73 71 70 70 72 71 71 70 70
72 72 67 71 71 73 74 81 77 79 80 80 85 78 86 86 90 89 88 88 85 83 79 78 79 77 70 71 71 71 71 71 72 72 72 73 72 72 73 73 73 71 70 70 71 70 69 69 69
78 75 67 71 67 68 77 78 81 80 79 83 85 78 80 84 86 87 87 84 83 81 80 76 76 77 82 79 69 70 70 70 70 71 70 69 71 71 71 71 72 72 72 72 71 69 69 68 68
80 67 64 68 67 70 77 75 81 83 80 80 83 82 83 83 84 83 83 82 81 79 79 74 75 79 82 78 75 70 70 70 70 70 68 68 81 79 74 74 70 71 71 72 71 69 68 67 67
70 66 68 76 76 73 76 76 78 77 78 79 81 82 81 81 82 82 81 79 76 75 74 75 76 79 80 79 77 76 78 75 77 78 76 79 81 81 81 75 69 70 69 70 70 68 66 69 76
70 65 75 76 76 78 76 76 81 76 74 79 79 80 83 81 82 83 86 84 81 80 76 73 74 77 79 76 76 74 72 73 73 74 77 79 79 78 77 80 78 77 71 74 67 65 71 74 76
64 72 72 76 76 75 72 77 74 76 76 84 82 84 83 84 83 85 86 88 85 82 78 73 73 73 77 80 73 72 71 70 70 71 73 74 77 76 76 78 77 76 75 73 70 66 71 74 76
66 68 72 74 74 75 74 72 73 73 80 84 83 82 82 84 86 89 89 90 89 83 78 74 72 72 78 78 77 74 72 70 73 70 71 72 72 71 73 76 76 74 73 69 68 66 70 73 76
70 69 70 72 72 74 69 71 73 74 79 81 81 81 84 86 87 88 88 87 86 85 81 77 70 71 74 76 74 71 72 74 72 71 70 70 71 72 72 74 73 70 70 67 65 67 70 73 77
69 63 67 69 70 70 72 66 68 77 79 78 81 83 84 86 88 86 89 87 87 87 85 79 72 72 70 73 72 75 71 74 72 69 68 69 72 73 70 70 70 67 65 67 65 68 70 74 77
62 63 57 68 70 71 69 60 75 78 77 76 79 81 82 83 87 88 89 88 89 89 85 81 78 70 70 72 69 69 70 69 71 71 69 69 71 72 69 67 69 66 64 65 63 67 69 74 76
60 55 57 61 70 69 67 64 75 79 76 75 78 80 81 83 85 88 88 88 88 89 86 81 79 71 70 71 69 68 70 67 71 72 71 71 69 68 67 65 65 63 62 63 63 68 70 72 73
52 53 57 56 66 67 66 66 72 74 74 74 76 78 80 81 84 88 90 88 88 88 85 82 79 73 68 68 67 67 68 67 70 72 71 71 69 67 64 64 63 61 60 60 61 67 69 72 74
58 56 55 61 66 62 63 65 70 74 73 72 74 76 78 80 85 88 88 88 85 85 83 81 78 71 67 65 64 63 64 65 67 73 69 70 65 63 63 63 62 61 60 60 62 68 69 68 73
49 48 53 61 63 61 62 62 69 72 71 72 74 76 78 80 83 84 86 87 83 82 81 80 79 69 69 72 73 70 68 68 70 69 68 68 65 61 62 62 62 61 60 60 62 68 68 68 70
50 51 52 53 61 63 60 57 63 71 74 75 76 76 76 76 76 79 81 83 83 80 80 80 79 68 69 75 74 70 71 69 68 67 64 61 61 61 61 61 62 61 61 61 66 69 68 66 69
48 58 56 54 52 48 59 49 59 65 67 70 68 68 70 72 74 77 80 81 83 80 81 80 76 67 68 72 73 72 70 67 69 67 71 63 63 61 62 60 61 61 62 65 66 69 71 70 67
52 59 54 55 53 52 53 48 57 63 60 63 66 66 69 71 73 74 76 80 84 83 79 78 70 66 67 69 74 72 73 75 70 69 67 64 62 63 60 61 62 63 64 65 69 69 70 71 70
59 54 54 53 51 41 51 51 54 59 58 59 63 66 68 70 72 74 77 78 81 83 78 74 65 65 66 69 72 72 72 72 69 67 66 60 60 59 60 59 59 61 63 63 64 63 63 64 68
55 50 38 37 37 39 51 48 56 58 59 60 61 65 68 68 69 70 73 76 79 78 76 70 64 64 66 67 69 69 72 70 70 67 65 61 59 59 58 58 58 58 59 60 60 60 60 60 61
49 49 43 32 36 43 50 44 54 61 64 65 67 67 67 66 67 67 68 71 76 77 76 68 65 66 66 66 67 67 72 65 72 69 67 63 62 60 60 59 58 59 59 59 59 59 59 60 62
48 45 52 41 41 40 49 52 58 60 63 64 65 65 64 64 65 63 61 71 75 76 75 67 66 69 65 66 66 65 68 64 69 71 71 69 65 61 59 59 58 58 57 58 58 58 60 63 61
54 57 42 44 31 33 44 46 50 54 56 60 61 61 61 61 59 55 54 69 76 77 75 66 66 66 63 65 65 64 64 65 69 71 67 68 68 63 61 60 58 57 56 57 59 58 58 61 61
48 47 48 49 45 38 38 44 55 54 57 57 58 57 58 56 55 49 50 61 74 76 70 64 64 64 62 64 65 64 64 64 66 69 67 67 64 64 62 61 59 57 57 57 57 58 59 59 65
56 51 50 42 36 42 41 46 58 58 59 58 54 55 56 54 53 47 47 50 63 66 62 62 63 61 62 63 64 63 64 64 64 65 67 67 64 65 63 63 59 59 58 58 59 60 62 62 67

GFSSGP_sfc_temp_099.txt.gz
Temp
76 87 94 91 75 77 74 80 88 82 83 91 91 89 87 91 84 76 100 98 99 95 88 81 74 75 75 75 75 76 76 76 76 76 76 76 75 76 76 76 76 77 78 78 78 78 78 77 75
89 93 91 85 71 70 75 86 81 86 89 88 88 89 86 84 93 93 94 97 99 97 91 87 74 74 75 75 75 75 76 77 76 76 76 76 76 77 76 76 76 77 78 78 78 78 77 75 74
84 93 82 78 73 70 75 85 85 89 88 87 86 92 91 86 93 95 100 96 97 96 94 86 73 74 74 74 75 75 75 76 76 76 76 76 76 76 76 75 75 76 77 77 78 77 75 73 72
88 86 83 72 71 79 81 87 87 87 88 90 90 85 92 97 94 99 99 97 96 94 94 75 72 73 74 74 75 75 75 74 73 74 76 76 77 76 76 76 75 77 76 77 76 75 73 72 71
90 85 72 71 72 79 87 87 88 84 85 87 89 85 87 93 98 100 97 96 94 92 91 83 72 73 74 74 74 74 75 74 74 74 75 76 77 76 76 75 75 74 71 72 74 73 72 70 69
78 81 69 68 73 81 87 90 86 85 87 86 85 85 89 99 95 96 96 94 93 90 88 84 74 73 73 73 73 73 73 73 72 73 74 75 75 75 75 75 73 73 71 70 70 70 70 69 69
75 75 69 73 75 79 84 89 83 84 84 86 91 81 90 94 96 96 95 93 90 87 85 84 82 78 71 71 72 71 72 72 72 73 73 73 73 73 73 72 72 72 71 70 70 68 68 68 68
80 77 70 74 72 75 87 86 87 84 84 94 91 80 83 91 95 94 93 90 88 84 83 83 83 83 82 80 70 71 71 71 71 71 71 71 70 72 72 72 71 70 70 70 69 69 68 68 67
84 69 66 71 74 78 85 82 86 90 87 86 90 88 88 89 91 90 89 87 86 84 84 82 82 83 84 81 77 71 71 71 70 71 69 70 80 79 75 74 71 70 70 70 70 69 69 66 67
75 68 69 80 83 81 82 81 83 81 81 83 85 88 87 88 87 86 86 85 84 83 82 79 81 82 84 79 78 80 80 81 80 80 77 79 80 80 81 75 70 70 70 70 70 69 66 66 69
75 68 77 80 84 85 82 82 86 82 78 84 82 85 86 87 87 87 89 88 86 86 83 82 79 82 83 84 82 82 81 80 81 80 79 80 81 78 78 75 77 78 71 76 73 70 66 66 68
70 75 77 79 83 82 79 83 81 82 81 88 89 90 88 87 88 88 89 92 90 87 86 82 80 80 82 85 82 82 82 80 79 79 78 77 77 77 75 79 77 75 75 76 75 70 66 66 69
72 74 77 79 80 81 81 78 78 79 85 88 89 88 87 87 90 91 93 93 95 90 87 82 80 77 80 81 82 77 76 75 75 74 76 78 78 75 75 76 76 75 77 73 72 68 68 66 69
75 75 75 78 78 77 75 76 78 79 84 84 85 86 88 88 89 91 92 92 92 93 89 84 78 75 79 82 82 74 77 80 75 73 72 72 75 73 75 75 75 73 76 74 67 69 66 65 68
73 68 73 74 75 75 77 70 72 80 84 81 83 86 87 89 91 90 92 92 93 95 93 83 77 74 77 81 82 78 79 80 78 77 75 71 72 72 74 73 72 74 73 73 71 68 66 65 70
66 66 59 71 73 75 73 62 76 83 81 80 82 84 86 88 90 92 93 93 96 95 93 87 83 73 73 78 81 81 79 79 80 79 76 72 73 71 68 68 69 72 71 71 68 68 65 64 70
62 55 58 63 75 73 71 65 76 83 82 79 82 84 85 87 89 91 93 94 95 96 93 88 84 78 72 73 77 77 77 76 77 79 75 75 73 72 72 70 69 71 68 69 66 67 65 63 68
55 55 60 61 71 73 68 68 74 80 79 79 81 83 84 85 87 91 92 94 95 95 92 90 85 81 75 73 74 72 72 70 75 77 75 75 73 73 73 70 67 67 66 66 64 65 64 66 69
57 57 54 62 70 67 66 67 73 78 78 77 78 80 81 83 88 91 91 92 92 91 90 89 85 81 73 70 69 68 69 67 72 71 76 77 75 71 70 65 63 63 62 62 63 66 63 64 68
56 42 48 60 66 66 66 64 72 76 77 78 78 78 81 83 86 88 90 90 90 89 87 87 86 83 75 71 73 74 73 71 76 75 76 76 75 72 66 64 62 61 61 61 61 63 63 66 68
52 46 50 53 59 62 62 59 63 72 75 78 79 80 82 82 81 83 84 86 88 88 86 87 87 85 75 74 77 78 76 73 72 70 75 72 72 70 65 63 62 61 61 60 61 62 63 63 67
48 58 54 53 49 43 63 48 63 68 71 74 76 75 76 77 79 80 81 82 85 86 88 86 87 86 75 77 79 77 75 70 73 74 75 69 67 63 63 62 62 61 61 60 61 63 64 66 65
54 60 55 53 53 53 54 51 59 68 64 70 71 72 73 75 76 77 79 82 84 86 87 85 85 86 73 77 80 77 76 76 76 76 71 63 63 64 62 61 61 61 61 61 61 64 66 69 68
60 55 56 56 53 42 53 53 53 58 64 66 68 70 72 73 74 76 78 80 82 85 85 84 82 80 73 73 78 76 76 77 75 73 67 65 62 60 61 62 60 60 61 61 62 67 67 67 67
54 48 37 34 37 39 56 51 56 64 65 64 65 69 72 73 72 72 73 75 75 79 83 83 81 73 70 68 76 77 77 77 75 72 68 63 60 60 60 61 59 60 61 61 63 63 64 67 68
51 49 38 31 34 41 55 46 56 68 68 69 69 70 70 71 70 69 69 68 70 76 81 82 79 70 67 67 75 77 78 77 76 73 69 66 61 61 60 60 59 58 60 61 61 59 59 59 59
50 45 54 41 47 44 50 55 61 66 66 67 67 66 62 67 66 65 64 63 68 67 79 80 71 68 66 66 73 75 76 75 75 72 70 67 66 63 62 60 58 58 59 59 59 59 59 59 59
54 57 43 47 33 35 47 49 47 54 57 63 63 62 60 64 63 60 58 56 61 63 80 79 69 67 66 66 69 72 75 73 74 71 67 67 69 64 62 60 59 58 58 59 59 59 60 58 60
52 48 51 51 46 37 35 43 58 57 60 60 59 59 59 59 57 54 50 50 55 56 79 72 68 66 64 64 65 67 73 72 72 70 70 67 67 65 62 60 59 57 57 57 56 57 58 58 60
57 51 51 41 40 45 42 41 61 62 63 59 58 56 58 56 54 51 45 45 47 47 56 65 65 63 64 63 64 64 67 70 67 67 70 69 68 68 66 63 60 58 57 57 56 56 58 57 57

GFSSGP_sfc_temp_102.txt.gz
Temp
74 82 86 83 69 70 66 73 85 84 84 91 92 88 86 88 80 71 95 93 88 84 79 78 74 75 75 75 76 76 76 76 76 76 75 75 76 76 76 76 76 77 78 78 78 78 78 76 75
84 86 86 79 64 61 67 81 80 87 90 89 88 88 86 83 91 90 90 95 92 87 82 79 74 74 75 75 75 75 76 76 76 76 76 76 76 76 76 75 75 76 77 78 78 78 77 75 74
78 87 77 71 66 62 67 81 85 89 89 87 85 91 88 86 93 92 94 93 93 88 88 79 73 73 74 74 75 75 75 75 75 75 76 76 76 76 76 75 75 76 76 77 78 77 75 73 72
81 80 79 65 64 73 74 81 87 87 89 90 88 84 92 95 93 95 96 96 91 90 84 73 72 73 74 74 75 75 75 74 74 75 76 76 76 76 75 75 75 74 76 76 76 75 72 72 72
82 79 65 64 67 74 82 86 88 84 87 87 88 82 86 92 98 95 93 93 88 86 79 77 72 72 73 74 74 74 74 74 74 74 75 76 76 76 75 74 73 71 71 70 72 73 71 69 70
72 76 62 61 67 76 83 86 86 85 87 87 85 84 87 96 95 92 90 89 87 83 80 77 73 72 73 73 73 73 73 73 73 73 74 75 75 75 74 74 73 71 70 70 70 70 69 69 68
71 69 63 65 68 73 81 89 85 83 83 84 90 81 87 90 93 92 89 87 84 82 79 77 76 75 72 71 71 71 72 72 72 72 72 74 73 73 73 73 72 71 71 71 70 70 69 69 69
77 72 65 68 67 69 83 87 90 85 82 93 93 80 80 90 93 91 89 84 82 80 79 77 77 76 75 74 70 70 72 71 71 72 72 71 71 72 71 71 72 71 71 70 70 69 69 69 68
81 65 61 65 68 72 84 83 89 90 85 87 90 88 88 90 92 88 85 82 79 78 78 78 78 77 77 76 74 70 71 71 70 71 70 69 74 73 72 72 70 70 70 70 69 69 68 67 67
70 64 64 74 77 76 81 83 85 83 81 82 86 91 87 88 87 84 82 79 79 78 77 78 77 77 78 79 73 74 75 74 73 74 72 72 73 72 74 71 69 69 69 69 68 68 67 67 66
70 63 72 75 79 81 81 82 86 81 77 81 81 84 84 85 84 84 85 83 81 80 79 77 76 77 78 77 76 76 76 75 75 74 74 73 74 71 70 69 70 68 68 69 68 67 66 66 65
65 72 74 76 80 79 78 83 81 81 81 87 87 88 85 83 83 84 84 86 84 82 80 77 77 76 76 78 76 76 76 75 73 74 74 72 71 70 69 68 68 69 69 69 69 67 66 65 66
67 71 75 78 78 78 80 77 78 79 85 88 88 88 87 84 85 87 88 88 88 83 79 77 76 75 77 77 76 75 74 74 73 73 73 72 70 70 69 69 69 68 68 67 67 67 65 65 65
70 72 73 76 77 78 74 75 78 79 85 84 85 84 86 86 86 86 86 86 85 85 80 77 76 75 76 76 75 73 73 72 72 72 72 72 71 70 69 68 68 68 67 67 69 67 65 64 65
70 64 69 72 74 74 77 69 70 79 83 80 81 83 84 86 88 86 86 85 86 87 83 76 75 73 74 76 76 74 73 74 73 72 71 70 70 71 69 68 67 68 67 68 67 65 65 64 65
63 63 56 68 72 74 72 60 73 80 79 78 80 81 82 84 87 88 87 88 90 90 85 78 78 73 72 74 76 74 73 74 73 72 70 70 70 69 68 68 67 67 67 67 66 64 63 63 63
58 51 55 60 71 70 68 63 72 79 79 78 79 81 81 83 86 88 88 89 90 90 85 78 75 72 71 73 75 74 73 73 74 73 72 71 70 70 68 67 66 67 66 66 66 64 63 62 62
48 51 56 57 66 68 66 65 72 77 77 77 80 80 81 82 85 88 88 89 89 89 84 80 76 72 71 71 73 74 73 72 72 72 72 71 70 69 69 67 66 66 66 65 65 64 64 63 62
56 55 55 61 61 60 61 65 70 75 76 75 78 79 80 82 86 87 86 85 84 83 83 81 77 74 70 69 69 69 68 68 69 71 73 71 70 69 68 66 65 65 65 64 65 64 63 61 62
55 53 53 54 59 58 57 55 65 73 74 76 77 77 78 80 83 84 84 82 81 81 81 81 79 77 73 71 71 69 69 69 69 70 71 71 70 69 67 65 64 64 64 64 64 63 61 61 61
54 52 49 49 54 47 48 45 57 69 75 78 78 79 80 79 79 82 81 78 78 79 78 81 81 79 75 72 71 70 70 69 67 69 70 70 70 69 67 65 63 62 62 61 61 62 62 60 60
49 60 55 52 40 36 55 38 56 65 66 70 74 75 76 78 78 78 78 78 77 77 78 80 80 80 77 72 70 69 69 67 67 69 70 69 68 66 66 64 63 62 62 61 61 62 62 62 59
54 61 55 53 44 41 45 38 50 64 62 65 71 73 72 73 74 74 75 77 79 78 76 76 78 80 76 71 71 71 71 70 70 69 69 65 65 64 64 63 62 61 61 61 61 61 61 61 61
62 51 50 49 45 31 42 43 49 57 62 66 69 70 71 71 71 72 73 74 74 74 72 75 77 79 74 72 72 72 71 70 69 69 66 63 62 62 62 61 61 62 61 61 61 61 62 61 61
56 46 34 31 29 31 50 47 51 61 66 66 66 68 68 67 66 67 67 67 66 67 69 72 77 77 72 71 72 73 72 72 70 69 66 62 60 59 60 61 59 60 60 60 61 62 61 61 61
50 48 36 28 30 36 50 38 46 62 67 68 68 64 65 66 64 63 62 61 59 62 63 67 63 77 71 69 71 74 74 73 71 69 68 64 61 60 60 60 60 60 60 61 60 61 61 61 61
49 43 52 35 41 33 42 42 53 58 63 63 62 61 61 62 60 59 57 54 52 56 57 58 59 73 68 67 68 71 72 72 70 68 67 64 62 61 61 60 59 59 60 60 59 58 58 58 58
51 54 35 35 29 27 41 43 42 49 55 58 56 56 55 57 56 55 51 48 49 51 52 56 66 68 66 66 67 68 71 70 70 68 65 65 62 62 60 58 59 58 58 58 59 58 58 58 58
46 39 41 42 42 32 32 34 45 47 52 53 52 51 51 52 52 50 47 46 46 47 48 49 66 68 65 65 65 64 66 68 68 67 66 65 63 62 61 59 58 58 58 58 58 58 58 58 58
52 46 46 34 39 40 34 33 51 52 55 51 49 48 49 48 48 47 45 43 43 42 44 45 47 63 64 63 62 62 64 67 67 66 65 64 63 62 61 60 58 58 58 58 57 57 58 57 57

GFSSGP_sfc_temp_105.txt.gz
Temp
64 68 67 66 52 48 44 55 68 70 70 72 80 77 74 75 72 60 77 79 76 73 73 74 73 74 75 75 75 75 75 75 75 75 75 75 75 75 75 75 76 77 77 78 78 77 77 76 75
68 75 68 60 46 39 46 64 65 73 77 78 81 79 77 73 81 78 76 79 77 74 74 73 73 73 74 74 75 75 75 76 75 75 75 75 76 76 75 75 75 76 77 77 77 78 76 74 73
71 75 59 52 45 44 47 64 70 77 79 77 74 79 78 76 82 81 82 80 79 77 75 74 72 73 73 74 74 74 75 75 75 75 75 76 76 76 75 75 74 76 77 78 77 76 74 73 72
67 63 60 48 46 54 60 68 73 74 77 79 75 72 81 85 83 84 84 83 79 79 75 71 71 72 73 74 74 74 74 74 74 74 75 76 76 76 75 73 73 73 73 73 75 75 73 70 70
64 59 48 44 49 60 67 72 75 71 75 77 78 72 76 82 88 87 84 84 76 73 72 72 71 72 73 74 74 74 74 73 73 74 74 75 76 76 75 72 72 72 72 72 72 72 71 70 70
56 57 43 46 53 62 68 73 75 75 77 78 75 76 75 82 85 83 81 77 75 72 71 71 72 72 72 73 73 73 73 73 73 73 74 75 75 74 74 72 72 70 71 71 71 70 70 70 69
54 49 48 50 54 60 68 75 73 76 75 75 79 73 76 80 83 82 80 77 74 73 70 69 70 71 71 71 71 71 72 72 72 72 72 73 72 73 74 71 71 70 71 70 71 70 70 70 69
61 56 52 55 55 57 70 76 79 78 74 82 81 70 68 75 81 79 78 75 73 71 70 68 68 68 68 68 70 70 71 71 71 71 70 71 71 72 72 71 71 70 70 70 71 70 69 69 69
64 53 50 54 56 61 71 70 79 81 76 78 77 78 79 81 81 77 74 71 71 72 70 69 68 69 68 68 70 70 71 71 71 71 70 68 69 70 70 70 70 70 70 70 70 69 69 68 68
56 49 54 62 65 65 72 73 76 72 73 72 73 75 79 81 78 74 72 69 69 69 69 70 69 69 70 73 68 67 69 67 68 68 68 68 68 68 70 69 69 69 69 69 68 68 67 67 65
58 52 61 64 68 71 69 70 76 69 66 72 73 71 75 76 75 74 73 72 72 72 71 70 70 70 71 70 68 68 67 66 67 68 68 68 68 67 67 67 68 67 67 67 66 65 64 64 64
53 62 64 65 69 69 67 72 70 70 72 78 77 76 75 74 73 74 73 74 73 72 72 71 70 70 70 71 70 69 69 67 66 67 68 67 66 66 65 67 66 65 65 64 64 63 63 63 64
56 61 65 68 69 70 72 69 70 70 75 77 79 78 73 75 73 74 76 75 77 74 72 72 72 69 71 71 70 69 68 68 68 68 68 68 66 66 66 65 66 65 66 64 64 63 63 62 63
61 62 63 66 67 70 68 69 70 72 74 75 76 71 71 72 74 73 73 75 75 77 74 72 72 72 71 69 69 68 69 68 67 67 67 67 66 66 66 65 66 66 66 64 65 64 63 62 63
61 55 60 62 65 64 69 62 65 73 73 71 71 72 72 72 73 73 75 73 75 78 76 72 71 72 71 69 68 67 68 67 66 66 70 67 66 66 66 65 65 65 65 64 64 64 63 62 63
52 53 45 59 62 65 64 54 67 72 71 70 69 69 73 73 74 73 74 75 74 73 75 73 74 71 70 68 68 67 67 66 66 66 66 66 66 66 66 65 65 65 64 64 63 64 62 61 62
46 39 44 51 63 61 60 56 66 71 70 70 71 71 70 72 74 75 74 74 77 73 75 72 72 70 70 68 68 67 66 65 68 67 66 66 66 66 65 65 65 65 63 64 63 62 63 61 61
37 40 44 45 54 60 57 57 65 66 70 70 70 71 73 73 76 77 80 74 76 73 77 73 70 69 69 69 66 67 67 64 65 67 67 66 67 66 65 63 63 63 63 63 63 62 62 62 61
45 44 44 50 58 53 52 55 56 65 67 67 68 71 72 74 77 79 75 75 73 71 74 73 69 67 67 67 64 67 64 64 63 64 67 67 66 66 65 64 63 62 63 63 63 62 61 59 61
44 42 42 50 58 48 43 44 50 53 57 61 68 67 65 70 70 77 73 71 71 72 70 71 69 66 67 68 68 66 69 66 69 64 64 65 66 65 64 63 63 63 63 62 62 63 61 61 61
43 41 43 44 47 47 43 41 46 56 61 66 70 74 71 70 71 70 70 67 67 68 68 70 70 67 67 68 68 64 64 66 65 67 66 63 64 65 64 63 63 63 64 63 63 63 62 60 61
38 49 49 48 40 33 43 31 44 52 57 64 68 69 70 68 67 67 65 65 66 66 67 68 70 68 67 67 67 66 64 64 66 67 66 63 64 63 64 62 62 64 63 63 63 63 62 61 59
42 51 49 50 36 37 36 33 39 52 51 61 66 65 64 65 63 62 61 63 63 63 64 66 66 67 69 68 68 66 64 65 63 65 66 63 62 63 63 64 62 62 62 62 62 62 61 61 61
50 46 45 41 40 26 38 37 40 47 52 61 60 60 60 60 58 58 59 58 56 58 59 61 63 64 67 67 67 66 66 65 63 63 62 60 61 60 62 61 61 62 61 61 61 62 61 61 61
49 41 25 27 24 25 43 36 43 55 60 58 57 58 57 55 54 53 52 51 51 52 54 57 56 58 60 66 66 67 67 66 65 64 62 60 60 60 59 60 60 60 61 61 61 61 61 61 60
41 39 27 23 24 29 45 36 43 57 56 57 57 53 54 52 51 49 48 48 48 50 51 50 51 52 56 64 67 68 68 67 67 66 62 61 60 60 60 60 59 60 61 61 61 61 60 61 61
43 37 43 34 34 27 36 41 52 54 48 51 48 48 47 48 48 46 45 45 46 47 48 48 48 49 54 60 66 66 64 69 66 65 62 60 60 59 60 60 59 59 60 60 60 60 60 60 60
46 50 31 31 26 25 34 36 37 41 41 44 44 43 43 43 43 43 43 43 46 46 46 47 48 50 57 63 62 63 62 64 66 66 61 60 59 60 59 59 59 59 59 60 59 59 60 60 60
42 35 38 39 35 27 28 31 41 42 42 41 41 41 41 41 42 42 42 43 44 44 43 43 45 48 55 60 60 60 61 62 65 64 61 59 59 60 60 59 59 58 58 58 59 58 58 59 59
46 41 40 32 31 33 32 30 43 43 43 43 42 42 42 43 42 42 41 41 42 41 41 41 43 44 48 52 59 59 60 62 64 63 62 60 59 61 60 59 58 58 57 57 57 57 58 58 57

GFSSGP_sfc_temp_108.txt.gz
Temp
62 64 64 64 51 44 39 49 57 62 65 71 75 72 71 72 70 61 72 76 73 71 73 73 73 74 75 75 75 75 75 75 75 75 75 75 75 75 75 75 76 77 77 78 77 77 75 76 75
64 70 64 55 44 36 42 52 59 65 71 75 77 73 70 68 75 71 72 75 74 72 72 72 73 73 74 74 74 74 75 75 75 75 75 75 75 75 75 75 75 76 77 78 77 77 76 75 73
67 70 56 49 40 39 43 55 62 66 74 74 73 73 74 72 76 74 76 74 73 72 72 72 72 73 73 74 74 74 74 74 74 75 75 75 76 76 75 75 75 76 77 78 78 77 75 73 72
64 61 55 44 42 48 52 60 62 66 71 75 73 69 76 80 78 78 77 75 73 72 72 70 71 72 73 73 74 74 73 73 73 74 75 75 76 76 75 73 74 75 76 77 77 75 73 71 72
60 53 44 39 44 51 58 64 62 65 68 73 73 69 70 78 81 79 77 77 73 70 70 70 70 71 73 73 74 73 73 73 73 73 74 75 75 75 73 73 73 73 74 75 74 73 72 71 70
53 52 39 41 50 56 60 65 63 67 71 72 71 70 71 78 78 77 77 75 73 70 69 70 71 71 72 72 72 72 72 72 72 73 73 74 74 74 72 72 72 72 72 72 73 72 72 71 70
49 44 42 49 48 52 60 67 66 68 69 69 75 69 68 75 79 77 75 73 71 70 68 68 69 71 70 70 70 70 71 71 72 72 72 73 72 71 71 71 70 71 71 71 71 71 71 71 70
56 50 44 51 51 51 64 69 71 68 71 81 78 68 64 74 75 74 72 69 68 68 68 67 67 68 68 69 69 70 70 70 70 71 71 71 71 71 71 70 70 70 71 71 71 69 69 69 68
57 44 47 48 50 53 65 64 73 74 73 75 75 73 77 75 75 72 69 67 66 67 66 66 67 67 66 67 69 70 70 70 70 70 70 69 70 70 70 70 68 69 69 70 70 69 69 68 67
51 44 51 57 59 57 65 66 69 67 68 70 70 73 76 75 74 70 68 66 66 66 65 66 66 66 66 70 67 67 68 67 67 68 68 68 68 68 70 69 68 69 69 69 68 68 68 67 64
51 50 58 61 62 63 62 62 68 65 63 68 68 70 73 73 73 71 70 70 69 68 68 67 67 67 67 68 66 66 66 65 65 66 67 67 67 67 67 68 68 67 68 66 66 65 64 63 63
47 58 59 61 63 61 60 66 64 64 66 73 72 72 73 73 71 71 70 70 68 68 69 68 68 68 68 67 66 66 66 65 65 66 67 66 66 65 66 66 67 66 64 63 63 62 62 62 63
50 55 59 62 61 63 66 62 63 65 72 73 75 72 71 74 73 74 74 73 71 70 70 69 69 68 69 68 67 67 66 66 66 66 67 66 65 65 65 65 65 65 64 63 62 61 61 61 62
54 55 57 59 60 62 61 62 64 68 71 71 71 68 68 69 69 69 71 72 71 72 70 71 70 71 70 69 68 67 67 67 66 67 67 66 66 65 65 65 65 65 65 64 63 62 62 61 61
54 48 54 56 58 57 62 55 57 68 69 70 70 68 68 70 68 71 71 70 73 74 72 70 70 70 69 70 68 67 68 67 66 67 66 66 66 66 65 64 64 64 65 64 62 61 62 60 62
46 45 39 52 56 59 55 47 61 68 66 67 66 67 68 68 70 69 71 70 70 75 72 71 73 70 70 68 69 68 68 67 66 66 68 67 66 66 65 64 64 64 63 64 63 63 63 62 62
42 33 37 43 54 53 52 49 61 66 66 66 69 65 67 67 68 70 71 69 68 73 74 70 70 69 70 69 69 67 67 67 66 65 65 68 65 66 65 64 64 64 63 63 63 63 64 62 61
33 34 37 38 48 51 49 50 59 63 62 65 68 68 63 65 70 72 71 72 74 67 74 72 70 70 70 67 66 65 65 65 66 65 65 66 66 65 64 64 64 63 62 63 64 64 63 62 62
40 38 36 41 48 48 48 50 50 51 59 64 64 61 68 69 71 73 75 71 69 65 71 71 69 68 68 66 65 64 65 64 64 65 66 65 66 65 65 64 63 62 62 63 63 62 61 60 61
41 37 34 43 49 47 44 42 48 51 54 54 56 57 59 64 71 74 72 65 62 63 70 70 69 67 68 70 69 67 67 65 65 64 65 66 65 65 65 64 63 62 61 61 63 62 60 61 61
39 38 37 36 44 49 44 41 46 55 56 59 60 61 63 65 62 63 61 59 60 60 61 66 66 66 69 70 67 63 62 62 62 62 63 64 65 65 65 64 63 62 62 62 62 62 61 59 61
32 44 39 37 37 31 41 28 40 47 50 57 60 58 59 58 58 57 55 54 54 56 59 61 65 66 66 65 66 65 65 63 66 67 65 64 64 64 64 62 62 62 63 63 63 63 62 61 59
39 46 39 40 37 35 37 31 36 47 46 51 55 54 53 53 52 50 50 52 52 53 53 57 57 61 63 64 65 64 66 66 62 63 63 64 63 63 64 62 62 62 63 63 63 62 62 62 61
48 41 42 39 36 26 37 32 35 44 47 51 50 50 49 48 47 48 49 50 49 50 50 53 52 55 57 60 65 66 64 62 62 62 62 64 64 63 63 63 62 63 62 62 62 63 62 62 62
42 36 23 21 22 25 39 33 40 48 51 50 45 44 45 45 43 43 43 43 46 47 47 50 49 49 52 53 61 65 64 64 63 62 62 61 61 61 62 62 61 61 62 62 62 62 62 62 61
36 37 27 21 24 29 41 32 39 44 45 45 45 43 43 41 41 41 42 43 43 45 45 45 46 48 50 50 55 65 66 64 64 63 63 62 61 61 61 61 60 60 60 61 61 61 61 61 60
38 34 41 35 32 25 34 40 43 44 42 40 39 40 39 40 41 41 42 42 43 43 43 43 45 46 49 50 52 62 66 63 64 64 62 61 61 60 59 60 59 59 59 60 60 60 60 60 60
41 44 33 29 19 16 31 33 34 35 36 37 37 38 39 40 40 40 41 41 42 42 43 43 45 44 47 49 54 62 65 64 64 63 61 61 60 59 58 58 58 59 59 59 60 60 60 60 60
39 35 37 39 34 24 25 28 38 35 36 34 35 37 38 38 39 39 40 41 42 42 42 42 43 43 45 48 55 61 61 60 61 62 61 61 60 59 58 58 58 58 58 59 59 59 60 59 59
43 40 41 30 29 32 31 26 35 37 37 37 36 38 38 38 38 38 38 39 39 39 40 41 41 42 44 46 50 59 60 59 59 60 60 61 59 59 58 58 59 58 58 58 58 57 58 59 59

GFSSGP_sfc_temp_111.txt.gz
Temp
61 62 62 62 50 42 37 46 50 55 60 65 69 67 69 67 67 59 70 74 73 72 72 73 73 74 74 75 74 75 75 76 76 75 75 75 75 75 75 75 76 76 77 78 78 78 78 77 75
62 67 61 53 42 34 41 48 54 59 66 70 71 70 68 68 72 68 70 72 73 72 72 73 73 73 74 74 74 74 75 75 75 75 75 75 75 75 75 75 75 76 77 78 78 77 76 75 74
64 67 55 48 37 37 42 49 55 62 68 66 67 70 69 69 72 71 73 72 72 71 72 72 72 73 73 74 74 74 74 74 74 75 75 75 75 75 75 74 75 76 77 78 78 77 75 73 72
62 59 53 42 39 44 49 54 56 61 68 68 65 67 74 77 73 76 73 72 70 70 71 71 71 72 73 73 73 73 73 73 73 74 75 75 75 75 75 74 75 76 77 77 77 75 73 72 71
57 52 43 37 40 48 54 57 56 57 63 66 67 66 68 75 76 74 72 73 69 68 69 70 70 71 73 73 73 73 73 72 73 73 74 75 75 75 73 73 74 75 75 76 75 73 72 72 71
52 50 37 38 48 51 55 61 59 62 64 67 68 64 68 73 73 73 72 70 69 68 69 70 71 71 71 72 72 72 72 72 72 73 73 74 74 73 73 73 73 73 73 73 73 72 72 71 71
48 43 39 43 44 49 56 63 61 64 64 64 71 66 66 69 74 73 71 68 67 68 68 68 69 71 70 70 70 70 71 71 72 72 72 72 71 71 72 72 72 72 72 72 72 71 71 70 70
52 45 38 45 49 50 60 66 67 64 65 73 70 63 62 70 72 70 68 66 66 66 67 67 67 68 68 68 69 69 70 70 70 71 71 70 70 71 71 70 71 71 71 71 71 70 70 69 68
53 42 44 44 46 50 60 58 67 69 66 68 69 69 72 72 70 68 65 64 64 65 65 66 67 66 66 66 68 70 70 70 70 70 70 68 69 69 70 69 69 70 70 70 69 69 69 68 67
49 39 48 54 54 55 61 63 64 62 64 64 66 72 70 71 69 66 65 64 64 64 64 66 66 66 66 68 66 66 68 68 68 69 69 68 68 68 69 69 68 68 69 69 69 68 68 66 64
48 48 54 55 58 59 57 56 60 59 59 63 64 67 68 68 69 68 68 67 66 66 65 65 66 66 66 67 67 65 65 65 65 66 67 67 67 67 67 67 66 65 67 65 66 65 63 62 62
44 53 53 56 60 56 53 57 58 60 63 67 69 69 70 69 69 69 68 68 66 65 66 65 66 66 66 66 67 66 65 64 64 65 66 66 66 66 67 68 67 66 65 64 63 62 62 62 62
47 51 55 57 56 56 59 57 58 60 68 69 69 70 68 69 70 72 73 70 68 66 67 66 66 66 66 66 66 65 64 64 64 65 66 66 66 65 67 67 67 66 64 63 61 61 61 61 61
51 51 51 54 54 55 54 56 56 62 68 66 67 68 66 67 71 71 70 68 67 69 67 67 66 67 67 66 66 66 65 64 64 65 66 66 66 65 66 66 66 65 64 62 62 61 60 60 60
50 44 48 50 49 50 55 50 52 61 64 64 64 68 65 66 68 70 70 70 69 70 69 68 67 67 67 67 66 66 66 66 65 65 65 65 65 64 65 65 65 65 63 62 61 60 60 59 60
44 43 36 48 48 51 48 41 55 61 59 61 64 64 69 68 67 69 68 70 70 71 69 68 70 68 67 67 67 67 67 66 65 65 66 65 65 65 64 64 64 63 63 63 61 61 61 62 61
39 32 35 40 50 48 46 42 53 58 59 60 63 63 68 66 66 67 69 70 72 72 71 68 69 67 67 68 68 67 67 66 65 66 66 65 65 65 64 63 63 63 62 62 62 62 62 61 61
31 31 33 33 42 45 43 44 51 57 57 57 60 64 68 67 67 70 68 70 70 68 72 70 69 68 68 67 66 64 65 65 65 65 66 66 66 65 64 63 62 62 62 62 62 61 63 63 62
37 35 33 38 41 41 41 42 46 52 54 53 53 60 60 66 67 67 67 64 62 64 69 69 67 67 68 66 65 64 64 65 64 65 66 66 65 64 64 63 62 62 62 62 62 63 62 61 61
37 33 34 39 44 40 39 39 46 51 52 56 56 55 55 57 63 60 57 57 56 55 60 65 67 66 68 67 68 67 67 64 65 65 64 66 65 65 64 63 62 62 62 62 63 62 61 61 61
36 33 33 33 41 44 40 33 41 51 53 56 56 57 56 54 53 55 53 50 51 51 53 61 64 66 67 67 67 63 63 62 60 64 64 64 65 65 65 64 64 62 63 62 63 62 62 59 60
30 41 39 36 32 24 39 24 39 45 48 52 55 50 48 48 48 49 49 48 48 48 51 55 63 66 67 67 67 64 66 64 64 64 66 66 65 64 65 65 64 63 63 63 63 62 62 61 59
36 43 40 39 35 30 31 26 33 43 42 44 45 45 44 44 44 44 46 46 47 47 47 52 55 56 57 64 66 65 64 66 61 62 61 63 64 64 64 64 64 63 64 64 63 62 62 62 61
46 40 39 37 32 22 31 31 32 38 42 40 41 40 41 41 41 42 44 46 45 45 45 48 50 52 53 54 59 64 64 64 61 62 61 61 62 63 64 64 63 63 63 62 63 63 62 62 61
39 33 22 22 15 21 36 31 36 39 41 41 39 39 40 40 40 39 39 41 42 42 43 46 46 48 49 51 53 57 64 62 63 63 64 62 61 61 62 63 62 62 63 63 63 62 62 61 61
35 34 26 17 22 28 39 28 33 39 40 41 41 40 40 40 41 41 41 41 41 42 43 43 44 46 48 49 50 52 57 64 63 62 63 63 63 64 62 62 63 63 62 62 61 61 61 62 61
37 31 41 30 33 27 33 35 37 38 36 35 36 38 37 38 39 39 41 41 41 42 42 43 44 46 47 48 50 52 53 63 65 62 62 62 62 61 61 62 61 61 61 61 60 60 60 60 61
40 43 32 31 22 14 30 29 28 31 33 33 32 34 36 37 38 39 39 40 41 41 42 43 43 44 46 46 48 51 54 60 65 65 61 61 61 60 60 60 60 59 59 59 59 59 59 59 60
36 34 36 37 31 20 20 25 34 32 33 32 32 33 34 35 35 36 38 39 40 41 40 40 41 42 43 45 46 49 56 61 64 63 62 61 61 59 59 59 59 59 58 58 58 59 59 59 59
40 39 39 28 28 31 28 25 34 35 35 34 33 33 34 36 37 36 37 37 37 38 39 39 39 40 42 44 45 46 48 51 60 61 61 60 60 60 60 59 58 58 58 58 58 57 58 58 58

GFSSGP_sfc_temp_114.txt.gz
Temp
60 60 61 60 49 42 36 45 47 51 54 60 65 64 65 65 65 57 68 72 71 71 72 72 73 74 74 74 75 75 75 76 76 75 75 76 76 76 76 76 76 77 78 78 78 78 78 77 76
61 64 60 51 41 34 40 45 49 55 61 65 68 66 63 66 70 67 68 72 73 71 71 72 73 73 74 74 74 75 76 76 75 75 75 75 75 75 75 75 75 76 77 78 78 78 77 75 74
63 64 55 47 35 36 41 49 53 59 64 62 64 65 67 68 71 70 72 71 72 71 72 72 72 72 73 74 74 74 75 74 74 75 75 75 75 75 75 74 74 76 77 78 78 78 75 73 72
61 58 51 42 37 42 49 50 52 58 63 64 61 62 71 74 72 74 71 71 71 70 71 71 71 72 73 73 74 74 74 73 73 74 75 75 76 75 75 74 74 76 77 77 77 76 73 72 71
56 50 42 35 38 46 51 53 54 56 59 60 62 61 64 73 74 72 70 71 69 69 69 70 70 71 73 73 73 73 73 72 73 74 74 74 75 75 74 73 74 75 76 76 75 73 72 71 71
51 48 36 37 42 48 53 57 58 59 60 63 62 60 65 71 71 68 69 68 69 68 69 70 71 71 72 72 72 72 72 72 72 73 73 74 74 73 73 73 73 74 74 73 73 72 71 71 70
48 42 36 36 41 46 53 60 58 60 61 60 64 60 66 70 71 69 66 65 66 67 69 70 71 71 71 70 70 70 71 71 72 72 72 72 71 71 72 72 73 73 72 72 72 71 71 70 70
51 44 34 38 42 45 58 62 63 62 62 69 69 60 60 69 69 66 65 63 64 65 68 69 71 69 69 70 69 69 70 70 71 71 71 70 70 71 71 71 72 72 72 71 71 70 70 70 69
50 39 36 41 44 45 57 56 63 66 63 66 66 64 69 70 67 64 62 62 63 65 67 69 69 69 67 67 69 70 70 70 70 70 70 68 69 69 69 69 70 71 71 70 70 69 69 68 68
46 35 42 51 52 51 56 59 61 59 62 59 64 67 67 67 64 64 63 62 62 63 65 67 68 68 67 68 69 69 71 71 70 69 69 68 68 68 68 68 68 69 69 69 69 69 67 66 64
41 42 48 52 53 54 48 54 59 58 56 60 61 63 66 65 65 64 64 65 65 65 64 67 68 68 68 69 68 68 69 68 68 67 67 66 67 67 66 65 65 65 67 65 65 65 63 62 63
41 47 49 50 53 51 48 54 53 55 59 64 65 67 67 66 65 65 65 65 63 64 64 65 66 66 67 68 68 68 67 66 66 67 67 67 67 67 67 65 64 64 63 63 63 62 62 61 62
45 47 51 50 50 50 54 51 52 54 61 65 66 67 67 64 66 68 71 68 65 63 64 64 65 65 66 66 68 67 67 65 65 65 67 67 67 67 67 67 65 66 65 64 62 61 61 61 61
46 47 48 47 47 48 49 49 50 56 60 60 61 61 65 66 65 69 69 70 65 66 65 65 64 65 66 65 67 66 65 63 64 65 67 66 66 66 68 67 66 66 65 62 62 61 60 60 60
47 40 47 48 45 46 49 45 46 54 57 58 60 61 64 67 63 66 71 69 69 69 68 65 65 65 65 65 64 65 65 64 64 65 66 65 65 65 67 66 65 65 64 61 61 60 60 60 60
40 39 34 44 44 48 42 36 49 53 54 54 57 60 62 65 65 66 70 72 71 70 67 67 68 65 65 65 65 65 65 64 64 64 66 65 65 65 65 66 65 65 63 61 60 61 60 60 61
34 30 33 38 46 44 41 38 48 51 53 53 56 58 60 62 67 66 67 71 72 70 69 67 67 65 66 66 66 65 65 65 64 64 65 65 64 64 64 65 65 64 63 63 62 61 60 59 61
29 29 30 31 42 43 39 38 45 50 50 51 53 56 59 59 64 69 64 68 72 70 71 69 68 67 67 67 67 67 66 66 65 65 65 64 65 64 63 63 62 63 63 63 62 62 62 60 61
36 33 29 36 43 39 38 38 42 46 48 48 50 53 56 57 65 60 58 56 59 60 67 69 66 66 67 67 66 66 65 65 65 65 65 65 64 64 63 62 62 63 63 63 62 62 62 61 62
34 31 30 37 43 40 37 36 42 45 46 48 49 52 55 54 53 54 51 49 49 50 54 62 66 66 67 69 69 67 68 68 67 66 65 65 64 64 64 63 62 63 63 62 62 62 61 61 61
34 31 32 32 38 40 36 32 37 45 48 50 53 56 50 49 47 49 49 46 45 45 48 54 63 65 67 68 67 63 64 63 63 65 64 64 64 64 64 64 63 62 63 62 62 62 62 59 60
27 39 37 35 32 23 36 21 34 41 43 47 42 40 40 41 43 44 44 44 43 44 48 50 56 63 66 68 67 66 65 64 66 66 66 65 64 65 65 64 63 63 63 63 63 63 62 62 59
34 41 37 36 32 30 30 25 29 43 42 38 38 39 39 39 39 39 41 43 43 44 46 48 54 54 54 57 67 66 65 64 62 63 65 65 65 65 65 65 64 63 63 64 63 62 62 62 62
43 37 36 35 29 21 30 27 27 34 37 38 39 39 40 40 40 41 42 43 42 43 45 48 51 51 52 53 55 62 65 64 61 62 63 64 64 64 64 65 65 65 64 63 63 63 62 62 62
37 31 21 20 21 21 33 26 29 35 38 37 37 38 39 40 40 40 40 41 43 43 44 46 47 48 50 51 52 53 55 65 63 62 63 63 63 62 63 63 63 64 64 64 64 63 62 62 61
33 33 26 18 20 26 35 27 28 35 37 37 38 38 39 38 39 39 40 40 41 42 42 44 45 46 48 49 50 53 54 55 63 63 63 62 63 63 65 64 63 64 63 63 63 63 62 62 61
34 29 39 28 30 25 30 31 34 37 34 34 33 36 36 37 38 38 39 40 40 40 41 41 43 44 46 47 49 50 52 54 57 63 62 61 61 62 60 63 62 63 63 63 62 62 60 60 61
39 42 29 29 22 20 27 26 25 29 30 31 31 32 34 36 36 37 38 39 40 40 41 42 42 42 44 45 47 49 50 54 55 60 62 62 61 60 60 61 62 62 62 62 61 61 61 60 60
34 32 35 34 30 23 20 23 33 30 31 30 31 32 33 34 34 35 36 37 39 40 40 39 40 40 42 43 45 46 47 49 54 59 63 62 62 60 60 61 61 61 61 60 60 59 59 58 58
39 36 37 29 27 30 27 22 33 34 33 33 31 31 32 33 33 33 34 35 35 37 38 37 38 38 40 42 43 44 45 46 47 49 50 62 61 61 61 60 60 59 59 59 58 58 58 58 58

GFSSGP_sfc_temp_117.txt.gz
Temp
71 72 75 74 65 61 57 60 60 64 65 72 73 73 74 78 72 71 81 80 79 79 80 78 73 74 75 75 75 75 76 76 76 76 76 76 76 76 76 76 76 77 78 79 78 78 78 78 76
72 73 73 66 60 54 59 61 60 68 71 72 74 75 74 74 81 83 80 80 81 81 80 80 73 74 74 75 75 75 76 76 76 76 76 76 76 76 76 75 75 77 78 78 78 79 78 76 74
72 72 70 64 54 56 59 62 64 67 70 71 72 77 76 76 81 81 83 80 80 80 80 79 73 73 74 74 74 75 75 75 75 75 76 76 76 76 76 75 75 76 77 78 79 78 76 74 73
72 72 64 58 53 56 60 64 63 67 72 71 73 72 78 85 82 84 80 80 79 79 80 74 71 72 73 74 74 74 74 73 74 74 75 76 76 76 75 74 75 76 77 78 78 76 74 72 71
68 66 58 52 51 56 62 64 66 67 69 70 72 71 73 84 83 81 78 79 78 78 79 77 71 72 73 74 74 74 73 73 73 74 74 75 75 75 74 74 74 75 76 76 75 73 72 71 71
66 62 53 51 53 57 64 69 67 67 69 71 70 70 75 82 81 77 76 77 77 77 77 77 72 71 72 73 73 72 72 72 73 73 74 74 74 74 74 73 74 74 74 74 73 72 71 71 70
61 58 52 51 52 56 63 70 65 67 68 71 75 70 78 81 80 77 75 74 75 75 75 75 76 75 70 70 70 70 71 72 72 72 72 73 72 72 73 73 73 73 72 72 72 71 70 70 70
62 59 50 52 54 56 64 68 70 68 68 76 77 69 71 78 77 74 74 73 73 72 73 73 74 75 76 75 69 69 70 70 71 71 71 70 71 71 72 72 72 72 72 72 71 70 70 70 69
61 54 50 53 54 58 65 63 71 73 69 71 73 73 77 76 73 72 71 70 68 69 71 72 72 73 74 74 73 71 70 70 70 72 70 70 78 78 76 74 70 71 71 71 70 70 69 68 68
58 50 51 58 60 58 60 60 62 63 64 66 69 75 75 77 77 73 72 72 69 68 69 71 71 71 71 73 73 74 75 77 77 77 77 77 77 77 77 73 69 70 69 69 69 68 68 69 77
54 51 54 57 59 57 57 57 63 60 58 64 61 65 70 72 75 76 74 73 73 73 71 69 70 71 71 72 72 71 73 73 74 76 76 76 75 74 75 77 77 75 71 77 75 74 76 75 75
49 53 54 55 57 55 54 58 56 58 59 65 67 69 69 70 72 75 77 76 75 73 73 70 71 70 70 73 71 71 71 71 71 74 75 73 71 71 74 77 76 75 75 74 76 76 74 73 74
50 53 54 55 55 57 57 55 55 56 63 66 67 67 68 69 72 75 78 80 78 74 73 71 69 69 70 70 71 70 69 69 71 71 72 74 71 70 73 74 75 75 73 73 73 75 73 72 73
52 53 52 53 54 55 52 55 54 58 63 62 63 64 67 68 70 73 75 77 76 77 74 72 68 69 70 69 70 70 69 70 70 71 71 71 72 70 71 71 72 73 73 69 73 74 72 72 72
51 46 51 53 54 52 55 49 52 60 61 60 61 63 66 68 70 71 74 75 78 79 78 72 71 70 69 69 70 69 69 71 73 71 70 70 71 70 70 69 70 72 71 68 72 71 71 71 71
47 47 40 50 53 54 51 40 53 59 57 56 59 61 62 65 68 71 74 75 79 80 78 74 74 71 70 70 69 69 70 73 74 72 70 69 70 71 70 69 69 71 67 67 69 67 68 70 70
41 37 39 43 52 50 48 42 52 57 55 53 56 59 61 63 66 70 73 75 78 81 79 75 73 71 71 71 71 71 71 73 74 73 70 68 70 71 69 69 68 67 67 66 67 65 68 66 69
36 36 39 38 47 47 44 43 50 55 54 53 55 57 59 61 64 68 71 73 74 79 78 77 73 72 72 72 70 72 70 72 73 73 73 69 69 69 70 68 68 67 66 64 66 66 68 69 71
41 37 36 41 46 42 42 43 47 51 52 52 54 55 57 59 64 68 66 61 60 71 75 76 73 72 71 71 68 68 66 68 69 74 73 70 69 69 69 67 66 66 65 65 65 65 64 65 69
39 35 35 41 46 44 42 41 47 50 50 52 53 54 56 58 61 65 57 55 55 56 61 73 73 73 71 73 71 71 68 70 70 70 70 70 70 69 69 67 65 65 65 64 64 64 62 63 65
38 35 36 36 42 44 41 39 44 51 53 54 55 53 55 52 55 52 52 51 52 52 55 60 69 73 71 71 70 69 69 68 66 68 68 68 71 69 69 68 67 66 65 64 64 64 64 61 62
32 42 40 38 35 30 42 26 41 46 47 44 44 42 41 43 46 47 48 48 48 50 53 58 60 69 70 69 69 67 68 65 68 69 69 67 69 69 70 69 68 66 66 65 64 64 64 65 61
40 43 41 40 36 34 37 28 37 42 34 35 36 39 40 41 42 43 44 46 47 49 50 53 56 56 57 64 68 66 67 69 69 68 66 67 67 68 69 68 67 66 66 67 66 65 64 65 66
46 41 41 40 35 25 35 32 35 30 31 33 34 38 39 40 41 42 44 45 45 47 48 50 54 54 54 56 57 65 68 68 66 67 65 66 67 66 67 68 67 67 67 68 67 66 65 65 65
41 38 29 28 27 26 34 28 29 33 34 33 32 34 37 39 39 40 40 41 42 42 44 48 51 50 51 52 54 54 55 60 66 67 68 66 66 65 66 66 65 66 67 66 68 67 66 65 63
40 39 30 20 25 28 34 27 28 35 37 35 35 33 35 36 38 39 39 39 40 41 42 43 47 48 50 52 52 55 55 55 57 66 68 68 67 66 67 65 66 66 66 66 66 66 65 65 64
39 34 43 30 33 27 30 30 33 36 34 34 33 33 32 33 35 36 38 39 40 40 40 41 42 44 46 48 49 51 52 53 56 57 63 66 68 67 66 66 65 65 65 65 64 64 64 63 63
43 45 31 32 24 23 28 26 24 28 30 31 30 30 31 33 33 35 37 38 39 40 41 41 42 42 43 45 47 48 50 51 53 57 57 62 64 66 65 65 64 64 64 64 64 64 64 62 62
41 37 35 35 34 27 25 24 32 30 30 29 29 30 31 31 32 33 35 37 38 39 39 39 39 41 41 42 44 45 46 48 49 51 56 55 63 63 63 63 63 63 62 63 62 63 63 62 61
44 40 37 29 29 33 27 23 33 33 32 31 30 30 31 31 32 32 33 35 35 36 37 37 37 38 40 41 42 42 43 45 46 46 48 51 52 63 63 62 62 62 63 63 62 61 61 61 60

GFSSGP_sfc_temp_120.txt.gz
Temp
77 87 90 86 73 74 71 75 80 76 77 83 83 81 81 84 80 77 95 93 90 92 89 81 74 75 75 75 75 75 76 76 77 76 76 76 76 76 76 76 76 76 78 79 79 79 79 78 76
88 84 86 84 69 67 73 79 74 79 81 83 84 84 82 80 89 92 95 91 92 93 90 87 73 74 75 75 75 75 76 76 76 76 76 76 76 76 76 76 76 77 78 79 79 79 79 76 75
83 84 80 76 71 67 71 76 77 79 80 81 80 86 84 82 91 92 97 89 91 93 91 88 73 73 74 74 75 75 75 75 75 76 76 76 76 76 76 75 75 76 78 78 79 78 76 74 73
84 83 80 68 67 73 73 77 76 79 83 81 82 80 87 92 90 93 93 90 90 92 91 77 72 73 74 74 75 75 74 74 74 75 76 76 77 76 76 75 75 76 77 78 78 76 74 73 72
86 82 69 66 69 73 77 80 81 78 79 80 82 78 81 91 94 94 91 89 89 90 90 83 71 72 74 74 75 74 74 73 74 74 75 76 76 76 75 74 75 75 76 77 75 74 73 72 71
77 77 66 65 70 73 75 80 80 78 80 79 78 79 81 92 89 90 90 88 89 88 87 85 73 72 72 73 73 73 73 73 73 74 74 75 74 74 74 74 74 75 75 74 73 73 72 71 71
71 71 66 68 66 69 73 81 76 76 76 78 83 75 84 89 88 88 87 86 86 86 84 85 82 78 71 71 71 71 72 72 72 73 73 73 72 72 73 73 74 74 73 73 72 72 71 71 70
75 71 66 67 65 68 77 76 80 76 74 81 83 75 76 85 88 89 88 84 83 83 82 83 84 83 82 80 70 70 71 71 71 72 71 71 71 72 72 72 73 73 73 72 72 71 70 70 69
74 65 63 67 66 69 75 71 77 79 74 78 80 79 83 84 86 86 87 86 82 81 82 82 82 80 84 84 79 71 71 71 70 72 71 71 84 82 79 77 71 72 71 71 71 70 70 69 69
69 65 65 70 70 67 68 67 69 70 71 73 75 80 81 81 82 80 81 84 84 81 80 82 79 76 78 79 81 81 82 83 82 82 81 83 84 84 84 77 70 70 70 70 70 69 68 70 83
68 62 69 67 68 67 67 67 72 67 65 72 70 72 76 78 79 80 82 84 86 86 84 79 76 75 75 80 78 80 80 85 83 81 82 82 81 81 83 83 81 80 72 81 77 76 82 83 84
57 66 64 66 68 65 63 67 64 66 67 73 74 75 75 75 77 79 81 83 85 87 84 83 80 75 73 84 81 83 77 79 79 80 79 79 79 78 81 83 82 80 82 83 83 83 83 82 82
60 62 64 64 64 64 65 63 64 64 71 74 74 74 74 76 78 80 82 84 86 85 87 83 81 77 74 79 83 80 77 76 77 77 79 80 76 78 82 83 81 79 82 82 82 82 81 81 81
62 61 61 64 63 64 60 62 64 67 71 70 70 71 73 73 75 78 79 81 83 84 86 84 81 78 75 79 80 77 76 76 76 76 76 79 77 77 82 81 82 80 82 83 81 81 82 81 82
61 55 62 64 63 60 63 56 62 69 70 66 68 70 70 71 74 74 77 78 81 84 86 84 81 78 75 74 80 80 75 74 75 75 75 75 76 75 80 78 81 80 79 78 79 80 82 81 81
56 57 52 61 62 62 58 49 63 68 66 64 67 68 69 71 73 75 77 78 81 83 84 85 85 79 76 75 79 77 77 73 79 78 74 73 74 75 74 75 74 78 74 75 78 78 79 80 80
54 49 52 55 62 58 55 51 62 68 65 63 66 67 69 70 72 75 78 79 80 83 83 83 85 81 77 78 78 78 77 78 83 84 75 73 73 72 73 73 74 74 72 71 75 75 78 77 78
48 48 52 52 59 58 55 53 60 64 64 63 65 66 67 68 70 73 75 77 80 82 82 82 84 82 79 80 79 80 80 81 84 84 82 74 72 72 72 72 72 71 71 70 69 71 77 77 77
50 48 48 54 59 52 51 53 58 62 63 62 63 64 65 67 72 73 73 75 76 77 75 78 80 83 81 79 78 79 78 80 81 84 82 79 72 71 72 71 70 70 70 69 68 69 71 72 75
49 46 47 53 55 53 53 52 60 61 60 57 56 57 58 60 65 69 71 73 69 68 69 74 80 83 82 81 82 82 80 80 82 83 82 80 72 71 72 71 70 69 69 69 68 66 67 69 70
49 47 48 47 53 56 53 52 55 58 56 54 53 52 52 53 54 59 62 63 63 64 65 69 76 84 82 79 80 81 81 80 78 79 80 77 76 72 71 71 70 69 69 68 68 67 67 66 66
43 53 50 48 46 41 52 36 51 51 50 48 47 43 40 41 44 49 50 51 53 55 57 64 69 70 76 73 76 74 77 74 76 78 79 75 74 77 72 72 70 69 68 69 68 69 67 69 63
47 53 49 48 45 45 48 40 50 48 40 40 41 40 37 39 40 42 44 46 48 48 50 56 59 56 57 71 73 71 77 79 79 78 76 73 71 75 75 73 71 70 70 70 69 66 66 67 68
53 49 50 50 46 36 44 39 43 34 32 36 37 39 37 36 38 40 42 44 44 45 46 51 54 52 54 57 64 69 67 74 76 73 72 70 70 69 70 76 72 71 71 70 69 68 68 67 68
49 46 39 36 35 39 47 39 32 34 36 35 33 34 37 35 35 36 38 40 42 41 43 47 50 50 52 54 56 59 59 63 71 73 72 69 68 66 68 71 70 70 70 71 69 68 69 69 69
48 45 37 24 31 37 45 35 33 40 40 37 37 33 36 34 34 34 34 38 39 41 41 43 45 46 50 51 54 56 57 57 59 62 65 73 70 69 70 69 69 70 70 70 72 70 71 71 70
46 42 49 35 39 31 38 34 34 44 39 36 33 33 32 33 33 32 34 37 38 40 39 40 43 44 46 48 52 52 54 54 55 57 59 59 69 69 70 67 66 66 67 68 69 70 67 69 69
50 51 37 36 26 27 33 29 28 30 30 31 30 30 31 32 32 32 33 35 37 39 39 39 42 42 43 46 48 50 51 52 53 55 57 59 59 64 67 66 65 67 66 66 65 67 66 65 66
46 42 42 39 39 30 30 27 32 30 30 29 29 30 30 31 30 31 32 34 35 38 39 38 40 41 42 43 44 45 47 48 49 50 52 54 56 56 64 65 65 65 65 63 62 63 64 64 64
51 44 39 32 34 37 32 27 34 34 33 32 30 30 31 31 31 31 31 32 33 34 36 37 38 39 40 42 42 42 43 44 45 45 47 50 52 53 57 64 65 64 64 64 62 62 63 63 62

GFSSGP_sfc_temp_123.txt.gz
Temp
78 90 96 91 75 77 75 80 88 82 83 89 89 86 84 88 83 78 104 99 98 99 91 81 74 75 75 76 75 75 76 77 77 76 76 76 76 76 76 76 76 77 79 79 79 79 79 78 77
93 91 91 85 71 71 76 87 81 84 87 88 88 88 87 84 93 95 97 99 98 99 94 88 73 74 75 75 75 75 76 77 76 76 76 76 76 76 76 76 76 77 78 79 79 79 79 77 75
86 91 82 78 74 70 75 83 83 85 86 85 85 90 88 86 93 94 98 97 95 98 95 90 73 74 75 75 75 75 75 75 75 76 76 76 76 76 76 75 75 77 78 78 79 78 77 75 74
88 87 84 71 70 79 80 84 84 84 88 88 87 83 91 96 92 96 98 96 94 97 96 75 72 73 74 75 75 75 74 74 74 75 76 76 77 76 76 75 75 77 77 78 78 77 75 73 73
89 84 73 71 73 80 85 86 86 84 86 86 86 81 85 95 96 95 94 95 92 94 95 84 71 72 74 75 75 75 74 74 74 75 75 76 76 76 75 75 75 76 77 77 77 75 74 73 72
79 82 69 69 75 83 85 84 84 83 85 85 84 83 85 97 92 93 93 91 93 93 92 88 74 72 73 74 74 73 73 73 74 74 74 75 75 74 74 74 75 75 75 75 74 73 73 72 72
74 75 70 72 73 77 81 87 82 80 80 82 86 77 86 92 90 92 94 91 89 90 90 90 83 78 71 71 71 72 72 72 73 73 73 74 73 73 74 74 74 74 74 74 73 72 72 72 71
77 75 68 72 71 73 83 82 84 81 78 86 87 77 79 87 89 91 91 91 88 87 87 87 85 84 83 81 71 71 71 71 72 72 72 71 71 72 73 73 73 74 73 73 72 71 71 71 70
81 67 66 70 72 75 82 76 81 84 79 81 84 83 87 90 89 88 87 88 89 87 86 86 86 86 85 85 80 72 71 71 71 73 71 72 84 82 79 77 72 72 72 72 71 71 70 69 69
72 69 69 78 75 72 74 73 75 75 76 77 80 86 88 86 84 83 83 85 85 87 87 86 86 86 86 88 84 81 82 82 81 82 80 82 84 85 84 78 71 71 71 71 70 70 69 69 82
72 66 73 73 75 74 71 72 76 72 69 75 74 77 80 82 81 81 83 86 87 88 90 87 84 80 78 86 87 85 86 84 84 83 83 83 85 82 84 79 80 80 72 79 76 75 80 82 80
63 71 72 73 73 70 67 71 69 71 71 77 77 79 79 79 80 81 82 85 87 88 89 91 86 79 75 82 84 85 88 87 86 85 82 83 84 80 81 83 82 80 80 81 81 81 82 82 80
66 69 71 71 71 70 71 67 67 68 75 78 78 77 76 78 80 83 84 84 86 85 87 88 88 82 80 78 86 84 85 84 87 85 81 83 83 81 82 82 82 79 80 82 79 81 79 77 78
69 67 68 70 70 72 68 69 69 71 77 76 76 75 76 77 78 80 80 80 81 84 85 87 87 85 83 80 83 84 86 83 80 78 79 81 81 81 81 82 82 81 80 80 80 77 77 81 81
67 61 68 71 70 67 70 62 67 75 76 74 74 75 76 76 79 77 79 79 81 83 85 84 84 86 81 81 82 85 85 82 77 77 77 79 79 81 84 79 80 77 81 77 77 77 79 77 78
63 65 59 70 70 69 66 55 69 75 72 71 72 74 74 76 77 79 80 81 82 83 82 84 87 86 83 79 81 85 85 81 78 76 75 75 76 78 81 83 82 79 76 79 77 78 78 76 75
64 57 60 63 71 67 64 59 70 74 71 69 71 72 73 74 77 79 80 81 82 83 82 82 83 84 84 80 80 83 83 81 82 82 78 74 74 75 78 83 80 81 79 77 77 78 77 75 74
55 56 58 57 66 66 61 61 67 71 70 67 68 68 68 68 70 73 76 80 81 82 81 81 82 83 82 77 79 82 83 82 83 85 85 77 73 74 74 75 74 76 75 71 76 75 77 76 74
57 55 55 61 66 59 59 61 65 70 66 62 62 61 61 61 64 66 69 73 76 77 77 79 78 80 82 77 74 78 79 81 82 87 87 78 73 72 73 74 74 73 73 73 72 73 75 74 76
56 53 55 61 63 60 59 59 66 66 62 60 58 58 56 53 54 57 59 63 69 68 71 74 75 75 78 84 78 77 82 83 85 87 86 84 75 72 74 72 72 71 72 70 71 71 71 73 74
56 54 54 54 59 61 60 57 61 65 64 59 58 56 54 48 46 47 49 52 58 59 61 66 68 73 75 78 80 75 83 83 84 85 85 83 79 72 72 73 71 70 71 70 71 70 70 70 73
49 60 56 54 51 45 59 42 58 56 54 52 53 51 47 47 47 43 43 44 48 50 54 56 61 68 72 70 71 73 79 81 82 84 85 85 82 74 72 72 71 70 70 69 71 72 71 70 65
52 58 54 54 51 50 52 48 56 53 43 44 46 45 43 44 44 41 40 40 43 46 46 48 53 60 61 62 64 75 72 83 84 84 83 83 80 79 74 72 71 69 69 70 71 70 71 72 69
59 54 56 57 54 41 52 49 47 37 35 39 41 41 41 40 41 44 42 40 40 43 44 45 49 53 53 57 68 78 72 78 75 80 81 80 77 78 78 75 72 71 70 69 70 70 70 70 70
56 52 41 40 38 39 53 48 36 44 43 40 37 37 40 40 38 39 36 35 36 39 41 43 47 49 50 53 56 57 70 71 75 66 71 70 68 71 76 77 74 71 70 70 70 69 68 70 67
52 52 41 29 34 39 51 40 33 47 47 44 43 37 40 38 37 34 32 34 34 37 38 42 44 45 47 50 52 54 55 60 62 59 60 66 69 69 72 73 73 72 71 70 69 69 68 69 67
51 47 54 40 45 37 42 38 42 46 43 39 36 37 34 35 34 32 32 33 33 34 34 39 42 44 45 46 49 51 52 56 56 58 59 60 61 64 70 71 69 69 68 68 69 67 71 70 69
54 58 41 40 28 30 40 31 31 31 31 32 31 31 32 34 33 32 32 32 33 33 36 40 42 42 43 45 47 48 49 51 51 51 53 54 57 59 59 68 70 67 66 67 67 67 68 67 67
52 47 45 45 42 31 31 29 34 31 31 30 31 31 31 32 31 31 31 32 33 34 34 38 43 42 41 43 43 44 46 47 47 47 48 51 55 54 55 61 66 66 66 64 64 64 65 65 64
54 48 47 33 36 34 34 28 37 36 36 34 31 31 31 32 31 31 31 32 32 32 34 37 37 40 41 43 43 43 44 43 43 43 45 48 50 51 50 52 52 59 64 65 63 62 63 64 65

GFSSGP_sfc_temp_126.txt.gz
Temp
74 85 88 87 70 72 68 76 88 82 83 87 88 84 82 85 81 73 95 94 95 89 83 79 74 75 76 76 76 76 76 77 76 76 76 76 76 76 76 76 76 77 79 79 79 79 79 78 76
78 86 88 80 67 63 70 83 80 82 85 88 88 87 85 82 90 91 89 93 95 94 83 83 74 75 75 75 75 76 77 77 76 76 76 76 76 76 76 76 76 77 78 79 79 79 79 77 75
80 89 77 73 69 63 69 81 82 85 87 86 85 89 87 84 90 90 92 93 94 95 89 83 73 74 75 75 75 75 76 76 76 76 76 76 76 76 76 76 76 77 78 78 78 78 77 75 74
84 84 79 67 65 75 77 83 85 84 87 88 87 81 90 95 91 92 93 93 92 94 91 72 72 73 74 75 75 75 75 74 75 75 76 76 76 76 76 75 76 77 77 78 78 77 75 74 73
86 79 67 66 69 77 83 86 86 81 83 86 86 80 83 93 93 92 91 90 88 89 81 78 71 73 74 75 75 74 74 74 74 74 75 76 76 76 75 75 75 76 76 77 77 75 74 73 72
74 77 63 61 70 79 84 86 84 82 83 84 82 81 84 89 87 88 88 87 87 86 84 78 73 73 73 74 74 73 73 73 74 74 74 75 75 74 74 74 74 75 75 75 74 74 73 72 72
70 67 63 66 67 72 79 87 81 79 79 79 83 75 83 84 87 88 86 83 85 85 83 79 78 75 71 71 71 71 72 72 73 73 73 73 73 73 74 74 74 74 74 74 73 72 72 72 71
76 70 62 65 65 68 78 80 83 79 75 84 85 73 75 86 87 87 86 82 82 85 84 83 80 78 77 75 71 71 71 71 72 72 72 72 72 72 73 72 73 74 73 73 72 72 71 71 70
79 62 60 65 68 70 77 72 78 81 77 79 82 82 85 89 87 83 81 80 80 82 83 81 78 79 78 78 76 71 72 71 71 72 71 69 76 74 73 74 72 72 71 72 72 71 70 70 69
71 63 65 74 74 70 73 72 73 72 72 73 76 82 84 84 82 79 78 77 77 79 80 82 80 77 79 83 77 75 76 75 74 75 74 75 76 76 78 75 71 71 71 71 70 70 69 68 72
72 63 71 73 75 74 71 70 74 68 65 70 69 72 77 78 78 78 79 79 79 81 81 80 79 77 78 79 77 77 77 76 76 76 76 75 78 76 76 72 73 72 70 71 70 68 71 72 73
66 71 72 73 74 71 68 71 68 69 69 75 75 76 76 75 76 77 77 79 79 78 79 79 81 76 76 78 77 78 78 77 77 77 76 75 76 75 74 74 74 73 72 73 72 71 72 73 74
67 69 72 73 72 71 72 68 68 68 75 78 78 77 76 76 76 77 79 79 78 76 75 74 77 76 76 75 77 77 77 78 78 77 77 77 76 73 75 74 75 75 74 73 72 73 73 73 72
70 69 68 70 70 71 68 68 69 70 77 76 76 75 76 76 76 76 77 76 75 76 75 72 74 75 76 74 74 75 77 78 77 79 77 77 76 74 74 74 74 74 74 73 74 73 72 72 73
69 61 65 69 72 69 71 63 65 74 76 73 73 74 75 75 77 75 76 75 76 77 78 72 70 71 75 75 75 76 77 79 77 77 76 76 76 75 75 74 73 74 74 73 73 72 72 72 73
61 63 56 69 72 72 68 54 68 75 73 70 72 72 73 73 72 71 69 70 73 76 76 74 78 73 70 75 76 77 78 79 77 76 75 76 76 75 75 75 74 74 73 73 71 71 70 70 70
63 54 59 63 72 68 66 58 69 74 72 70 68 66 66 65 66 64 65 66 66 68 69 72 72 71 70 70 74 74 76 76 76 75 75 74 75 75 75 74 74 74 72 72 72 70 69 68 70
55 55 58 56 65 66 62 60 67 71 71 64 63 62 62 60 59 60 60 61 61 63 63 65 66 71 70 70 72 72 72 73 76 75 75 75 74 74 74 75 74 73 72 71 71 69 70 69 68
58 55 54 59 66 62 58 59 63 69 66 61 60 58 57 56 58 58 57 56 56 57 58 60 60 64 70 71 68 69 69 70 73 77 76 75 74 73 73 73 71 71 71 70 69 69 68 67 68
56 53 53 60 65 62 59 57 64 68 60 58 56 54 53 52 52 53 52 51 50 51 53 54 56 58 60 66 71 68 69 70 74 76 77 76 74 73 73 73 71 70 71 69 69 70 67 67 68
56 54 54 54 59 61 58 56 61 59 58 56 55 52 50 48 47 47 49 48 48 47 48 51 52 53 56 59 65 67 64 69 69 74 76 75 74 72 72 72 72 71 71 69 69 69 68 65 67
50 61 58 54 51 43 58 40 54 58 52 50 48 46 45 45 46 46 45 45 45 45 47 48 49 50 53 56 58 60 58 58 69 73 77 75 73 72 71 72 71 72 70 70 69 70 68 69 65
54 59 55 54 50 49 51 46 43 52 42 43 44 43 42 43 43 42 42 42 43 43 43 44 46 47 50 52 56 54 55 58 65 73 76 76 72 72 71 71 70 70 69 69 69 68 68 68 66
60 55 54 55 52 40 50 43 33 35 39 41 41 40 40 41 41 40 40 39 39 41 40 40 41 45 48 51 52 54 56 58 61 71 74 76 73 70 70 71 69 69 69 69 68 69 68 68 67
57 50 38 37 38 38 52 46 37 43 43 41 37 36 38 40 38 37 35 35 36 36 37 37 38 42 46 47 51 54 57 59 63 69 74 74 72 70 68 69 68 68 69 69 68 68 67 67 67
54 51 39 29 31 37 50 39 34 46 44 42 40 37 37 37 37 35 32 33 34 35 35 35 36 40 44 46 50 51 53 56 57 56 61 65 66 68 70 68 69 68 68 67 67 67 67 67 66
51 46 54 41 43 35 42 38 44 44 40 38 35 35 33 35 35 33 32 33 33 32 32 33 35 40 43 45 47 48 48 50 52 52 53 57 57 59 59 65 67 68 68 67 66 66 65 65 65
54 58 42 42 28 29 40 33 31 31 31 33 31 31 32 34 33 33 32 32 33 32 32 34 36 38 41 43 44 45 45 47 48 50 49 50 51 52 54 55 62 65 65 65 66 65 66 65 65
50 47 47 45 41 31 29 28 35 31 31 31 31 31 31 32 31 32 32 32 33 33 32 32 35 37 39 41 41 41 42 43 43 44 45 46 47 48 49 50 50 51 55 60 63 64 65 65 65
55 50 47 35 35 36 32 29 38 36 35 34 31 32 32 32 31 31 32 32 32 32 33 32 34 37 36 41 40 40 41 41 41 40 42 43 43 43 44 45 46 46 45 46 48 50 58 61 62

GFSSGP_sfc_temp_129.txt.gz
Temp
65 70 68 67 55 51 46 57 64 68 68 70 77 77 71 71 71 59 81 84 81 78 76 76 74 75 75 75 75 75 76 76 76 75 75 75 76 76 76 76 76 77 78 79 78 78 78 77 76
64 73 69 62 49 42 49 63 62 69 73 77 80 77 75 72 80 78 77 84 84 80 76 75 74 74 75 75 75 75 76 76 76 75 75 76 76 76 76 76 75 77 78 78 78 78 78 76 75
69 75 61 55 49 46 49 64 66 73 78 75 73 79 77 74 80 79 80 83 84 80 79 76 73 73 74 74 75 75 75 75 75 75 76 76 76 76 76 75 75 76 77 78 79 78 77 75 74
69 66 63 51 51 59 63 70 74 70 75 80 75 71 77 80 79 80 82 85 81 81 80 72 72 73 74 74 74 75 74 74 74 74 75 76 76 76 75 75 75 76 77 78 78 77 75 73 73
65 60 50 47 54 63 71 75 72 71 72 74 75 69 70 78 82 80 79 81 79 76 75 74 71 72 74 75 74 74 74 73 73 74 74 75 75 75 75 74 75 75 76 76 76 75 73 72 72
59 58 47 45 56 66 70 72 73 73 73 74 72 71 69 77 78 77 77 76 79 77 75 74 73 73 73 73 73 73 73 73 73 73 73 74 74 74 74 74 74 74 75 75 74 73 73 72 72
54 50 44 50 56 62 68 71 69 70 71 70 71 67 70 74 76 76 75 75 73 78 74 72 72 73 72 71 71 71 72 72 72 72 72 73 73 72 73 73 73 74 74 73 73 72 71 71 71
59 53 48 52 56 59 68 72 73 71 70 78 76 67 65 70 75 75 74 73 73 75 76 72 71 71 70 70 70 70 71 71 71 72 71 71 71 72 72 72 73 73 73 73 72 71 71 71 70
61 47 44 51 54 59 68 66 74 73 71 73 74 73 74 78 75 72 70 69 70 71 71 73 72 72 72 71 71 71 71 71 70 71 71 69 71 71 72 72 71 72 71 71 71 70 70 70 69
56 46 51 61 60 59 66 66 67 64 64 66 69 74 76 77 74 67 66 66 67 70 70 71 71 72 72 77 71 69 71 69 70 71 70 70 70 71 73 71 70 70 70 70 70 70 69 67 67
56 50 59 62 64 65 59 61 64 60 57 63 63 66 69 70 69 68 69 69 68 70 68 68 72 71 71 72 70 70 70 69 70 70 70 70 72 71 71 69 71 69 69 69 68 69 68 68 67
52 61 62 62 65 60 57 61 60 60 62 67 68 69 68 68 67 67 67 68 70 70 70 70 68 72 70 71 70 71 72 71 70 70 70 70 70 69 69 69 69 69 68 67 67 67 67 67 69
55 59 64 64 63 61 64 59 59 61 66 68 70 68 65 65 64 68 67 66 67 68 70 70 70 67 72 70 71 69 71 72 72 71 71 71 70 69 69 69 70 69 68 68 67 67 68 67 68
60 60 59 60 61 62 61 59 56 64 68 66 66 62 63 63 59 58 59 59 61 62 62 63 66 70 68 70 70 70 70 72 72 73 73 72 71 69 70 70 70 70 70 69 69 68 68 67 68
61 53 56 60 60 59 62 51 55 64 66 63 61 60 60 61 58 56 56 55 56 58 59 60 61 63 64 68 71 72 71 71 69 73 73 73 71 69 70 70 69 70 71 68 69 67 67 66 69
51 50 43 58 60 62 59 45 60 64 62 59 56 58 58 58 56 56 57 54 54 54 54 57 60 60 60 62 67 70 69 71 71 71 71 73 73 71 69 70 69 70 69 69 68 66 65 68 69
47 39 45 51 61 58 55 46 55 62 63 56 53 54 55 54 54 55 55 53 52 51 51 52 54 55 56 57 60 66 71 70 70 69 71 70 72 71 72 71 69 70 69 66 68 65 66 65 68
42 42 41 42 52 56 51 48 56 61 57 52 50 50 50 49 50 53 53 52 52 50 50 50 51 52 54 54 57 60 66 68 70 71 70 71 71 71 71 69 68 70 69 68 67 66 64 64 64
51 47 43 46 56 54 50 47 52 52 50 47 46 45 45 45 49 50 50 49 50 49 48 48 47 49 50 51 51 53 55 63 66 69 73 72 71 71 71 68 68 69 68 68 68 65 65 63 64
51 46 44 50 58 53 48 46 49 51 48 45 43 42 42 43 44 46 46 46 45 45 45 46 46 46 48 49 50 51 53 58 61 67 71 71 72 71 71 71 69 70 69 67 66 66 63 64 64
49 47 46 48 52 51 49 44 43 48 49 48 45 43 42 41 40 41 41 41 41 41 42 44 45 44 45 47 49 51 52 56 57 61 66 71 71 72 71 71 70 67 68 67 67 66 66 63 63
42 55 53 49 44 33 48 30 42 44 43 43 41 38 38 38 39 39 38 37 37 38 40 41 41 41 44 45 46 46 47 50 54 57 61 66 71 71 71 72 71 69 68 67 67 68 66 65 62
49 54 50 49 42 39 42 34 36 44 37 37 38 37 36 37 37 37 36 36 37 37 39 40 40 40 42 44 46 48 49 51 52 55 59 61 67 71 71 72 71 72 70 68 68 68 69 67 66
57 50 48 48 43 27 42 41 31 30 33 34 36 35 35 36 38 38 37 36 35 36 36 37 37 39 40 43 46 46 46 48 50 53 56 58 62 68 71 71 71 71 70 69 69 69 68 68 67
51 41 27 25 25 28 45 35 27 35 35 35 33 33 36 37 36 34 32 32 34 34 34 35 35 36 38 41 45 46 48 51 52 53 56 59 58 61 69 70 69 69 69 69 68 67 67 67 66
46 44 31 22 21 26 43 29 26 37 39 38 37 35 36 35 33 32 31 32 33 33 33 34 35 35 38 41 43 46 49 51 55 55 57 58 55 55 68 68 68 68 68 67 67 66 66 66 65
47 40 49 36 36 23 29 34 38 39 35 36 34 34 32 32 31 30 31 32 33 32 32 33 34 35 36 39 43 44 45 47 51 53 52 55 52 55 57 67 66 67 66 66 65 65 64 65 65
49 52 34 33 20 21 29 26 23 25 29 32 30 30 32 32 30 30 30 31 32 32 33 34 35 34 35 37 40 42 43 44 46 46 46 49 53 52 49 51 56 62 63 65 65 64 64 64 64
46 42 42 40 34 20 14 23 34 28 26 28 30 31 31 28 28 29 30 31 33 33 33 33 33 33 33 35 37 39 40 41 42 42 42 43 46 46 45 47 47 48 49 51 54 58 61 64 64
52 47 44 28 28 27 27 21 35 34 33 33 31 32 27 28 27 29 31 31 32 32 32 32 32 32 33 33 33 37 39 39 38 38 39 41 41 42 41 42 42 42 45 46 48 49 52 54 54

GFSSGP_sfc_temp_132.txt.gz
Temp
62 65 64 65 55 48 43 54 58 62 64 67 74 72 67 67 66 56 77 80 78 74 74 75 74 75 75 75 75 75 75 76 76 75 75 75 76 76 76 76 76 77 78 78 78 78 78 77 76
63 71 66 58 47 40 46 57 61 67 71 73 76 72 70 66 75 75 74 80 79 76 74 74 74 74 75 74 75 75 76 76 75 75 75 76 76 76 76 75 75 76 77 78 78 78 78 76 74
68 70 59 51 43 42 47 58 63 71 74 72 69 71 68 66 76 75 77 78 78 76 76 75 73 73 74 74 74 74 75 74 75 75 75 76 76 76 76 75 75 76 77 78 78 78 76 74 73
66 63 58 49 45 52 56 62 65 66 71 73 70 64 72 76 75 75 77 78 77 77 77 71 71 72 74 74 74 74 74 73 74 74 75 76 76 76 75 74 75 76 77 77 77 76 74 72 72
61 55 47 42 45 55 61 66 65 65 66 70 70 63 67 75 76 74 74 76 74 73 73 73 69 71 73 74 74 74 73 73 73 74 74 75 75 75 74 74 74 75 75 76 76 74 73 72 71
56 53 43 40 46 58 62 63 66 67 68 70 70 66 66 73 73 72 74 72 73 72 72 73 73 72 72 73 73 72 72 72 72 73 73 74 74 74 74 73 73 74 74 74 74 73 72 72 71
52 47 42 44 48 54 61 66 66 68 68 69 72 64 66 70 72 74 71 71 70 72 71 71 71 72 72 71 71 70 71 71 72 72 72 72 72 72 73 73 73 73 73 73 73 72 71 71 71
54 50 41 44 48 49 62 66 67 67 65 74 74 64 60 67 71 71 73 70 71 69 69 70 69 70 70 70 70 70 70 70 70 71 71 70 71 71 72 71 72 73 72 72 72 71 70 70 70
56 45 40 44 50 53 61 61 67 68 66 69 69 67 71 73 69 67 65 68 68 67 66 67 70 69 69 69 71 71 71 70 70 70 70 69 71 71 71 71 71 71 71 71 71 70 69 69 69
52 42 46 55 53 55 62 62 61 60 61 61 64 69 71 71 67 63 63 62 65 68 67 65 66 69 70 73 70 69 70 70 71 71 71 71 69 70 72 70 69 70 70 70 70 69 68 68 67
48 48 54 58 57 58 53 55 60 56 54 60 61 64 67 67 65 60 58 58 57 60 60 61 64 62 66 69 69 68 68 68 69 69 71 70 70 69 70 69 70 69 69 69 68 67 69 67 66
48 56 56 58 59 55 53 56 58 55 61 64 64 64 64 57 54 56 55 55 56 57 57 58 60 61 62 63 68 68 68 68 68 69 69 70 69 68 68 68 68 69 69 67 67 68 67 66 66
51 54 59 59 58 55 60 55 56 58 64 64 65 59 54 54 53 54 54 54 54 54 55 55 57 58 59 61 63 67 68 68 69 69 70 70 69 68 68 68 68 69 68 67 66 66 66 66 66
55 55 55 56 57 56 55 56 56 62 64 62 56 53 52 52 52 52 51 50 51 53 52 53 54 56 56 57 58 60 67 69 68 69 70 70 70 69 68 68 68 68 68 67 66 66 65 65 65
57 51 53 55 56 55 57 49 53 62 62 54 53 53 52 52 51 50 50 49 49 50 51 51 52 53 53 54 55 56 59 66 68 69 70 70 71 69 69 68 68 68 68 67 66 65 65 64 66
49 47 41 54 55 57 57 44 56 60 56 49 49 49 49 49 49 50 50 49 49 49 49 50 52 50 50 51 52 54 55 60 66 68 70 70 71 71 69 69 69 69 68 67 66 66 65 65 65
42 36 41 48 55 54 50 45 55 57 52 47 44 44 45 46 47 48 49 48 48 48 48 48 48 47 48 48 50 52 54 55 63 67 67 71 71 71 71 70 69 68 68 67 67 66 66 64 65
38 38 37 41 50 49 44 45 51 48 45 42 40 41 42 43 44 47 46 47 46 45 46 45 46 47 47 46 48 50 51 52 54 59 67 70 72 71 70 70 69 68 68 67 67 66 65 65 67
46 44 41 43 52 47 47 43 42 42 41 39 39 39 39 40 44 45 45 44 43 42 42 42 43 44 44 43 43 45 45 48 50 56 61 67 70 72 70 69 68 69 68 68 67 66 65 62 63
47 44 42 46 53 49 43 38 40 42 41 39 38 37 37 38 40 42 42 41 40 39 39 40 41 42 42 42 43 44 45 47 50 52 58 64 64 69 71 70 68 69 69 67 66 66 62 64 64
47 44 43 44 46 47 44 38 38 43 43 42 40 39 38 36 36 38 39 38 37 36 37 38 39 40 41 42 42 44 45 47 48 52 55 59 63 64 70 69 69 68 68 67 66 67 66 63 61
42 52 49 46 40 32 43 26 36 39 38 37 37 35 34 35 37 37 36 35 35 36 37 37 39 40 42 42 42 40 41 42 47 50 53 54 60 62 65 69 69 68 68 67 67 68 67 67 64
46 51 47 44 39 35 39 29 32 41 35 33 34 34 34 35 35 34 34 34 35 36 36 38 39 39 40 40 41 41 42 46 49 50 50 52 55 60 62 60 66 69 68 68 68 67 67 67 66
53 47 45 43 39 25 38 35 28 28 30 33 33 33 34 34 34 34 35 35 36 36 38 37 37 38 40 40 40 41 42 44 46 47 48 51 54 57 60 61 58 67 68 67 67 67 67 66 67
50 38 26 25 23 26 42 33 26 31 33 32 31 32 32 33 32 31 31 32 34 34 35 36 36 35 38 38 38 40 43 45 46 48 50 51 52 56 58 59 58 58 67 68 68 68 68 67 66
45 42 29 23 21 26 42 31 25 35 37 36 35 33 35 31 32 31 30 31 32 34 34 34 34 34 36 36 37 40 44 45 46 50 51 52 54 55 54 55 55 61 63 69 67 67 67 67 66
46 40 47 34 34 24 29 30 35 36 34 33 32 34 32 31 31 30 29 30 32 33 32 33 33 34 36 36 36 38 41 43 45 47 51 52 55 56 52 52 52 59 63 67 68 66 64 65 66
48 51 33 29 20 22 27 28 23 28 28 30 29 30 29 30 29 29 29 30 32 33 33 34 33 34 35 36 36 37 38 40 42 44 44 46 50 51 48 48 51 49 62 66 65 65 65 64 64
42 39 40 39 32 24 19 24 33 29 24 26 30 31 24 25 27 29 29 30 32 33 33 33 33 33 33 34 35 36 36 38 40 40 41 42 43 45 45 45 45 46 48 54 61 61 62 63 63
48 43 43 29 31 28 23 22 32 30 31 33 32 29 24 26 26 29 28 30 31 32 32 32 32 32 32 33 33 34 35 35 36 38 39 39 38 39 41 42 41 41 44 45 48 50 50 51 50

GFSSGP_sfc_temp_138.txt.gz
Temp
61 61 61 63 53 47 40 47 51 58 59 63 65 63 59 61 61 53 74 75 74 72 72 73 73 75 75 75 75 75 75 76 76 76 76 76 76 76 76 76 76 77 78 78 78 78 78 77 76
60 67 63 54 46 40 44 52 53 56 62 65 66 63 62 60 68 69 70 75 74 73 72 72 73 74 74 74 74 75 75 75 75 75 76 76 76 76 76 75 75 76 77 78 78 78 78 76 75
63 65 58 47 39 39 42 54 55 59 65 62 61 64 63 63 70 69 72 74 75 73 74 73 72 73 74 74 74 74 74 74 74 75 76 76 76 76 75 75 74 76 77 78 78 78 76 74 73
63 61 54 46 41 45 47 55 57 58 64 65 61 59 67 68 68 70 71 73 72 72 73 71 71 72 74 74 74 74 74 73 74 74 75 76 76 76 75 74 74 75 77 77 78 76 74 73 72
57 52 44 41 41 48 52 57 56 59 59 61 61 57 61 69 71 69 67 68 69 67 68 71 70 71 72 73 74 73 73 72 73 73 74 75 75 75 74 73 73 75 76 76 76 75 73 72 71
54 50 41 38 43 50 54 55 57 60 61 63 62 59 59 68 65 63 63 62 62 61 62 64 67 68 69 71 71 71 71 70 72 73 73 74 74 74 74 73 73 73 74 74 74 73 72 72 71
50 45 39 40 44 48 53 58 58 59 59 61 60 57 59 63 61 61 59 59 59 58 59 59 60 63 64 67 69 69 70 71 71 70 72 72 72 72 72 73 73 72 72 72 73 72 71 71 71
50 47 37 39 44 44 56 58 58 59 58 65 62 56 53 57 59 59 58 56 57 56 55 55 57 58 58 60 65 66 70 69 70 70 70 70 70 71 71 71 72 72 72 72 72 71 70 70 70
49 44 38 40 43 46 54 53 61 60 58 62 61 58 58 59 59 56 54 54 53 54 53 53 53 55 55 59 61 61 64 69 70 69 68 67 69 69 70 70 70 71 71 71 71 70 69 69 69
48 41 41 48 48 47 54 54 57 53 56 54 54 56 56 55 53 50 48 48 49 50 50 51 51 51 52 58 55 54 58 62 68 69 70 68 69 71 69 70 69 70 70 70 70 69 68 68 67
43 44 46 50 51 53 48 49 52 50 48 53 52 49 50 50 49 47 47 47 46 49 49 49 50 50 49 51 52 52 52 53 58 66 69 69 70 69 70 69 69 68 68 68 68 67 67 67 66
45 49 49 52 51 51 48 51 51 50 48 50 50 49 48 45 45 45 45 45 45 47 47 48 49 49 49 49 49 48 49 51 52 54 60 68 68 68 68 69 70 70 70 69 68 67 68 69 65
44 48 52 54 53 51 54 52 50 45 48 49 49 47 45 44 43 44 45 45 45 44 45 46 47 47 47 47 48 48 47 48 49 51 54 61 67 68 69 69 69 69 70 70 68 68 69 67 65
48 48 49 51 51 51 52 49 51 47 49 47 45 42 41 42 42 42 42 42 42 44 43 45 45 46 45 45 46 46 47 47 48 49 52 55 59 67 68 68 68 68 70 69 69 69 68 67 65
49 45 48 49 49 47 51 43 41 47 47 43 41 41 42 43 41 40 41 40 41 41 42 43 44 44 43 43 44 45 45 46 46 48 50 52 56 59 66 68 67 68 70 69 68 68 67 66 65
43 42 39 49 50 51 47 39 41 44 42 38 39 40 41 41 41 41 42 41 41 40 40 42 44 42 42 42 42 43 44 44 45 46 48 50 52 56 59 66 67 68 68 68 67 67 65 65 65
40 34 37 43 48 48 49 41 39 42 42 38 35 36 38 38 40 41 42 41 41 40 40 40 41 40 40 41 41 42 42 43 44 45 46 47 50 53 56 58 67 68 67 67 67 66 66 65 65
36 35 33 38 46 46 42 40 38 38 38 35 33 34 35 36 38 41 41 41 40 39 39 39 40 40 40 41 41 41 41 42 43 43 44 46 48 51 52 54 59 67 67 67 67 66 65 66 65
42 38 36 40 48 42 42 39 36 35 35 33 33 32 33 34 38 40 40 39 38 38 38 38 38 40 39 39 39 40 39 41 43 44 45 45 46 48 49 51 57 64 64 66 67 66 65 64 64
42 38 36 42 47 45 42 37 35 37 36 33 32 31 32 33 35 37 37 36 35 36 36 38 39 39 41 41 41 41 41 42 43 45 46 47 47 49 51 53 57 60 62 60 66 65 64 64 64
40 38 38 40 42 43 39 34 32 36 36 36 34 33 33 32 32 34 34 34 34 34 36 38 39 40 40 41 40 41 41 42 41 43 44 45 47 48 49 52 53 56 60 64 65 65 65 63 63
36 46 44 41 36 29 39 26 33 32 32 33 32 30 30 31 32 32 32 32 32 35 38 39 39 39 40 40 39 38 36 36 39 40 44 46 47 48 50 51 51 54 59 61 64 65 65 65 62
41 47 44 41 35 31 32 25 27 33 30 32 30 31 30 31 30 30 31 32 34 37 38 38 38 39 39 39 39 37 36 38 39 40 41 45 47 49 49 49 50 52 57 58 62 63 63 64 64
47 43 40 36 33 23 35 32 28 28 31 31 32 30 31 31 31 31 32 32 33 36 37 37 37 37 38 38 38 37 36 36 37 39 40 44 47 48 50 50 50 55 56 56 58 62 60 61 64
42 35 25 23 22 25 35 29 32 30 31 32 29 30 31 30 29 29 29 29 31 33 34 36 35 35 36 37 37 37 37 36 36 38 39 41 44 47 50 52 51 53 56 57 59 60 61 58 62
38 37 27 21 18 24 35 27 28 33 35 35 34 30 30 28 28 27 27 28 29 31 32 33 34 34 35 36 36 37 37 36 36 38 38 40 43 46 50 52 52 54 56 56 57 60 60 61 58
40 33 42 31 31 20 26 31 30 33 32 31 29 30 26 27 26 25 26 27 28 29 29 31 33 34 35 35 35 35 36 35 35 36 37 38 41 44 47 52 53 53 51 54 57 58 59 60 59
42 45 29 27 22 22 26 23 25 27 29 27 22 24 24 26 25 25 24 26 28 29 29 31 32 33 34 34 34 34 34 34 34 34 34 35 38 41 44 47 47 49 49 50 55 56 58 59 59
38 34 35 34 31 21 16 19 32 27 27 25 24 23 22 21 21 22 23 24 26 28 29 30 30 30 30 33 33 33 32 34 32 32 32 33 36 37 39 43 43 44 44 45 52 55 57 58 55
41 36 35 24 26 29 24 23 32 32 30 30 28 24 21 22 20 19 22 22 24 27 29 29 30 29 30 31 31 31 31 32 31 30 31 31 33 35 36 39 40 41 41 42 43 43 43 43 42

GFSSGP_sfc_temp_141.txt.gz
Temp
68 72 75 77 69 66 59 61 65 66 66 71 72 71 67 69 66 62 82 78 79 79 80 80 74 75 75 75 75 75 76 76 76 76 76 76 76 76 76 76 76 77 78 79 78 78 78 78 77
71 74 76 69 64 60 59 63 62 65 71 71 73 72 70 65 75 76 76 77 80 80 80 80 73 74 74 75 75 75 76 76 76 76 76 76 76 76 76 76 75 76 78 78 78 78 78 77 75
73 73 74 64 58 57 58 64 63 67 70 71 69 73 70 68 75 74 74 76 75 73 76 72 70 72 73 74 74 74 75 75 75 75 76 76 76 76 76 75 74 76 77 78 78 78 77 75 74
73 75 68 63 57 60 63 66 65 67 71 73 71 67 74 73 73 71 72 73 71 70 71 68 68 69 70 73 73 74 73 74 74 74 75 76 76 76 75 74 74 76 76 77 78 77 75 73 72
70 69 61 57 57 62 66 67 69 67 68 69 71 65 67 71 71 69 68 68 66 66 66 67 66 67 68 69 69 71 72 72 73 73 74 75 75 75 74 73 74 75 76 76 76 75 74 72 72
68 66 59 56 56 62 66 69 69 68 69 69 69 68 65 69 68 66 65 63 63 61 62 63 64 64 64 66 67 67 69 71 72 72 72 73 74 74 74 73 73 73 74 74 74 74 73 72 71
64 62 55 54 56 60 65 69 67 67 68 68 73 65 66 66 65 65 63 62 61 59 58 59 60 61 61 63 64 65 66 68 70 71 71 71 70 71 73 73 72 72 72 73 72 73 72 72 71
63 63 54 55 56 58 67 69 69 69 67 73 73 65 62 62 64 65 64 60 60 58 57 56 57 58 59 62 62 62 63 65 67 70 71 69 69 69 70 72 72 72 71 72 72 71 71 71 70
64 60 56 56 56 60 68 66 70 70 69 64 59 58 58 60 62 62 61 60 58 58 56 55 55 56 56 60 61 60 61 62 64 66 69 71 76 79 80 74 71 71 71 70 71 70 70 69 69
63 59 56 60 62 62 64 64 66 67 65 61 59 58 58 58 58 56 55 53 54 54 55 56 54 54 55 59 57 58 61 62 63 64 61 66 74 76 76 73 68 68 69 69 69 69 68 69 80
58 59 58 61 62 62 62 63 66 64 61 58 59 52 53 54 54 54 54 53 52 53 54 54 53 53 53 54 56 57 58 59 60 61 61 60 64 73 74 73 72 74 71 77 74 75 78 79 79
57 58 59 61 61 60 61 65 62 58 50 53 53 52 52 51 50 50 50 51 51 52 52 52 52 52 51 53 55 55 56 57 58 58 58 59 61 60 71 74 74 72 75 75 77 78 78 78 77
56 57 59 62 59 58 61 62 58 48 51 52 51 51 49 49 49 50 51 52 51 50 50 50 51 51 51 51 52 53 53 55 54 56 57 58 60 60 62 69 74 71 71 73 73 73 75 76 72
56 56 57 58 59 58 57 57 59 49 52 50 49 48 48 48 48 49 49 48 48 49 49 49 49 50 49 49 49 51 52 53 54 55 55 55 57 58 61 62 68 70 71 71 72 73 72 73 71
56 53 56 58 58 58 59 53 46 50 50 47 47 48 48 47 49 47 47 47 47 48 48 47 48 49 48 48 49 50 51 51 52 53 53 54 55 56 57 60 63 67 69 70 70 71 72 71 69
52 51 50 58 58 58 59 49 48 51 49 45 45 46 46 46 46 48 48 48 48 47 46 47 47 47 47 47 48 49 50 50 51 52 52 51 52 53 55 58 60 65 68 70 68 68 68 68 68
49 48 47 51 57 58 58 50 48 48 48 44 43 44 44 45 46 47 47 47 47 46 45 45 46 46 46 47 48 49 49 50 51 51 52 51 51 52 53 56 60 61 59 67 69 67 67 66 66
43 44 46 46 54 55 52 51 45 45 46 42 42 42 42 43 43 45 46 46 46 45 45 45 46 46 46 47 48 49 49 50 50 50 51 51 50 51 52 54 55 57 57 58 67 67 66 67 67
48 44 44 48 53 49 49 50 44 44 43 41 40 41 42 42 44 46 45 45 44 44 44 45 44 45 46 45 44 43 42 45 47 49 49 50 49 49 49 51 54 56 58 58 65 67 65 64 66
46 44 44 48 52 49 50 49 44 43 41 41 40 41 41 42 43 43 44 43 42 42 44 44 44 44 45 44 42 42 42 43 45 47 48 49 49 48 48 49 50 55 59 59 60 66 64 64 65
45 43 43 44 49 51 48 48 41 41 40 40 40 40 40 39 39 40 41 41 42 42 43 43 43 44 43 42 42 42 42 43 42 44 45 46 47 48 49 49 50 53 56 57 59 63 59 56 61
41 50 49 46 44 40 48 38 44 40 38 38 38 38 38 39 40 40 40 40 40 41 43 43 43 42 43 41 39 38 37 36 39 41 42 44 46 47 49 51 49 49 52 56 60 61 61 61 59
46 51 48 47 44 41 43 39 42 38 37 38 38 37 38 38 38 38 38 39 40 41 41 42 42 41 40 40 40 39 37 38 40 41 40 42 45 47 50 50 51 49 53 55 58 60 61 62 63
52 48 46 43 42 34 42 41 42 40 40 39 37 36 37 37 38 38 39 39 39 41 40 41 41 40 40 39 40 39 37 37 36 37 38 40 42 44 47 50 50 51 53 55 59 62 64 64 64
49 43 36 33 32 33 40 38 44 40 39 40 35 35 36 36 37 36 36 36 37 37 38 39 39 38 39 38 38 38 37 36 35 36 36 37 39 42 44 46 49 51 55 57 60 61 62 64 63
45 44 36 24 28 33 44 35 43 39 39 38 38 33 35 35 35 34 31 33 35 36 36 37 37 38 38 37 38 39 38 36 36 35 35 36 37 39 43 45 46 50 55 58 59 61 61 64 61
45 40 47 37 38 30 37 40 36 37 35 35 35 35 32 33 33 31 31 33 34 32 32 34 35 37 37 36 37 37 37 35 34 34 36 35 37 38 41 43 46 52 56 57 57 60 62 63 62
49 50 37 37 24 25 33 33 36 31 34 33 30 30 29 31 31 31 30 31 33 31 32 34 36 34 35 36 36 36 35 35 35 35 35 34 35 36 38 40 42 45 47 49 53 56 62 63 63
43 40 40 40 37 27 25 32 37 33 33 32 31 30 29 29 28 29 29 31 31 32 32 32 32 31 31 33 33 34 33 33 34 32 33 32 34 34 37 38 38 41 43 44 49 55 59 62 61
45 41 40 32 29 31 29 31 39 39 38 37 32 30 29 30 28 27 29 30 30 31 31 31 31 30 30 31 31 31 31 31 31 30 31 31 32 34 34 36 36 37 39 41 41 42 43 44 44

GFSSGP_sfc_temp_144.txt.gz
Temp
81 90 92 89 78 79 71 71 78 75 75 81 82 82 77 78 72 68 81 82 84 83 82 81 72 74 75 76 76 76 77 77 77 77 76 76 76 76 76 76 76 77 79 79 79 78 79 79 78
89 87 90 89 74 71 70 74 73 76 78 81 81 82 79 71 81 76 78 75 83 77 76 73 70 72 73 73 75 76 76 77 78 77 76 76 76 76 76 76 76 76 78 79 79 79 79 78 77
86 88 85 81 78 73 70 73 76 77 78 79 77 82 78 71 79 79 80 79 82 80 78 72 68 69 71 71 72 73 74 75 76 76 77 77 77 77 77 76 75 76 78 78 79 79 78 76 75
90 89 85 75 70 70 73 75 76 77 79 81 81 74 77 78 78 77 79 80 78 77 78 71 66 67 69 69 69 70 71 72 74 75 76 77 77 77 76 75 75 76 77 78 78 77 76 74 74
92 87 77 73 69 72 76 77 79 77 76 78 80 73 71 74 77 77 76 76 74 74 74 75 65 65 66 67 67 68 69 70 72 73 74 75 76 76 75 75 74 75 76 77 76 76 75 74 73
83 83 72 69 69 72 76 78 78 77 77 77 77 75 70 77 74 74 74 72 71 70 70 71 69 66 65 65 65 65 66 67 68 71 72 73 74 75 74 74 74 74 75 75 75 74 74 73 72
78 78 72 70 69 70 73 78 75 75 76 76 80 72 71 72 73 75 74 72 70 68 67 67 69 68 66 66 64 63 65 66 66 67 70 71 71 71 72 73 73 74 74 74 74 73 73 72 72
82 79 69 71 68 67 74 76 77 76 73 81 78 72 69 70 72 74 75 72 70 68 66 65 66 67 67 69 65 64 65 65 66 68 67 66 69 70 71 72 72 72 72 73 73 72 71 71 71
79 73 70 67 68 70 76 73 76 79 76 71 70 68 67 69 72 74 73 72 70 68 66 65 64 65 65 69 68 66 67 67 67 69 68 70 74 80 84 79 74 72 72 71 72 71 70 70 70
75 73 68 72 73 72 72 72 73 75 73 69 66 66 67 69 70 69 68 67 66 65 65 65 63 62 64 69 66 68 70 72 71 70 70 73 73 71 75 75 70 69 69 70 69 70 69 70 86
72 69 69 70 72 72 72 72 76 73 68 64 68 62 64 66 66 67 67 66 65 65 65 64 62 62 62 63 66 68 69 69 70 69 67 69 72 76 71 77 77 81 74 81 75 74 80 83 85
66 68 70 71 71 70 70 73 70 66 60 63 63 63 64 64 63 63 64 65 64 64 63 63 62 61 60 62 65 65 66 66 68 67 66 67 70 72 73 77 76 77 78 81 82 80 78 83 84
66 67 69 71 71 71 71 69 70 57 60 62 62 62 62 62 63 63 64 65 63 62 61 60 61 60 60 60 62 62 63 65 63 66 66 65 65 67 71 73 77 75 76 76 78 81 79 78 81
65 67 69 69 70 69 66 67 67 57 61 60 60 61 61 60 60 62 62 61 60 60 60 59 58 58 58 58 58 59 62 62 63 64 64 61 63 64 66 69 73 74 77 76 78 74 78 77 79
65 62 67 67 68 67 69 61 61 60 62 60 59 59 58 57 60 58 59 59 59 61 60 57 57 57 57 57 58 59 61 60 61 62 61 61 60 61 62 65 68 72 75 77 72 74 72 74 76
63 63 62 66 67 65 66 61 58 61 60 59 58 57 57 56 56 58 58 58 59 59 57 56 57 57 56 56 57 59 60 60 61 62 61 60 59 59 59 62 65 69 71 70 73 73 70 69 71
61 60 58 61 67 65 65 61 62 62 60 57 56 56 55 56 56 56 57 58 58 58 56 56 56 56 54 56 57 58 58 59 60 60 61 60 58 58 58 60 62 64 66 70 69 69 70 67 68
57 56 59 58 64 64 63 63 60 59 58 55 54 54 56 55 55 56 56 57 58 58 56 56 56 55 55 57 57 58 57 58 58 58 59 57 57 57 57 58 59 61 63 65 67 66 71 69 67
56 55 56 61 66 59 60 61 61 57 56 54 55 55 56 54 56 57 56 57 56 56 55 55 54 54 55 55 53 52 51 53 54 56 55 54 56 55 53 52 52 56 60 63 64 66 65 68 72
56 54 55 59 60 58 60 60 62 58 57 57 55 54 54 54 55 54 55 56 54 54 54 54 54 54 54 54 52 51 50 50 51 52 52 51 49 48 49 50 51 52 54 57 61 63 67 70 73
56 53 54 54 58 62 58 58 56 56 55 53 52 53 53 51 51 52 53 53 54 53 52 53 53 53 53 51 53 51 51 50 48 47 47 49 48 48 48 49 50 51 52 50 56 60 60 64 70
50 57 55 53 53 49 57 47 57 57 52 50 52 51 52 51 51 51 52 52 52 52 53 53 52 53 53 51 49 46 44 40 43 43 45 46 46 47 48 48 49 51 51 52 52 56 63 64 61
53 58 55 54 53 51 54 47 55 55 53 51 52 49 50 49 49 49 50 51 53 53 52 52 51 52 52 50 48 46 42 42 41 43 42 44 46 46 47 48 48 48 51 51 53 55 58 65 65
58 55 54 53 53 42 51 49 55 54 52 54 51 48 47 48 48 49 50 50 51 52 51 51 50 51 51 50 47 44 40 39 38 39 40 42 45 44 44 45 45 46 48 51 52 57 60 62 65
58 52 43 41 40 40 49 46 50 56 51 52 45 46 46 47 48 47 46 45 47 47 47 47 48 49 49 48 46 43 40 37 36 37 37 38 40 40 40 41 43 44 48 50 53 57 60 60 59
51 51 42 30 35 41 51 42 50 50 49 49 48 40 45 45 45 43 35 43 44 43 41 43 45 46 47 46 44 42 41 38 37 36 36 37 37 38 39 41 43 45 48 50 54 55 57 62 62
51 48 53 42 45 38 44 50 46 46 45 45 45 44 41 44 42 36 36 41 41 35 33 40 42 44 44 44 43 41 40 38 36 37 37 37 36 37 38 39 40 44 46 48 54 55 57 60 65
53 56 42 44 27 30 42 43 40 37 43 41 34 37 36 41 40 37 33 37 39 33 33 38 41 39 41 42 40 40 38 39 38 36 35 37 35 35 36 36 38 40 43 45 49 53 57 56 62
51 48 47 46 44 33 31 38 49 39 36 36 34 34 34 33 31 35 32 35 37 36 33 32 35 34 33 37 39 38 36 36 38 36 35 35 36 35 34 35 36 36 38 41 43 44 45 45 46
52 48 47 36 36 39 32 34 50 50 49 47 38 33 33 35 31 32 33 34 32 34 34 32 32 32 32 33 34 36 35 34 34 33 33 34 32 34 34 35 35 34 34 37 37 37 38 38 38

GFSSGP_sfc_temp_147.txt.gz
Temp
80 97 99 94 80 82 79 78 85 82 81 87 88 86 79 81 75 64 80 79 82 79 80 77 71 72 72 73 74 75 76 77 78 79 77 77 77 77 76 76 77 77 78 79 79 79 79 79 79
91 96 95 89 76 74 77 82 80 83 84 87 87 87 82 73 82 79 75 79 83 82 79 75 69 70 71 71 71 72 74 75 76 77 78 78 77 76 76 76 77 77 77 79 79 78 79 79 78
87 96 87 84 80 75 75 80 82 83 84 86 82 89 81 75 80 79 80 79 82 83 78 72 68 69 69 70 70 70 71 72 74 75 76 77 78 77 77 77 76 77 77 79 79 79 78 77 76
94 93 91 77 76 77 79 81 83 82 84 86 87 74 78 81 78 81 83 84 82 81 81 71 67 67 68 68 68 68 69 69 70 73 74 75 77 77 77 76 76 77 77 77 78 77 77 75 75
95 91 79 77 75 77 81 82 85 83 82 83 85 77 71 78 81 81 80 80 78 77 77 78 68 67 68 68 67 67 68 68 69 70 73 74 75 75 76 76 75 76 77 77 77 76 76 75 74
85 89 76 74 75 77 81 83 84 82 82 82 81 77 73 80 80 79 79 77 76 74 74 75 73 69 68 68 66 66 67 67 68 69 69 70 71 72 74 75 75 75 75 75 75 75 75 74 73
82 81 76 77 75 75 78 84 81 80 81 81 86 76 75 77 79 81 79 77 74 73 71 71 72 72 70 69 66 66 67 67 68 69 69 69 69 70 72 73 74 74 74 74 74 74 73 73 72
85 82 75 78 74 73 79 81 83 81 77 85 85 75 71 76 79 81 81 77 75 72 70 69 70 71 71 74 69 68 68 68 68 70 69 68 70 72 71 72 73 73 74 74 73 72 72 71 71
88 77 75 74 74 76 81 79 81 84 81 77 78 77 76 77 79 79 79 78 76 74 71 69 68 69 69 74 73 71 71 70 70 72 70 72 79 78 79 75 71 73 72 72 72 71 71 70 70
81 77 75 79 79 78 78 78 79 79 76 73 72 73 75 77 77 76 75 73 73 71 71 71 68 67 68 74 71 73 75 76 74 74 72 73 74 77 77 73 70 69 69 70 70 70 70 70 82
80 74 76 76 78 77 78 79 82 79 76 75 73 70 72 73 73 74 74 73 72 72 71 70 68 67 66 67 70 72 72 73 72 73 69 70 73 76 78 80 81 79 74 78 80 80 78 79 79
72 75 75 75 75 75 76 80 76 73 67 72 73 72 72 71 71 70 70 72 71 70 69 68 67 65 64 66 69 68 69 70 71 70 68 69 70 71 73 76 79 80 79 76 73 77 80 81 79
73 74 76 77 76 76 77 75 76 67 70 71 70 70 70 70 70 71 71 72 70 68 67 65 65 64 64 64 66 66 66 68 67 68 68 68 66 66 70 71 74 76 80 81 78 73 74 76 80
73 74 76 78 77 76 71 75 72 68 70 69 69 69 69 67 67 69 68 67 66 66 66 64 63 63 63 62 62 63 66 66 66 67 68 65 65 64 65 67 70 73 76 79 81 82 77 71 74
73 68 76 75 76 73 74 69 67 68 70 67 68 68 67 65 67 64 64 64 65 66 65 62 62 62 61 61 62 63 65 64 64 66 65 65 64 63 62 64 65 69 72 73 76 79 80 76 75
69 71 65 75 73 72 71 65 68 70 68 67 69 67 64 63 63 63 63 63 66 66 63 63 64 62 61 61 62 63 64 63 64 65 65 63 63 62 61 62 63 66 68 70 72 75 77 79 77
69 63 66 69 74 72 70 67 68 71 69 68 68 66 64 62 62 62 63 64 65 65 62 62 62 61 59 61 62 62 62 63 63 63 63 62 61 60 60 61 62 62 64 66 68 71 73 73 77
61 63 67 65 71 69 68 68 71 70 69 68 67 63 62 62 62 62 63 63 64 64 63 62 62 60 60 62 62 62 62 61 61 61 61 59 58 57 56 55 56 58 60 62 65 66 71 71 72
63 62 62 68 72 66 65 66 71 69 68 66 65 65 64 62 63 63 62 63 62 62 61 61 60 60 60 59 57 57 56 57 58 59 58 55 55 53 51 50 50 52 54 58 60 64 64 67 71
62 60 61 67 68 62 64 65 71 69 66 68 67 64 63 62 62 61 61 61 61 60 59 60 60 59 59 59 57 57 56 57 57 57 55 55 52 50 49 48 48 50 49 51 53 55 58 65 69
62 59 59 59 65 67 64 61 67 69 68 65 63 64 61 60 60 59 59 59 60 59 58 59 59 59 59 57 58 56 56 55 53 51 51 51 50 49 48 48 48 48 48 48 50 53 51 53 64
56 63 59 59 57 51 64 48 62 65 62 60 60 60 60 59 59 59 58 58 59 58 59 59 58 59 58 56 54 50 48 46 47 45 47 49 48 48 49 49 49 48 48 47 49 53 55 54 54
58 61 60 59 57 56 58 53 61 64 60 60 61 60 58 57 57 56 56 57 59 58 57 57 57 58 57 55 51 48 46 46 46 45 44 45 46 46 47 46 45 46 46 47 48 50 51 57 55
62 60 61 60 57 45 56 55 56 60 59 62 61 58 57 56 56 56 56 56 56 57 55 55 55 56 55 54 49 46 44 43 41 42 41 42 43 44 43 44 42 43 44 45 47 48 51 53 57
61 57 46 44 44 44 56 51 55 61 59 60 56 55 56 55 55 54 51 51 52 51 50 52 53 53 53 52 48 47 44 43 40 39 39 39 41 40 39 39 40 41 43 45 46 48 50 53 55
56 54 44 34 37 43 56 46 53 57 57 58 58 52 55 52 52 49 41 49 50 46 43 47 50 49 50 50 47 46 43 42 41 39 39 39 39 37 38 37 39 40 42 44 46 50 50 53 56
55 49 57 45 47 40 47 54 53 57 53 53 53 52 51 52 50 43 42 47 47 36 33 43 45 46 46 47 47 44 42 40 39 39 39 38 39 39 37 37 37 38 39 42 46 49 52 54 57
56 61 44 46 30 32 44 46 45 43 50 50 38 48 47 51 49 43 37 43 45 33 35 40 43 40 42 45 46 44 40 39 39 38 37 37 38 38 36 35 36 37 36 38 42 44 45 45 43
54 51 53 51 46 35 33 39 55 40 39 43 37 36 41 40 35 41 34 40 42 40 33 33 37 36 35 40 43 42 39 38 38 36 36 35 36 37 37 35 35 34 34 35 37 39 40 39 39
57 52 52 40 39 43 37 37 56 57 57 53 46 36 36 42 34 35 38 35 35 38 37 32 33 33 34 36 38 39 38 38 35 34 34 35 34 35 36 36 33 32 32 33 33 34 35 35 34

GFSSGP_sfc_temp_153.txt.gz
Temp
66 73 74 70 57 53 50 59 64 69 70 73 73 67 63 65 63 55 68 71 71 68 68 69 70 71 71 71 71 72 72 73 74 75 75 76 76 76 76 76 76 76 77 78 78 78 78 78 77
65 75 71 65 52 46 52 65 65 70 76 76 75 72 67 61 69 65 68 72 72 69 67 68 70 70 70 70 71 71 71 72 72 73 75 75 75 76 76 76 75 76 77 77 78 79 78 77 76
70 75 63 58 52 48 52 66 69 75 79 78 68 70 68 64 71 71 75 74 71 67 67 68 70 70 70 70 70 70 70 70 71 71 72 73 73 75 75 75 75 76 77 77 79 78 77 76 74
72 67 66 55 52 58 62 66 73 71 75 74 68 61 68 72 71 72 76 74 69 68 67 68 69 70 71 71 70 70 70 70 71 71 72 72 73 73 73 73 74 75 76 77 78 77 76 74 73
69 64 53 52 55 61 68 71 71 71 69 71 70 59 61 69 72 71 68 69 65 63 64 66 69 70 70 71 70 70 70 70 71 71 71 72 73 73 73 72 73 74 75 75 76 75 75 73 73
64 63 51 48 58 65 68 70 74 74 71 70 65 63 61 70 68 67 66 64 63 62 62 63 68 68 68 69 70 69 70 70 70 71 71 71 71 72 73 73 73 73 73 74 74 73 73 73 72
62 55 51 55 61 61 68 72 73 71 71 68 72 62 63 66 68 68 65 62 61 61 60 59 60 64 65 67 68 68 70 70 70 70 68 69 69 69 70 72 73 72 71 72 73 73 72 72 72
64 60 54 55 58 56 70 73 74 71 66 74 71 61 58 66 69 67 64 61 60 59 58 58 58 59 59 59 66 68 68 69 68 68 67 66 67 67 68 69 70 72 72 72 71 72 71 71 71
67 54 49 54 59 57 68 68 75 74 68 69 69 68 70 72 70 65 62 60 59 60 57 56 56 57 57 60 63 63 66 66 66 64 65 61 60 61 64 67 68 70 70 71 70 70 70 70 70
61 51 53 62 62 62 70 71 72 67 65 62 65 69 71 72 68 63 60 57 57 57 56 55 54 54 55 62 56 56 61 59 59 59 58 57 58 60 64 63 66 66 67 68 70 69 69 69 70
58 55 61 64 67 68 65 64 71 67 60 65 62 64 68 68 64 62 60 58 56 55 55 55 53 53 52 53 54 54 56 56 57 57 57 56 57 57 58 59 59 60 64 64 65 67 68 68 70
55 64 67 64 68 65 64 69 65 63 62 67 68 68 66 63 61 60 57 56 55 54 54 54 53 52 52 52 52 52 54 55 57 56 56 55 54 53 55 56 57 58 59 59 60 61 62 65 69
60 64 67 67 68 65 70 64 62 61 66 67 69 67 63 61 59 58 57 56 55 53 53 53 53 51 52 51 51 51 51 52 53 54 56 56 55 54 53 54 55 56 57 57 58 59 60 60 61
65 65 64 67 67 67 65 63 62 61 65 64 65 60 59 59 56 55 54 53 54 54 53 53 52 51 52 50 51 50 51 52 53 53 55 55 53 52 52 53 53 54 55 55 56 57 58 59 61
66 59 61 64 65 63 67 56 59 64 64 62 61 59 59 58 55 52 53 53 53 53 53 53 53 51 50 50 50 50 50 52 50 52 51 52 52 50 49 49 49 50 50 50 52 54 56 57 60
58 55 48 61 65 62 62 51 55 62 62 58 58 59 58 56 55 55 55 54 51 52 52 53 56 51 50 50 49 51 50 49 50 49 50 50 50 50 48 47 47 48 48 49 49 49 51 53 55
52 45 51 57 62 61 57 52 55 59 61 58 56 56 55 54 53 54 53 53 51 51 52 51 51 50 50 49 49 49 49 49 48 49 48 48 48 48 46 46 46 47 47 47 47 48 48 47 49
48 49 46 48 55 57 54 53 58 58 59 57 53 53 53 52 51 54 53 54 51 50 51 51 51 50 49 48 47 47 46 46 47 47 47 47 46 46 45 45 47 48 47 47 48 48 48 47 48
56 53 49 54 61 57 55 50 54 57 56 53 51 53 52 52 53 53 53 52 50 49 50 50 49 48 47 45 44 44 43 45 44 46 46 45 44 44 44 44 44 45 44 45 46 47 47 47 48
56 51 49 54 62 58 51 51 55 56 59 56 54 53 52 52 52 53 50 49 48 47 48 48 49 47 46 45 43 42 42 42 43 44 44 44 43 43 45 43 42 42 42 42 43 43 44 46 50
55 51 50 52 56 54 52 47 53 61 60 59 56 56 55 52 50 51 51 47 45 45 45 47 48 46 46 45 43 42 41 41 41 41 41 41 42 43 43 43 41 41 41 40 41 42 42 41 46
48 58 57 54 48 39 54 38 51 55 54 53 53 51 50 51 51 51 48 45 44 43 44 45 47 46 46 43 41 38 37 36 38 39 41 41 42 41 42 41 41 40 40 39 40 43 42 42 40
53 59 54 52 46 42 45 38 44 55 48 49 50 51 48 48 48 46 46 45 43 42 41 42 44 44 44 42 40 37 35 39 41 39 39 40 40 41 41 40 39 38 38 39 40 40 41 42 42
60 55 52 48 43 29 45 42 41 46 48 49 51 50 50 48 48 47 48 46 40 38 39 39 41 41 41 40 38 36 35 38 37 37 36 37 38 38 39 39 37 37 37 37 39 39 40 41 43
55 46 31 29 27 31 51 44 43 51 55 53 48 47 47 47 46 42 42 40 38 35 35 40 38 39 39 39 37 35 35 38 36 35 35 35 35 35 35 37 35 35 36 37 38 39 40 41 42
51 48 33 28 25 30 48 37 37 50 53 52 50 46 48 46 42 38 39 36 35 33 33 35 36 36 37 37 36 35 34 35 35 35 35 34 34 34 33 35 35 35 35 36 37 38 37 39 40
50 45 52 39 38 28 35 44 47 50 50 49 49 47 44 43 38 37 39 33 31 29 27 33 33 34 35 35 34 34 33 33 32 33 35 34 34 34 32 32 34 34 34 34 35 35 34 36 37
52 55 37 35 26 26 34 35 32 38 43 44 37 43 42 42 37 33 34 33 31 27 28 32 32 32 33 33 33 33 33 32 32 31 30 30 31 31 30 30 32 32 32 32 33 33 33 33 33
48 44 46 43 36 25 21 25 43 39 39 40 37 35 39 37 32 32 29 34 31 30 26 26 30 29 29 32 33 31 31 31 30 30 28 29 30 30 28 29 30 31 30 30 29 31 30 30 30
53 49 47 30 32 30 28 25 48 46 45 46 41 35 37 37 32 31 31 30 29 31 30 26 27 30 29 31 32 31 32 31 30 28 28 28 28 29 28 28 28 30 30 29 27 26 27 26 26

GFSSGP_sfc_temp_156.txt.gz
Temp
63 67 66 67 56 50 45 55 60 64 61 66 68 65 61 62 61 54 67 68 68 65 68 69 70 71 71 72 72 72 73 73 74 75 75 75 75 75 75 75 75 76 77 78 78 78 77 77 77
64 73 68 60 50 43 50 59 61 64 66 70 70 68 63 58 66 65 65 68 70 67 66 67 70 71 71 71 71 71 72 72 72 73 73 74 74 74 75 75 75 75 76 77 78 78 78 77 75
68 71 62 54 46 46 50 61 67 67 71 69 64 65 64 61 69 69 70 69 69 66 66 67 70 70 71 71 71 71 71 72 72 72 73 74 74 74 74 73 74 75 76 77 78 78 77 75 73
69 64 61 52 46 55 59 64 69 67 68 68 64 57 64 67 68 70 72 70 67 64 65 66 69 70 71 71 71 71 71 71 71 71 72 73 73 73 73 73 73 74 75 76 77 77 75 73 72
63 58 50 47 51 59 62 66 64 64 65 64 65 55 58 64 67 68 68 67 62 60 61 63 67 68 70 71 71 71 71 70 71 70 71 71 71 71 71 71 73 73 74 74 75 74 74 73 72
61 57 47 44 53 62 63 66 68 67 66 65 61 59 57 66 64 65 64 61 61 59 59 60 66 67 68 68 69 69 69 70 69 68 69 69 68 69 70 70 70 71 72 72 73 72 73 72 72
57 52 46 47 53 59 65 69 66 66 65 63 66 57 58 62 64 64 62 60 59 58 57 55 56 61 63 65 66 67 67 68 67 67 67 67 66 66 67 67 68 69 69 70 71 71 71 71 71
60 55 47 47 50 53 66 68 68 66 63 71 67 56 53 61 64 63 61 58 56 56 54 54 54 55 54 56 65 65 66 65 65 65 65 64 63 64 65 65 66 67 67 68 69 68 70 70 70
62 51 46 50 53 55 64 64 68 67 63 65 64 65 66 66 65 61 58 56 54 56 53 52 53 54 53 57 60 59 63 63 63 62 63 59 57 58 60 63 64 64 65 65 66 66 67 68 68
56 48 49 58 56 56 66 68 69 61 59 59 62 66 67 65 63 58 56 54 53 52 52 50 51 51 52 59 53 52 57 55 55 56 55 55 54 57 60 60 62 61 63 62 63 64 64 65 67
54 52 59 60 60 62 57 63 63 61 58 60 59 62 63 63 60 57 56 55 53 52 52 51 51 50 49 50 50 50 51 51 52 54 54 53 54 54 55 55 55 55 59 57 59 59 58 59 60
54 60 61 61 61 60 57 61 59 58 61 67 65 63 61 58 57 56 54 52 51 52 51 51 50 50 49 49 49 49 50 51 52 52 53 52 51 51 52 52 53 54 54 53 53 54 55 56 58
57 59 63 63 62 61 66 59 58 57 60 64 66 63 58 55 54 54 53 52 51 51 51 50 50 49 49 49 48 48 48 50 49 49 51 51 49 48 49 49 50 50 49 49 49 51 52 54 56
60 59 60 62 62 61 62 57 58 59 61 60 60 56 55 54 53 52 52 50 51 52 51 50 50 49 49 48 48 47 47 48 49 49 49 49 48 47 47 47 47 47 48 48 48 48 49 51 53
62 57 59 61 61 61 63 54 54 60 60 57 55 53 52 53 52 51 51 49 50 49 51 51 51 49 48 47 48 48 48 49 48 47 47 47 47 45 45 44 45 46 46 46 47 47 48 49 51
54 52 46 57 59 61 62 50 52 58 59 53 52 52 52 51 52 50 49 49 48 49 49 49 53 48 47 46 46 48 47 46 46 45 45 45 45 45 43 43 43 45 45 46 46 46 46 46 47
48 43 47 53 59 57 54 49 50 55 57 53 51 49 50 49 49 49 49 48 48 48 48 48 47 46 46 46 45 45 45 45 45 44 44 44 44 44 42 42 43 43 44 46 47 47 47 47 47
44 45 42 46 53 55 50 50 52 54 56 54 48 48 48 48 47 50 49 48 47 47 47 48 47 46 45 44 43 43 42 43 44 43 43 43 42 42 41 42 41 42 41 42 43 44 46 46 47
53 50 46 49 57 53 52 48 51 54 51 48 46 47 47 48 49 49 49 47 46 46 46 46 45 44 43 41 39 39 38 40 41 42 42 41 41 41 40 40 40 40 39 40 41 42 41 43 47
53 49 47 51 57 54 48 47 51 51 55 52 49 47 47 48 47 49 47 45 44 44 45 45 45 43 42 40 39 39 37 38 38 39 40 40 40 40 40 41 38 38 39 39 40 41 39 42 45
52 49 47 48 52 52 49 43 50 56 57 52 53 50 50 48 47 47 46 42 41 41 42 43 43 42 41 41 39 38 38 37 36 37 38 39 41 40 39 39 38 38 39 38 39 39 39 38 42
46 56 54 50 45 37 50 32 48 51 46 50 49 47 46 48 48 46 43 40 39 38 40 41 42 41 41 39 37 34 32 31 37 37 37 39 39 40 39 39 38 37 37 37 38 41 39 39 38
51 56 52 49 43 38 43 39 38 47 43 44 45 46 46 46 45 42 40 39 38 37 36 38 39 40 39 37 36 33 32 34 39 38 37 36 37 38 37 37 37 36 36 36 37 37 37 39 39
58 53 50 48 43 31 42 42 38 42 45 45 47 47 47 45 44 42 40 39 36 35 35 36 37 37 37 36 34 33 32 32 33 35 34 35 36 35 34 35 36 36 35 35 36 37 38 38 40
52 44 31 29 28 30 47 41 39 45 50 50 45 47 48 47 45 41 37 35 35 33 33 36 34 35 35 34 33 32 32 31 31 34 32 33 32 32 31 33 34 34 34 34 36 37 36 37 37
48 45 32 27 25 30 44 37 37 47 49 50 49 46 47 43 43 38 34 34 33 33 32 32 33 33 34 33 32 32 31 30 29 29 30 30 30 30 30 32 33 33 34 33 34 35 34 35 33
48 41 49 37 35 27 33 39 46 48 46 46 45 45 42 39 38 36 33 32 30 29 27 30 31 32 33 32 31 30 29 28 28 28 28 28 29 31 29 30 32 31 31 32 32 32 32 33 32
49 53 37 31 25 25 30 32 29 38 42 43 38 40 40 40 37 34 32 31 29 25 27 30 31 30 32 31 31 30 29 29 28 28 28 28 28 28 27 28 31 30 29 30 30 30 29 30 30
45 42 43 42 33 25 19 23 40 39 40 41 37 37 40 38 35 34 30 30 30 28 25 26 29 29 29 31 30 30 29 29 29 28 28 28 28 27 27 27 29 29 27 27 27 28 27 27 28
49 46 44 31 31 30 25 22 45 46 45 44 41 37 34 36 30 30 30 29 28 29 28 24 29 23 25 31 31 31 30 30 28 28 28 28 26 27 27 27 26 30 26 25 24 24 25 24 24

GFSSGP_sfc_temp_159.txt.gz
Temp
61 63 63 66 55 48 43 52 56 58 58 62 66 64 59 59 60 53 65 66 67 64 66 68 71 71 71 71 72 72 73 73 73 73 73 73 74 74 75 75 75 75 76 77 78 77 78 77 76
62 69 66 57 48 43 48 56 58 61 63 67 66 64 60 57 65 62 64 66 68 67 65 67 71 71 71 71 72 72 72 72 72 73 73 74 74 74 74 73 73 75 75 77 77 77 78 77 75
65 68 61 51 43 44 48 57 58 64 67 65 60 62 61 60 68 66 67 67 67 64 64 67 70 70 71 71 71 71 71 71 71 72 72 72 72 73 73 72 73 74 75 76 77 77 77 75 73
66 64 58 51 44 52 55 60 62 62 63 64 60 54 61 63 66 68 69 68 64 61 63 65 68 69 70 71 71 71 70 70 70 70 70 71 71 71 71 71 71 72 73 74 75 75 74 73 72
61 56 49 44 47 54 60 64 62 62 60 61 61 53 55 61 68 68 66 65 61 58 58 62 67 67 68 69 69 69 69 68 68 68 68 68 69 69 69 69 70 70 70 71 71 72 72 72 71
58 54 46 42 49 57 59 63 66 62 61 61 57 55 54 62 64 62 63 60 58 56 56 57 63 65 66 66 67 67 67 67 67 67 67 67 67 66 67 67 68 68 68 68 69 68 69 70 71
55 50 44 44 49 53 59 64 62 62 61 59 61 52 55 59 63 61 58 57 56 55 55 54 54 59 61 64 64 65 65 65 65 65 65 64 64 64 65 65 66 66 66 66 67 67 67 68 69
56 52 44 44 48 49 61 64 63 63 60 66 62 51 50 58 60 59 57 55 54 54 53 53 53 53 52 53 63 64 64 64 63 63 63 62 61 62 62 62 63 64 64 64 65 65 65 66 67
56 49 45 46 49 52 59 60 64 64 61 62 61 60 61 60 60 56 54 53 52 53 50 52 52 52 52 54 58 57 61 61 60 59 60 55 53 54 56 60 61 61 62 61 62 62 62 62 63
54 47 50 56 54 53 61 63 62 59 56 56 57 60 60 60 57 54 52 50 50 50 50 50 50 50 51 57 50 50 54 52 52 53 52 52 51 54 55 56 58 58 59 58 58 59 59 59 57
50 51 55 57 58 59 54 56 57 56 53 56 54 55 58 58 56 54 52 51 49 49 49 49 49 48 48 49 48 48 49 48 50 50 50 49 50 50 50 50 51 50 53 50 52 52 53 53 54
51 58 57 58 60 59 55 58 56 53 56 61 59 59 58 55 54 53 51 50 49 49 49 49 49 49 48 48 47 47 48 48 49 48 49 47 46 46 46 47 48 48 47 47 47 47 49 50 52
53 56 59 59 62 57 62 54 57 54 57 60 60 59 55 53 51 52 51 50 50 49 50 49 49 48 48 47 46 46 46 47 46 46 47 46 44 43 44 45 46 46 46 45 45 46 47 47 49
57 56 57 59 59 57 58 53 53 55 56 56 55 51 51 51 50 47 47 47 48 49 48 48 47 47 47 45 45 44 45 44 45 44 44 45 43 42 42 42 43 44 44 45 44 45 45 45 48
59 54 57 55 55 58 59 48 51 57 56 53 51 49 49 50 49 48 47 46 47 47 48 48 46 46 45 44 44 43 44 44 42 43 43 43 43 42 41 41 42 42 43 44 45 46 46 46 47
52 50 46 55 55 57 58 49 53 54 55 49 47 48 49 48 48 46 46 46 45 46 46 46 50 45 43 43 42 43 42 42 42 41 41 42 42 42 40 40 40 41 41 42 42 43 43 44 45
46 41 44 51 55 53 50 49 49 53 54 48 46 46 46 45 45 45 46 45 45 45 45 45 44 43 43 42 42 41 41 41 41 41 41 41 41 41 39 39 39 40 39 39 40 40 41 40 42
42 42 40 45 50 51 47 51 48 51 53 49 42 43 44 45 44 47 46 45 44 44 45 44 44 43 42 41 40 40 40 39 40 39 39 40 40 40 38 39 38 38 38 38 38 40 42 42 41
48 46 44 46 55 49 50 48 50 50 48 44 43 43 43 44 46 47 45 44 43 43 44 44 42 41 41 39 37 36 35 36 37 38 39 39 39 39 38 38 37 37 38 38 40 40 40 40 43
49 45 44 49 55 51 48 47 49 48 52 49 45 44 44 43 44 45 43 41 42 41 42 41 41 40 39 37 36 36 35 35 35 36 37 38 38 38 38 37 35 37 37 37 38 38 38 39 42
47 45 44 47 50 51 45 41 47 49 50 49 48 48 46 44 43 43 43 39 38 38 39 40 39 38 38 37 36 35 35 35 34 34 35 36 37 37 36 37 36 36 37 35 36 37 37 35 39
43 53 51 49 44 36 47 35 45 49 46 46 46 44 43 44 44 43 40 38 37 36 37 38 39 38 38 36 34 32 30 29 32 32 34 35 37 36 35 34 35 35 36 35 35 38 37 37 35
49 54 51 48 42 38 40 37 36 43 41 44 44 44 43 44 43 40 39 38 37 36 34 36 37 37 36 34 33 30 30 31 32 32 32 35 35 34 34 33 34 34 35 34 34 35 37 37 37
54 50 48 43 39 29 40 38 36 38 42 42 44 44 44 44 43 42 41 39 35 34 34 33 34 34 34 33 32 30 28 29 28 29 29 33 33 32 31 32 32 33 34 33 33 35 35 35 35
48 42 30 27 26 30 42 37 40 43 46 46 42 43 44 45 42 39 37 36 35 32 32 34 33 32 33 32 31 29 28 28 27 26 27 27 28 29 28 31 30 32 32 33 33 34 33 33 32
45 44 32 27 25 30 41 33 36 44 47 48 46 44 46 44 43 39 36 35 34 33 32 32 32 32 31 31 29 28 28 27 27 27 27 27 27 27 28 31 30 30 31 31 32 32 31 33 31
45 39 47 34 33 26 31 36 42 44 43 43 43 43 42 43 39 36 35 33 32 29 28 30 30 31 31 30 29 27 28 27 27 27 27 27 28 29 27 30 28 28 28 28 28 29 28 30 30
48 50 35 32 25 25 29 31 28 35 39 40 38 41 40 41 39 35 32 32 30 24 27 29 30 30 30 29 29 28 28 28 28 27 27 26 27 27 27 28 29 27 26 26 26 27 27 27 28
43 40 41 39 33 25 19 24 38 37 39 39 37 37 40 39 36 33 30 30 29 26 24 26 29 29 29 30 29 29 28 29 29 27 26 26 26 26 27 27 28 26 24 25 24 25 25 25 25
46 44 43 30 30 28 22 25 42 43 45 45 42 37 37 38 33 32 30 28 26 27 26 24 25 23 26 29 30 30 30 30 28 26 26 26 25 26 26 26 27 25 23 23 22 22 23 21 22